<?xml version="1.0" encoding="UTF-8" standalone="no" ?>
<gpx xmlns="http://www.topografix.com/GPX/1/1" xmlns:xsi="http://www.w3.org/2001/XMLSchema-instance" xsi:schemaLocation="http://www.topografix.com/GPX/1/1 http://www.topografix.com/GPX/1/1/gpx.xsd" version="1.1" creator="VisuGPX - https://www.visugpx.com">
  <metadata>
    <name>Parcours n°𝟲 [NOIR] = TRÈS DIFFICILE</name>
    <desc><![CDATA[Parcours n°𝟲 [NOIR] = TRÈS DIFFICILE de l'UCP au Plan de la Tour. Ce parcours est labellisé FFC et répond aux normes de ce label.]]></desc>
  </metadata>
  <trk>
    <name><![CDATA[Parcours n°𝟲 [NOIR] = TRÈS DIFFICILE]]></name>
    <desc><![CDATA[Parcours n°𝟲 [NOIR] = TRÈS DIFFICILE de l'UCP au Plan de la Tour. Ce parcours est labellisé FFC et répond aux normes de ce label.]]></desc>
    <extensions>
      <line xmlns="http://www.topografix.com/GPX/gpx_style/0/2">
        <color>000000</color>
        <width>4</width>
          <extensions>
            <sens>1</sens>
          </extensions>
      </line>
    </extensions>
    <trkseg>
      <trkpt lat="43.33825" lon="6.54599">
        <ele>76.21</ele>
        <time>2025-03-15T13:00:00.000Z</time>
      </trkpt>
      <trkpt lat="43.33828" lon="6.54594">
        <ele>76.69</ele>
        <time>2025-03-15T13:00:02.452Z</time>
      </trkpt>
      <trkpt lat="43.33848" lon="6.54576">
        <ele>77.34</ele>
        <time>2025-03-15T13:00:13.323Z</time>
      </trkpt>
      <trkpt lat="43.33868" lon="6.54558">
        <ele>77.88</ele>
        <time>2025-03-15T13:00:24.046Z</time>
      </trkpt>
      <trkpt lat="43.33883" lon="6.54551">
        <ele>78.36</ele>
        <time>2025-03-15T13:00:31.166Z</time>
      </trkpt>
      <trkpt lat="43.33885" lon="6.54547">
        <ele>78.92</ele>
        <time>2025-03-15T13:00:33.732Z</time>
      </trkpt>
      <trkpt lat="43.33885" lon="6.54547">
        <ele>79.49</ele>
        <time>2025-03-15T13:00:33.750Z</time>
      </trkpt>
      <trkpt lat="43.33878" lon="6.54505">
        <ele>80.26</ele>
        <time>2025-03-15T13:00:47.692Z</time>
      </trkpt>
      <trkpt lat="43.33871" lon="6.54463">
        <ele>81.13</ele>
        <time>2025-03-15T13:01:01.773Z</time>
      </trkpt>
      <trkpt lat="43.33866" lon="6.54431">
        <ele>82.1</ele>
        <time>2025-03-15T13:01:12.921Z</time>
      </trkpt>
      <trkpt lat="43.33866" lon="6.54431">
        <ele>82.96</ele>
        <time>2025-03-15T13:01:13.002Z</time>
      </trkpt>
      <trkpt lat="43.33856" lon="6.54388">
        <ele>83.98</ele>
        <time>2025-03-15T13:01:27.831Z</time>
      </trkpt>
      <trkpt lat="43.33845" lon="6.54348">
        <ele>85.1</ele>
        <time>2025-03-15T13:01:42.281Z</time>
      </trkpt>
      <trkpt lat="43.33838" lon="6.5432">
        <ele>86.13</ele>
        <time>2025-03-15T13:01:52.570Z</time>
      </trkpt>
      <trkpt lat="43.33838" lon="6.54318">
        <ele>87.02</ele>
        <time>2025-03-15T13:01:55.329Z</time>
      </trkpt>
      <trkpt lat="43.33821" lon="6.54297">
        <ele>87.88</ele>
        <time>2025-03-15T13:02:06.081Z</time>
      </trkpt>
      <trkpt lat="43.3382" lon="6.54295">
        <ele>88.61</ele>
        <time>2025-03-15T13:02:08.923Z</time>
      </trkpt>
      <trkpt lat="43.33792" lon="6.54274">
        <ele>89.38</ele>
        <time>2025-03-15T13:02:22.894Z</time>
      </trkpt>
      <trkpt lat="43.33789" lon="6.54272">
        <ele>89.99</ele>
        <time>2025-03-15T13:02:25.477Z</time>
      </trkpt>
      <trkpt lat="43.33788" lon="6.54271">
        <ele>90.5</ele>
        <time>2025-03-15T13:02:27.799Z</time>
      </trkpt>
      <trkpt lat="43.33764" lon="6.54243">
        <ele>91.14</ele>
        <time>2025-03-15T13:02:41.582Z</time>
      </trkpt>
      <trkpt lat="43.33753" lon="6.5423">
        <ele>91.64</ele>
        <time>2025-03-15T13:02:48.360Z</time>
      </trkpt>
      <trkpt lat="43.33752" lon="6.54229">
        <ele>92</ele>
        <time>2025-03-15T13:02:49.823Z</time>
      </trkpt>
      <trkpt lat="43.33743" lon="6.54212">
        <ele>92.33</ele>
        <time>2025-03-15T13:02:56.272Z</time>
      </trkpt>
      <trkpt lat="43.33743" lon="6.54211">
        <ele>92.53</ele>
        <time>2025-03-15T13:02:57.180Z</time>
      </trkpt>
      <trkpt lat="43.33711" lon="6.54214">
        <ele>92.41</ele>
        <time>2025-03-15T13:03:09.984Z</time>
      </trkpt>
      <trkpt lat="43.33703" lon="6.54215">
        <ele>92.31</ele>
        <time>2025-03-15T13:03:13.082Z</time>
      </trkpt>
      <trkpt lat="43.33702" lon="6.54215">
        <ele>92.18</ele>
        <time>2025-03-15T13:03:13.570Z</time>
      </trkpt>
      <trkpt lat="43.33686" lon="6.54218">
        <ele>91.91</ele>
        <time>2025-03-15T13:03:19.826Z</time>
      </trkpt>
      <trkpt lat="43.33685" lon="6.54219">
        <ele>91.67</ele>
        <time>2025-03-15T13:03:20.318Z</time>
      </trkpt>
      <trkpt lat="43.3367" lon="6.54224">
        <ele>91.35</ele>
        <time>2025-03-15T13:03:26.083Z</time>
      </trkpt>
      <trkpt lat="43.33669" lon="6.54224">
        <ele>91.04</ele>
        <time>2025-03-15T13:03:26.573Z</time>
      </trkpt>
      <trkpt lat="43.33663" lon="6.54222">
        <ele>90.73</ele>
        <time>2025-03-15T13:03:28.930Z</time>
      </trkpt>
      <trkpt lat="43.33662" lon="6.54221">
        <ele>90.41</ele>
        <time>2025-03-15T13:03:29.418Z</time>
      </trkpt>
      <trkpt lat="43.33651" lon="6.54225">
        <ele>90.1</ele>
        <time>2025-03-15T13:03:33.663Z</time>
      </trkpt>
      <trkpt lat="43.33649" lon="6.54225">
        <ele>89.79</ele>
        <time>2025-03-15T13:03:34.155Z</time>
      </trkpt>
      <trkpt lat="43.33645" lon="6.54226">
        <ele>89.48</ele>
        <time>2025-03-15T13:03:35.800Z</time>
      </trkpt>
      <trkpt lat="43.33643" lon="6.54227">
        <ele>89.19</ele>
        <time>2025-03-15T13:03:36.292Z</time>
      </trkpt>
      <trkpt lat="43.33637" lon="6.54224">
        <ele>88.9</ele>
        <time>2025-03-15T13:03:38.666Z</time>
      </trkpt>
      <trkpt lat="43.33636" lon="6.54223">
        <ele>88.62</ele>
        <time>2025-03-15T13:03:39.158Z</time>
      </trkpt>
      <trkpt lat="43.33605" lon="6.54229">
        <ele>88.48</ele>
        <time>2025-03-15T13:03:51.937Z</time>
      </trkpt>
      <trkpt lat="43.33603" lon="6.5423">
        <ele>88.24</ele>
        <time>2025-03-15T13:03:52.589Z</time>
      </trkpt>
      <trkpt lat="43.33601" lon="6.5423">
        <ele>88</ele>
        <time>2025-03-15T13:03:53.083Z</time>
      </trkpt>
      <trkpt lat="43.33576" lon="6.54232">
        <ele>87.73</ele>
        <time>2025-03-15T13:04:03.021Z</time>
      </trkpt>
      <trkpt lat="43.33575" lon="6.54232">
        <ele>87.46</ele>
        <time>2025-03-15T13:04:03.526Z</time>
      </trkpt>
      <trkpt lat="43.33572" lon="6.54241">
        <ele>87.17</ele>
        <time>2025-03-15T13:04:05.967Z</time>
      </trkpt>
      <trkpt lat="43.33572" lon="6.54242">
        <ele>86.87</ele>
        <time>2025-03-15T13:04:06.459Z</time>
      </trkpt>
      <trkpt lat="43.33575" lon="6.54285">
        <ele>86.49</ele>
        <time>2025-03-15T13:04:18.898Z</time>
      </trkpt>
      <trkpt lat="43.33577" lon="6.54328">
        <ele>86.06</ele>
        <time>2025-03-15T13:04:31.279Z</time>
      </trkpt>
      <trkpt lat="43.3358" lon="6.54371">
        <ele>85.55</ele>
        <time>2025-03-15T13:04:43.566Z</time>
      </trkpt>
      <trkpt lat="43.33582" lon="6.54402">
        <ele>85.07</ele>
        <time>2025-03-15T13:04:52.209Z</time>
      </trkpt>
      <trkpt lat="43.33583" lon="6.54404">
        <ele>84.65</ele>
        <time>2025-03-15T13:04:52.687Z</time>
      </trkpt>
      <trkpt lat="43.33572" lon="6.5443">
        <ele>84.16</ele>
        <time>2025-03-15T13:05:00.907Z</time>
      </trkpt>
      <trkpt lat="43.33572" lon="6.54431">
        <ele>83.75</ele>
        <time>2025-03-15T13:05:01.394Z</time>
      </trkpt>
      <trkpt lat="43.33566" lon="6.54447">
        <ele>83.33</ele>
        <time>2025-03-15T13:05:06.145Z</time>
      </trkpt>
      <trkpt lat="43.33566" lon="6.54449">
        <ele>82.95</ele>
        <time>2025-03-15T13:05:06.639Z</time>
      </trkpt>
      <trkpt lat="43.33567" lon="6.5448">
        <ele>82.59</ele>
        <time>2025-03-15T13:05:15.459Z</time>
      </trkpt>
      <trkpt lat="43.33567" lon="6.54482">
        <ele>82.25</ele>
        <time>2025-03-15T13:05:15.945Z</time>
      </trkpt>
      <trkpt lat="43.33556" lon="6.54503">
        <ele>81.92</ele>
        <time>2025-03-15T13:05:23.319Z</time>
      </trkpt>
      <trkpt lat="43.33556" lon="6.54504">
        <ele>81.62</ele>
        <time>2025-03-15T13:05:23.818Z</time>
      </trkpt>
      <trkpt lat="43.33529" lon="6.54527">
        <ele>81.3</ele>
        <time>2025-03-15T13:05:36.364Z</time>
      </trkpt>
      <trkpt lat="43.33503" lon="6.5455">
        <ele>80.95</ele>
        <time>2025-03-15T13:05:48.718Z</time>
      </trkpt>
      <trkpt lat="43.33502" lon="6.5455">
        <ele>80.68</ele>
        <time>2025-03-15T13:05:48.855Z</time>
      </trkpt>
      <trkpt lat="43.33501" lon="6.54551">
        <ele>80.43</ele>
        <time>2025-03-15T13:05:49.229Z</time>
      </trkpt>
      <trkpt lat="43.33496" lon="6.54558">
        <ele>80.16</ele>
        <time>2025-03-15T13:05:51.974Z</time>
      </trkpt>
      <trkpt lat="43.33495" lon="6.54559">
        <ele>79.93</ele>
        <time>2025-03-15T13:05:52.485Z</time>
      </trkpt>
      <trkpt lat="43.33479" lon="6.54548">
        <ele>79.76</ele>
        <time>2025-03-15T13:05:59.617Z</time>
      </trkpt>
      <trkpt lat="43.33477" lon="6.54547">
        <ele>79.57</ele>
        <time>2025-03-15T13:06:00.132Z</time>
      </trkpt>
      <trkpt lat="43.33454" lon="6.54517">
        <ele>79.47</ele>
        <time>2025-03-15T13:06:12.938Z</time>
      </trkpt>
      <trkpt lat="43.33439" lon="6.54497">
        <ele>79.32</ele>
        <time>2025-03-15T13:06:21.598Z</time>
      </trkpt>
      <trkpt lat="43.33438" lon="6.54496">
        <ele>79.13</ele>
        <time>2025-03-15T13:06:22.111Z</time>
      </trkpt>
      <trkpt lat="43.33415" lon="6.54466">
        <ele>78.88</ele>
        <time>2025-03-15T13:06:34.731Z</time>
      </trkpt>
      <trkpt lat="43.33407" lon="6.54457">
        <ele>78.66</ele>
        <time>2025-03-15T13:06:38.597Z</time>
      </trkpt>
      <trkpt lat="43.33406" lon="6.54455">
        <ele>78.42</ele>
        <time>2025-03-15T13:06:39.112Z</time>
      </trkpt>
      <trkpt lat="43.33399" lon="6.54449">
        <ele>78.18</ele>
        <time>2025-03-15T13:06:42.396Z</time>
      </trkpt>
      <trkpt lat="43.33398" lon="6.54448">
        <ele>77.91</ele>
        <time>2025-03-15T13:06:42.913Z</time>
      </trkpt>
      <trkpt lat="43.33385" lon="6.54448">
        <ele>77.67</ele>
        <time>2025-03-15T13:06:47.964Z</time>
      </trkpt>
      <trkpt lat="43.33384" lon="6.54448">
        <ele>77.36</ele>
        <time>2025-03-15T13:06:48.487Z</time>
      </trkpt>
      <trkpt lat="43.33353" lon="6.54459">
        <ele>76.99</ele>
        <time>2025-03-15T13:07:00.981Z</time>
      </trkpt>
      <trkpt lat="43.33345" lon="6.54462">
        <ele>76.62</ele>
        <time>2025-03-15T13:07:04.146Z</time>
      </trkpt>
      <trkpt lat="43.33343" lon="6.54463">
        <ele>76.22</ele>
        <time>2025-03-15T13:07:04.670Z</time>
      </trkpt>
      <trkpt lat="43.33328" lon="6.54464">
        <ele>75.75</ele>
        <time>2025-03-15T13:07:10.518Z</time>
      </trkpt>
      <trkpt lat="43.33326" lon="6.54465">
        <ele>75.32</ele>
        <time>2025-03-15T13:07:11.046Z</time>
      </trkpt>
      <trkpt lat="43.33296" lon="6.5445">
        <ele>74.82</ele>
        <time>2025-03-15T13:07:23.385Z</time>
      </trkpt>
      <trkpt lat="43.33291" lon="6.54448">
        <ele>74.34</ele>
        <time>2025-03-15T13:07:25.360Z</time>
      </trkpt>
      <trkpt lat="43.3329" lon="6.54447">
        <ele>73.86</ele>
        <time>2025-03-15T13:07:25.887Z</time>
      </trkpt>
      <trkpt lat="43.3326" lon="6.54435">
        <ele>73.28</ele>
        <time>2025-03-15T13:07:38.132Z</time>
      </trkpt>
      <trkpt lat="43.3323" lon="6.54422">
        <ele>72.69</ele>
        <time>2025-03-15T13:07:50.364Z</time>
      </trkpt>
      <trkpt lat="43.33224" lon="6.5442">
        <ele>72.19</ele>
        <time>2025-03-15T13:07:52.624Z</time>
      </trkpt>
      <trkpt lat="43.33222" lon="6.54419">
        <ele>71.72</ele>
        <time>2025-03-15T13:07:53.149Z</time>
      </trkpt>
      <trkpt lat="43.33206" lon="6.54408">
        <ele>71.23</ele>
        <time>2025-03-15T13:08:00.176Z</time>
      </trkpt>
      <trkpt lat="43.33204" lon="6.54407">
        <ele>70.82</ele>
        <time>2025-03-15T13:08:00.706Z</time>
      </trkpt>
      <trkpt lat="43.33174" lon="6.54412">
        <ele>70.33</ele>
        <time>2025-03-15T13:08:12.416Z</time>
      </trkpt>
      <trkpt lat="43.33173" lon="6.54412">
        <ele>69.98</ele>
        <time>2025-03-15T13:08:12.957Z</time>
      </trkpt>
      <trkpt lat="43.33157" lon="6.54375">
        <ele>69.66</ele>
        <time>2025-03-15T13:08:25.483Z</time>
      </trkpt>
      <trkpt lat="43.33157" lon="6.54373">
        <ele>69.41</ele>
        <time>2025-03-15T13:08:26.040Z</time>
      </trkpt>
      <trkpt lat="43.33156" lon="6.54371">
        <ele>69.23</ele>
        <time>2025-03-15T13:08:26.568Z</time>
      </trkpt>
      <trkpt lat="43.33154" lon="6.54365">
        <ele>69.11</ele>
        <time>2025-03-15T13:08:28.525Z</time>
      </trkpt>
      <trkpt lat="43.33156" lon="6.54352">
        <ele>69.07</ele>
        <time>2025-03-15T13:08:32.426Z</time>
      </trkpt>
      <trkpt lat="43.33169" lon="6.54328">
        <ele>69.16</ele>
        <time>2025-03-15T13:08:41.366Z</time>
      </trkpt>
      <trkpt lat="43.33169" lon="6.54328">
        <ele>69.23</ele>
        <time>2025-03-15T13:08:41.384Z</time>
      </trkpt>
      <trkpt lat="43.33173" lon="6.5429">
        <ele>69.38</ele>
        <time>2025-03-15T13:08:53.264Z</time>
      </trkpt>
      <trkpt lat="43.33172" lon="6.54265">
        <ele>69.58</ele>
        <time>2025-03-15T13:09:00.938Z</time>
      </trkpt>
      <trkpt lat="43.33171" lon="6.54242">
        <ele>69.85</ele>
        <time>2025-03-15T13:09:08.072Z</time>
      </trkpt>
      <trkpt lat="43.33171" lon="6.5424">
        <ele>70.17</ele>
        <time>2025-03-15T13:09:09.372Z</time>
      </trkpt>
      <trkpt lat="43.33168" lon="6.54212">
        <ele>70.53</ele>
        <time>2025-03-15T13:09:18.315Z</time>
      </trkpt>
      <trkpt lat="43.33165" lon="6.54184">
        <ele>70.95</ele>
        <time>2025-03-15T13:09:27.299Z</time>
      </trkpt>
      <trkpt lat="43.3316" lon="6.54163">
        <ele>71.43</ele>
        <time>2025-03-15T13:09:34.605Z</time>
      </trkpt>
      <trkpt lat="43.33148" lon="6.54135">
        <ele>72.02</ele>
        <time>2025-03-15T13:09:45.065Z</time>
      </trkpt>
      <trkpt lat="43.33137" lon="6.54107">
        <ele>72.66</ele>
        <time>2025-03-15T13:09:55.560Z</time>
      </trkpt>
      <trkpt lat="43.3313" lon="6.54073">
        <ele>73.43</ele>
        <time>2025-03-15T13:10:07.233Z</time>
      </trkpt>
      <trkpt lat="43.33124" lon="6.54038">
        <ele>74.23</ele>
        <time>2025-03-15T13:10:18.897Z</time>
      </trkpt>
      <trkpt lat="43.33124" lon="6.54038">
        <ele>74.99</ele>
        <time>2025-03-15T13:10:18.915Z</time>
      </trkpt>
      <trkpt lat="43.33128" lon="6.54017">
        <ele>75.84</ele>
        <time>2025-03-15T13:10:26.781Z</time>
      </trkpt>
      <trkpt lat="43.33138" lon="6.53986">
        <ele>76.7</ele>
        <time>2025-03-15T13:10:38.095Z</time>
      </trkpt>
      <trkpt lat="43.33147" lon="6.53955">
        <ele>77.59</ele>
        <time>2025-03-15T13:10:49.416Z</time>
      </trkpt>
      <trkpt lat="43.33147" lon="6.53928">
        <ele>78.51</ele>
        <time>2025-03-15T13:10:58.753Z</time>
      </trkpt>
      <trkpt lat="43.33147" lon="6.53901">
        <ele>79.49</ele>
        <time>2025-03-15T13:11:08.144Z</time>
      </trkpt>
      <trkpt lat="43.33149" lon="6.53895">
        <ele>80.44</ele>
        <time>2025-03-15T13:11:12.153Z</time>
      </trkpt>
      <trkpt lat="43.33154" lon="6.53888">
        <ele>81.4</ele>
        <time>2025-03-15T13:11:16.511Z</time>
      </trkpt>
      <trkpt lat="43.33182" lon="6.53882">
        <ele>82.42</ele>
        <time>2025-03-15T13:11:29.542Z</time>
      </trkpt>
      <trkpt lat="43.33205" lon="6.53871">
        <ele>83.47</ele>
        <time>2025-03-15T13:11:41.225Z</time>
      </trkpt>
      <trkpt lat="43.33214" lon="6.53863">
        <ele>84.47</ele>
        <time>2025-03-15T13:11:47.163Z</time>
      </trkpt>
      <trkpt lat="43.33227" lon="6.53831">
        <ele>85.49</ele>
        <time>2025-03-15T13:11:59.295Z</time>
      </trkpt>
      <trkpt lat="43.3324" lon="6.538">
        <ele>86.49</ele>
        <time>2025-03-15T13:12:11.365Z</time>
      </trkpt>
      <trkpt lat="43.33246" lon="6.5379">
        <ele>87.38</ele>
        <time>2025-03-15T13:12:16.904Z</time>
      </trkpt>
      <trkpt lat="43.33268" lon="6.53779">
        <ele>88.36</ele>
        <time>2025-03-15T13:12:27.659Z</time>
      </trkpt>
      <trkpt lat="43.33293" lon="6.53761">
        <ele>89.27</ele>
        <time>2025-03-15T13:12:40.799Z</time>
      </trkpt>
      <trkpt lat="43.33319" lon="6.53742">
        <ele>90.2</ele>
        <time>2025-03-15T13:12:53.981Z</time>
      </trkpt>
      <trkpt lat="43.33343" lon="6.5372">
        <ele>91.07</ele>
        <time>2025-03-15T13:13:07.157Z</time>
      </trkpt>
      <trkpt lat="43.33368" lon="6.53698">
        <ele>91.95</ele>
        <time>2025-03-15T13:13:20.346Z</time>
      </trkpt>
      <trkpt lat="43.33392" lon="6.53676">
        <ele>92.84</ele>
        <time>2025-03-15T13:13:33.553Z</time>
      </trkpt>
      <trkpt lat="43.33403" lon="6.53672">
        <ele>93.63</ele>
        <time>2025-03-15T13:13:39.322Z</time>
      </trkpt>
      <trkpt lat="43.33416" lon="6.5368">
        <ele>94.41</ele>
        <time>2025-03-15T13:13:46.322Z</time>
      </trkpt>
      <trkpt lat="43.33422" lon="6.5368">
        <ele>95.12</ele>
        <time>2025-03-15T13:13:50.132Z</time>
      </trkpt>
      <trkpt lat="43.33448" lon="6.53667">
        <ele>95.9</ele>
        <time>2025-03-15T13:14:02.374Z</time>
      </trkpt>
      <trkpt lat="43.33448" lon="6.53667">
        <ele>96.51</ele>
        <time>2025-03-15T13:14:02.776Z</time>
      </trkpt>
      <trkpt lat="43.33448" lon="6.53666">
        <ele>97.09</ele>
        <time>2025-03-15T13:14:05.574Z</time>
      </trkpt>
      <trkpt lat="43.3346" lon="6.53625">
        <ele>97.68</ele>
        <time>2025-03-15T13:14:19.287Z</time>
      </trkpt>
      <trkpt lat="43.3347" lon="6.53584">
        <ele>98.17</ele>
        <time>2025-03-15T13:14:32.843Z</time>
      </trkpt>
      <trkpt lat="43.3348" lon="6.53543">
        <ele>98.6</ele>
        <time>2025-03-15T13:14:46.319Z</time>
      </trkpt>
      <trkpt lat="43.33483" lon="6.53531">
        <ele>99.03</ele>
        <time>2025-03-15T13:14:50.882Z</time>
      </trkpt>
      <trkpt lat="43.33483" lon="6.53529">
        <ele>99.44</ele>
        <time>2025-03-15T13:14:52.546Z</time>
      </trkpt>
      <trkpt lat="43.33503" lon="6.53506">
        <ele>99.86</ele>
        <time>2025-03-15T13:15:03.840Z</time>
      </trkpt>
      <trkpt lat="43.33504" lon="6.53504">
        <ele>100.23</ele>
        <time>2025-03-15T13:15:05.335Z</time>
      </trkpt>
      <trkpt lat="43.33514" lon="6.53473">
        <ele>100.63</ele>
        <time>2025-03-15T13:15:16.028Z</time>
      </trkpt>
      <trkpt lat="43.33514" lon="6.53471">
        <ele>100.97</ele>
        <time>2025-03-15T13:15:17.407Z</time>
      </trkpt>
      <trkpt lat="43.33527" lon="6.53456">
        <ele>101.38</ele>
        <time>2025-03-15T13:15:24.589Z</time>
      </trkpt>
      <trkpt lat="43.33528" lon="6.53455">
        <ele>101.71</ele>
        <time>2025-03-15T13:15:25.939Z</time>
      </trkpt>
      <trkpt lat="43.33559" lon="6.5345">
        <ele>102.16</ele>
        <time>2025-03-15T13:15:39.484Z</time>
      </trkpt>
      <trkpt lat="43.33566" lon="6.53449">
        <ele>102.51</ele>
        <time>2025-03-15T13:15:43.020Z</time>
      </trkpt>
      <trkpt lat="43.33568" lon="6.53448">
        <ele>102.83</ele>
        <time>2025-03-15T13:15:44.340Z</time>
      </trkpt>
      <trkpt lat="43.33554" lon="6.53415">
        <ele>103.11</ele>
        <time>2025-03-15T13:15:56.206Z</time>
      </trkpt>
      <trkpt lat="43.3354" lon="6.53382">
        <ele>103.31</ele>
        <time>2025-03-15T13:16:07.926Z</time>
      </trkpt>
      <trkpt lat="43.33526" lon="6.53368">
        <ele>103.54</ele>
        <time>2025-03-15T13:16:15.322Z</time>
      </trkpt>
      <trkpt lat="43.33512" lon="6.53354">
        <ele>103.8</ele>
        <time>2025-03-15T13:16:22.751Z</time>
      </trkpt>
      <trkpt lat="43.33506" lon="6.53339">
        <ele>104.1</ele>
        <time>2025-03-15T13:16:28.366Z</time>
      </trkpt>
      <trkpt lat="43.33506" lon="6.53315">
        <ele>104.47</ele>
        <time>2025-03-15T13:16:35.917Z</time>
      </trkpt>
      <trkpt lat="43.33501" lon="6.53296">
        <ele>104.89</ele>
        <time>2025-03-15T13:16:42.523Z</time>
      </trkpt>
      <trkpt lat="43.33491" lon="6.53275">
        <ele>105.37</ele>
        <time>2025-03-15T13:16:50.954Z</time>
      </trkpt>
      <trkpt lat="43.33489" lon="6.53249">
        <ele>105.93</ele>
        <time>2025-03-15T13:16:59.463Z</time>
      </trkpt>
      <trkpt lat="43.33491" lon="6.5321">
        <ele>106.44</ele>
        <time>2025-03-15T13:17:11.721Z</time>
      </trkpt>
      <trkpt lat="43.33477" lon="6.53177">
        <ele>107</ele>
        <time>2025-03-15T13:17:23.893Z</time>
      </trkpt>
      <trkpt lat="43.33464" lon="6.53143">
        <ele>107.65</ele>
        <time>2025-03-15T13:17:36.188Z</time>
      </trkpt>
      <trkpt lat="43.33451" lon="6.5311">
        <ele>108.37</ele>
        <time>2025-03-15T13:17:48.581Z</time>
      </trkpt>
      <trkpt lat="43.33437" lon="6.53076">
        <ele>109.06</ele>
        <time>2025-03-15T13:18:00.930Z</time>
      </trkpt>
      <trkpt lat="43.33424" lon="6.53043">
        <ele>109.78</ele>
        <time>2025-03-15T13:18:13.230Z</time>
      </trkpt>
      <trkpt lat="43.33407" lon="6.53019">
        <ele>110.53</ele>
        <time>2025-03-15T13:18:24.085Z</time>
      </trkpt>
      <trkpt lat="43.33391" lon="6.52996">
        <ele>111.27</ele>
        <time>2025-03-15T13:18:34.924Z</time>
      </trkpt>
      <trkpt lat="43.33374" lon="6.52972">
        <ele>111.98</ele>
        <time>2025-03-15T13:18:45.721Z</time>
      </trkpt>
      <trkpt lat="43.33358" lon="6.52948">
        <ele>112.66</ele>
        <time>2025-03-15T13:18:56.444Z</time>
      </trkpt>
      <trkpt lat="43.33355" lon="6.52936">
        <ele>113.24</ele>
        <time>2025-03-15T13:19:01.236Z</time>
      </trkpt>
      <trkpt lat="43.33355" lon="6.52936">
        <ele>113.77</ele>
        <time>2025-03-15T13:19:01.254Z</time>
      </trkpt>
      <trkpt lat="43.33339" lon="6.52912">
        <ele>114.23</ele>
        <time>2025-03-15T13:19:11.651Z</time>
      </trkpt>
      <trkpt lat="43.33323" lon="6.52888">
        <ele>114.62</ele>
        <time>2025-03-15T13:19:21.948Z</time>
      </trkpt>
      <trkpt lat="43.33306" lon="6.52865">
        <ele>114.9</ele>
        <time>2025-03-15T13:19:32.074Z</time>
      </trkpt>
      <trkpt lat="43.333" lon="6.52841">
        <ele>115.26</ele>
        <time>2025-03-15T13:19:40.090Z</time>
      </trkpt>
      <trkpt lat="43.33304" lon="6.52819">
        <ele>115.7</ele>
        <time>2025-03-15T13:19:47.662Z</time>
      </trkpt>
      <trkpt lat="43.33308" lon="6.52796">
        <ele>116.11</ele>
        <time>2025-03-15T13:19:55.161Z</time>
      </trkpt>
      <trkpt lat="43.33319" lon="6.52766">
        <ele>116.48</ele>
        <time>2025-03-15T13:20:05.656Z</time>
      </trkpt>
      <trkpt lat="43.33328" lon="6.52746">
        <ele>116.85</ele>
        <time>2025-03-15T13:20:13.203Z</time>
      </trkpt>
      <trkpt lat="43.33336" lon="6.52725">
        <ele>117.16</ele>
        <time>2025-03-15T13:20:20.646Z</time>
      </trkpt>
      <trkpt lat="43.33355" lon="6.52697">
        <ele>117.52</ele>
        <time>2025-03-15T13:20:32.636Z</time>
      </trkpt>
      <trkpt lat="43.3336" lon="6.52691">
        <ele>117.79</ele>
        <time>2025-03-15T13:20:35.624Z</time>
      </trkpt>
      <trkpt lat="43.33374" lon="6.52669">
        <ele>118.02</ele>
        <time>2025-03-15T13:20:44.535Z</time>
      </trkpt>
      <trkpt lat="43.33388" lon="6.52648">
        <ele>118.29</ele>
        <time>2025-03-15T13:20:53.487Z</time>
      </trkpt>
      <trkpt lat="43.33398" lon="6.52622">
        <ele>118.51</ele>
        <time>2025-03-15T13:21:02.648Z</time>
      </trkpt>
      <trkpt lat="43.33396" lon="6.52614">
        <ele>118.68</ele>
        <time>2025-03-15T13:21:05.590Z</time>
      </trkpt>
      <trkpt lat="43.33379" lon="6.52597">
        <ele>118.75</ele>
        <time>2025-03-15T13:21:14.409Z</time>
      </trkpt>
      <trkpt lat="43.33375" lon="6.52584">
        <ele>118.93</ele>
        <time>2025-03-15T13:21:18.882Z</time>
      </trkpt>
      <trkpt lat="43.33383" lon="6.52549">
        <ele>119.17</ele>
        <time>2025-03-15T13:21:30.051Z</time>
      </trkpt>
      <trkpt lat="43.33396" lon="6.52528">
        <ele>119.4</ele>
        <time>2025-03-15T13:21:38.670Z</time>
      </trkpt>
      <trkpt lat="43.33423" lon="6.52509">
        <ele>119.72</ele>
        <time>2025-03-15T13:21:51.529Z</time>
      </trkpt>
      <trkpt lat="43.3345" lon="6.52489">
        <ele>119.96</ele>
        <time>2025-03-15T13:22:04.296Z</time>
      </trkpt>
      <trkpt lat="43.33456" lon="6.52483">
        <ele>120.19</ele>
        <time>2025-03-15T13:22:07.879Z</time>
      </trkpt>
      <trkpt lat="43.33456" lon="6.52476">
        <ele>120.4</ele>
        <time>2025-03-15T13:22:10.099Z</time>
      </trkpt>
      <trkpt lat="43.33454" lon="6.52472">
        <ele>120.63</ele>
        <time>2025-03-15T13:22:11.992Z</time>
      </trkpt>
      <trkpt lat="43.33431" lon="6.52463">
        <ele>120.82</ele>
        <time>2025-03-15T13:22:22.267Z</time>
      </trkpt>
      <trkpt lat="43.33407" lon="6.52455">
        <ele>121.02</ele>
        <time>2025-03-15T13:22:32.572Z</time>
      </trkpt>
      <trkpt lat="43.33401" lon="6.52446">
        <ele>121.29</ele>
        <time>2025-03-15T13:22:36.627Z</time>
      </trkpt>
      <trkpt lat="43.33388" lon="6.52416">
        <ele>121.62</ele>
        <time>2025-03-15T13:22:47.487Z</time>
      </trkpt>
      <trkpt lat="43.33383" lon="6.52399">
        <ele>121.9</ele>
        <time>2025-03-15T13:22:53.288Z</time>
      </trkpt>
      <trkpt lat="43.33383" lon="6.52388">
        <ele>122.25</ele>
        <time>2025-03-15T13:22:56.986Z</time>
      </trkpt>
      <trkpt lat="43.33393" lon="6.52348">
        <ele>122.81</ele>
        <time>2025-03-15T13:23:10.327Z</time>
      </trkpt>
      <trkpt lat="43.33402" lon="6.52308">
        <ele>123.35</ele>
        <time>2025-03-15T13:23:23.641Z</time>
      </trkpt>
      <trkpt lat="43.33411" lon="6.52268">
        <ele>123.84</ele>
        <time>2025-03-15T13:23:36.806Z</time>
      </trkpt>
      <trkpt lat="43.33426" lon="6.52245">
        <ele>124.45</ele>
        <time>2025-03-15T13:23:47.014Z</time>
      </trkpt>
      <trkpt lat="43.33441" lon="6.52221">
        <ele>124.98</ele>
        <time>2025-03-15T13:23:57.093Z</time>
      </trkpt>
      <trkpt lat="43.3345" lon="6.522">
        <ele>125.49</ele>
        <time>2025-03-15T13:24:05.106Z</time>
      </trkpt>
      <trkpt lat="43.33456" lon="6.52162">
        <ele>125.97</ele>
        <time>2025-03-15T13:24:17.135Z</time>
      </trkpt>
      <trkpt lat="43.33461" lon="6.52125">
        <ele>126.47</ele>
        <time>2025-03-15T13:24:29.189Z</time>
      </trkpt>
      <trkpt lat="43.33467" lon="6.52088">
        <ele>126.95</ele>
        <time>2025-03-15T13:24:41.140Z</time>
      </trkpt>
      <trkpt lat="43.33469" lon="6.52065">
        <ele>127.4</ele>
        <time>2025-03-15T13:24:48.559Z</time>
      </trkpt>
      <trkpt lat="43.33471" lon="6.52043">
        <ele>127.94</ele>
        <time>2025-03-15T13:24:56.073Z</time>
      </trkpt>
      <trkpt lat="43.33471" lon="6.52019">
        <ele>128.49</ele>
        <time>2025-03-15T13:25:03.881Z</time>
      </trkpt>
      <trkpt lat="43.33466" lon="6.51996">
        <ele>129.02</ele>
        <time>2025-03-15T13:25:12.010Z</time>
      </trkpt>
      <trkpt lat="43.33461" lon="6.51972">
        <ele>129.61</ele>
        <time>2025-03-15T13:25:20.193Z</time>
      </trkpt>
      <trkpt lat="43.33465" lon="6.51948">
        <ele>130.31</ele>
        <time>2025-03-15T13:25:28.456Z</time>
      </trkpt>
      <trkpt lat="43.33469" lon="6.51925">
        <ele>131.05</ele>
        <time>2025-03-15T13:25:36.744Z</time>
      </trkpt>
      <trkpt lat="43.33465" lon="6.5191">
        <ele>131.71</ele>
        <time>2025-03-15T13:25:42.518Z</time>
      </trkpt>
      <trkpt lat="43.3345" lon="6.51899">
        <ele>132.35</ele>
        <time>2025-03-15T13:25:50.360Z</time>
      </trkpt>
      <trkpt lat="43.33426" lon="6.51878">
        <ele>133.11</ele>
        <time>2025-03-15T13:26:03.018Z</time>
      </trkpt>
      <trkpt lat="43.33403" lon="6.51856">
        <ele>134</ele>
        <time>2025-03-15T13:26:15.862Z</time>
      </trkpt>
      <trkpt lat="43.33382" lon="6.51833">
        <ele>134.93</ele>
        <time>2025-03-15T13:26:28.098Z</time>
      </trkpt>
      <trkpt lat="43.33362" lon="6.51809">
        <ele>135.83</ele>
        <time>2025-03-15T13:26:40.281Z</time>
      </trkpt>
      <trkpt lat="43.33351" lon="6.51793">
        <ele>136.76</ele>
        <time>2025-03-15T13:26:48.162Z</time>
      </trkpt>
      <trkpt lat="43.3334" lon="6.51777">
        <ele>137.73</ele>
        <time>2025-03-15T13:26:56.093Z</time>
      </trkpt>
      <trkpt lat="43.3334" lon="6.5176">
        <ele>138.72</ele>
        <time>2025-03-15T13:27:02.730Z</time>
      </trkpt>
      <trkpt lat="43.33351" lon="6.51745">
        <ele>139.77</ele>
        <time>2025-03-15T13:27:10.580Z</time>
      </trkpt>
      <trkpt lat="43.33355" lon="6.5173">
        <ele>140.85</ele>
        <time>2025-03-15T13:27:17.097Z</time>
      </trkpt>
      <trkpt lat="43.33353" lon="6.51687">
        <ele>142.03</ele>
        <time>2025-03-15T13:27:31.588Z</time>
      </trkpt>
      <trkpt lat="43.33345" lon="6.51652">
        <ele>143.13</ele>
        <time>2025-03-15T13:27:43.999Z</time>
      </trkpt>
      <trkpt lat="43.33336" lon="6.51618">
        <ele>144.28</ele>
        <time>2025-03-15T13:27:56.438Z</time>
      </trkpt>
      <trkpt lat="43.33342" lon="6.51592">
        <ele>145.53</ele>
        <time>2025-03-15T13:28:06.296Z</time>
      </trkpt>
      <trkpt lat="43.33347" lon="6.51567">
        <ele>146.73</ele>
        <time>2025-03-15T13:28:16.036Z</time>
      </trkpt>
      <trkpt lat="43.33361" lon="6.51548">
        <ele>147.86</ele>
        <time>2025-03-15T13:28:25.588Z</time>
      </trkpt>
      <trkpt lat="43.33375" lon="6.5153">
        <ele>149.16</ele>
        <time>2025-03-15T13:28:35.418Z</time>
      </trkpt>
      <trkpt lat="43.33375" lon="6.5153">
        <ele>150.38</ele>
        <time>2025-03-15T13:28:35.436Z</time>
      </trkpt>
      <trkpt lat="43.33373" lon="6.51502">
        <ele>151.63</ele>
        <time>2025-03-15T13:28:45.643Z</time>
      </trkpt>
      <trkpt lat="43.33375" lon="6.51477">
        <ele>152.98</ele>
        <time>2025-03-15T13:28:55.119Z</time>
      </trkpt>
      <trkpt lat="43.33377" lon="6.51453">
        <ele>154.36</ele>
        <time>2025-03-15T13:29:04.615Z</time>
      </trkpt>
      <trkpt lat="43.3337" lon="6.51419">
        <ele>155.88</ele>
        <time>2025-03-15T13:29:17.139Z</time>
      </trkpt>
      <trkpt lat="43.33364" lon="6.51386">
        <ele>157.3</ele>
        <time>2025-03-15T13:29:29.452Z</time>
      </trkpt>
      <trkpt lat="43.33364" lon="6.51346">
        <ele>158.62</ele>
        <time>2025-03-15T13:29:43.493Z</time>
      </trkpt>
      <trkpt lat="43.33368" lon="6.51307">
        <ele>160.06</ele>
        <time>2025-03-15T13:29:57.221Z</time>
      </trkpt>
      <trkpt lat="43.33368" lon="6.51268">
        <ele>161.49</ele>
        <time>2025-03-15T13:30:10.833Z</time>
      </trkpt>
      <trkpt lat="43.33368" lon="6.5123">
        <ele>162.92</ele>
        <time>2025-03-15T13:30:24.385Z</time>
      </trkpt>
      <trkpt lat="43.33362" lon="6.51213">
        <ele>164.4</ele>
        <time>2025-03-15T13:30:32.555Z</time>
      </trkpt>
      <trkpt lat="43.33347" lon="6.5121">
        <ele>165.95</ele>
        <time>2025-03-15T13:30:41.255Z</time>
      </trkpt>
      <trkpt lat="43.33345" lon="6.51197">
        <ele>167.45</ele>
        <time>2025-03-15T13:30:47.971Z</time>
      </trkpt>
      <trkpt lat="43.33358" lon="6.51187">
        <ele>168.84</ele>
        <time>2025-03-15T13:30:56.339Z</time>
      </trkpt>
      <trkpt lat="43.33366" lon="6.51153">
        <ele>170.46</ele>
        <time>2025-03-15T13:31:09.289Z</time>
      </trkpt>
      <trkpt lat="43.33373" lon="6.51119">
        <ele>172.01</ele>
        <time>2025-03-15T13:31:22.122Z</time>
      </trkpt>
      <trkpt lat="43.33381" lon="6.51086">
        <ele>173.49</ele>
        <time>2025-03-15T13:31:34.773Z</time>
      </trkpt>
      <trkpt lat="43.33394" lon="6.51052">
        <ele>174.98</ele>
        <time>2025-03-15T13:31:48.451Z</time>
      </trkpt>
      <trkpt lat="43.33396" lon="6.51022">
        <ele>176.58</ele>
        <time>2025-03-15T13:31:59.870Z</time>
      </trkpt>
      <trkpt lat="43.33392" lon="6.51002">
        <ele>178.17</ele>
        <time>2025-03-15T13:32:08.500Z</time>
      </trkpt>
      <trkpt lat="43.33381" lon="6.50983">
        <ele>179.91</ele>
        <time>2025-03-15T13:32:18.535Z</time>
      </trkpt>
      <trkpt lat="43.3337" lon="6.50947">
        <ele>181.79</ele>
        <time>2025-03-15T13:32:32.804Z</time>
      </trkpt>
      <trkpt lat="43.3336" lon="6.50912">
        <ele>183.59</ele>
        <time>2025-03-15T13:32:46.888Z</time>
      </trkpt>
      <trkpt lat="43.33364" lon="6.50904">
        <ele>185.12</ele>
        <time>2025-03-15T13:32:53.200Z</time>
      </trkpt>
      <trkpt lat="43.33379" lon="6.50913">
        <ele>186.47</ele>
        <time>2025-03-15T13:33:02.073Z</time>
      </trkpt>
      <trkpt lat="43.33394" lon="6.50923">
        <ele>187.82</ele>
        <time>2025-03-15T13:33:10.955Z</time>
      </trkpt>
      <trkpt lat="43.33405" lon="6.50925">
        <ele>189.27</ele>
        <time>2025-03-15T13:33:17.933Z</time>
      </trkpt>
      <trkpt lat="43.33411" lon="6.50921">
        <ele>190.81</ele>
        <time>2025-03-15T13:33:24.215Z</time>
      </trkpt>
      <trkpt lat="43.33413" lon="6.5091">
        <ele>192.43</ele>
        <time>2025-03-15T13:33:30.910Z</time>
      </trkpt>
      <trkpt lat="43.33415" lon="6.50888">
        <ele>194.12</ele>
        <time>2025-03-15T13:33:40.134Z</time>
      </trkpt>
      <trkpt lat="43.33416" lon="6.50869">
        <ele>195.81</ele>
        <time>2025-03-15T13:33:48.777Z</time>
      </trkpt>
      <trkpt lat="43.33417" lon="6.50867">
        <ele>197.41</ele>
        <time>2025-03-15T13:33:52.099Z</time>
      </trkpt>
      <trkpt lat="43.33419" lon="6.50832">
        <ele>199.19</ele>
        <time>2025-03-15T13:34:05.290Z</time>
      </trkpt>
      <trkpt lat="43.33422" lon="6.50797">
        <ele>200.9</ele>
        <time>2025-03-15T13:34:18.361Z</time>
      </trkpt>
      <trkpt lat="43.33424" lon="6.50762">
        <ele>202.69</ele>
        <time>2025-03-15T13:34:31.495Z</time>
      </trkpt>
      <trkpt lat="43.33422" lon="6.50747">
        <ele>204.46</ele>
        <time>2025-03-15T13:34:39.361Z</time>
      </trkpt>
      <trkpt lat="43.33413" lon="6.50725">
        <ele>206.32</ele>
        <time>2025-03-15T13:34:49.687Z</time>
      </trkpt>
      <trkpt lat="43.33413" lon="6.50719">
        <ele>208.01</ele>
        <time>2025-03-15T13:34:57.173Z</time>
      </trkpt>
      <trkpt lat="43.3342" lon="6.50715">
        <ele>209.64</ele>
        <time>2025-03-15T13:35:03.778Z</time>
      </trkpt>
      <trkpt lat="43.33439" lon="6.50707">
        <ele>211.22</ele>
        <time>2025-03-15T13:35:14.416Z</time>
      </trkpt>
      <trkpt lat="43.33458" lon="6.507">
        <ele>212.81</ele>
        <time>2025-03-15T13:35:25.090Z</time>
      </trkpt>
      <trkpt lat="43.33463" lon="6.50693">
        <ele>214.48</ele>
        <time>2025-03-15T13:35:31.856Z</time>
      </trkpt>
      <trkpt lat="43.33475" lon="6.50662">
        <ele>216.33</ele>
        <time>2025-03-15T13:35:45.131Z</time>
      </trkpt>
      <trkpt lat="43.33486" lon="6.50631">
        <ele>218.16</ele>
        <time>2025-03-15T13:35:58.335Z</time>
      </trkpt>
      <trkpt lat="43.33489" lon="6.50599">
        <ele>220.1</ele>
        <time>2025-03-15T13:36:10.969Z</time>
      </trkpt>
      <trkpt lat="43.33493" lon="6.5059">
        <ele>221.75</ele>
        <time>2025-03-15T13:36:17.688Z</time>
      </trkpt>
      <trkpt lat="43.33501" lon="6.50588">
        <ele>223.39</ele>
        <time>2025-03-15T13:36:24.571Z</time>
      </trkpt>
      <trkpt lat="43.33513" lon="6.50604">
        <ele>224.93</ele>
        <time>2025-03-15T13:36:33.822Z</time>
      </trkpt>
      <trkpt lat="43.33525" lon="6.5062">
        <ele>226.51</ele>
        <time>2025-03-15T13:36:43.146Z</time>
      </trkpt>
      <trkpt lat="43.33549" lon="6.50644">
        <ele>228.18</ele>
        <time>2025-03-15T13:36:57.553Z</time>
      </trkpt>
      <trkpt lat="43.33574" lon="6.50649">
        <ele>229.91</ele>
        <time>2025-03-15T13:37:10.780Z</time>
      </trkpt>
      <trkpt lat="43.336" lon="6.50654">
        <ele>231.67</ele>
        <time>2025-03-15T13:37:24.061Z</time>
      </trkpt>
      <trkpt lat="43.33626" lon="6.50659">
        <ele>233.58</ele>
        <time>2025-03-15T13:37:37.636Z</time>
      </trkpt>
      <trkpt lat="43.33652" lon="6.50667">
        <ele>235.33</ele>
        <time>2025-03-15T13:37:51.104Z</time>
      </trkpt>
      <trkpt lat="43.33676" lon="6.5068">
        <ele>237</ele>
        <time>2025-03-15T13:38:04.331Z</time>
      </trkpt>
      <trkpt lat="43.33701" lon="6.50692">
        <ele>238.74</ele>
        <time>2025-03-15T13:38:17.681Z</time>
      </trkpt>
      <trkpt lat="43.33726" lon="6.50704">
        <ele>240.61</ele>
        <time>2025-03-15T13:38:31.254Z</time>
      </trkpt>
      <trkpt lat="43.3375" lon="6.50717">
        <ele>242.45</ele>
        <time>2025-03-15T13:38:44.808Z</time>
      </trkpt>
      <trkpt lat="43.33759" lon="6.5071">
        <ele>244.11</ele>
        <time>2025-03-15T13:38:52.002Z</time>
      </trkpt>
      <trkpt lat="43.33757" lon="6.50706">
        <ele>245.7</ele>
        <time>2025-03-15T13:38:59.565Z</time>
      </trkpt>
      <trkpt lat="43.33743" lon="6.50693">
        <ele>247.26</ele>
        <time>2025-03-15T13:39:08.920Z</time>
      </trkpt>
      <trkpt lat="43.33729" lon="6.5068">
        <ele>248.82</ele>
        <time>2025-03-15T13:39:18.274Z</time>
      </trkpt>
      <trkpt lat="43.33711" lon="6.50657">
        <ele>250.45</ele>
        <time>2025-03-15T13:39:30.729Z</time>
      </trkpt>
      <trkpt lat="43.33693" lon="6.50635">
        <ele>252.06</ele>
        <time>2025-03-15T13:39:43.145Z</time>
      </trkpt>
      <trkpt lat="43.33675" lon="6.50612">
        <ele>253.59</ele>
        <time>2025-03-15T13:39:55.411Z</time>
      </trkpt>
      <trkpt lat="43.33652" lon="6.5059">
        <ele>255.14</ele>
        <time>2025-03-15T13:40:09.266Z</time>
      </trkpt>
      <trkpt lat="43.33624" lon="6.50571">
        <ele>256.62</ele>
        <time>2025-03-15T13:40:24.192Z</time>
      </trkpt>
      <trkpt lat="43.33611" lon="6.50548">
        <ele>258.24</ele>
        <time>2025-03-15T13:40:35.220Z</time>
      </trkpt>
      <trkpt lat="43.33598" lon="6.50526">
        <ele>259.73</ele>
        <time>2025-03-15T13:40:45.999Z</time>
      </trkpt>
      <trkpt lat="43.33592" lon="6.50507">
        <ele>261.23</ele>
        <time>2025-03-15T13:40:54.730Z</time>
      </trkpt>
      <trkpt lat="43.33588" lon="6.50483">
        <ele>262.82</ele>
        <time>2025-03-15T13:41:04.411Z</time>
      </trkpt>
      <trkpt lat="43.33585" lon="6.50459">
        <ele>264.35</ele>
        <time>2025-03-15T13:41:13.946Z</time>
      </trkpt>
      <trkpt lat="43.33576" lon="6.50451">
        <ele>265.63</ele>
        <time>2025-03-15T13:41:20.461Z</time>
      </trkpt>
      <trkpt lat="43.33561" lon="6.50419">
        <ele>267.04</ele>
        <time>2025-03-15T13:41:33.899Z</time>
      </trkpt>
      <trkpt lat="43.33549" lon="6.50386">
        <ele>268.48</ele>
        <time>2025-03-15T13:41:46.963Z</time>
      </trkpt>
      <trkpt lat="43.33536" lon="6.50354">
        <ele>269.92</ele>
        <time>2025-03-15T13:41:59.987Z</time>
      </trkpt>
      <trkpt lat="43.33523" lon="6.50336">
        <ele>271.28</ele>
        <time>2025-03-15T13:42:09.633Z</time>
      </trkpt>
      <trkpt lat="43.3351" lon="6.50318">
        <ele>272.79</ele>
        <time>2025-03-15T13:42:19.531Z</time>
      </trkpt>
      <trkpt lat="43.33497" lon="6.50318">
        <ele>274.11</ele>
        <time>2025-03-15T13:42:26.945Z</time>
      </trkpt>
      <trkpt lat="43.33484" lon="6.50344">
        <ele>275.3</ele>
        <time>2025-03-15T13:42:38.172Z</time>
      </trkpt>
      <trkpt lat="43.33471" lon="6.50371">
        <ele>276.49</ele>
        <time>2025-03-15T13:42:49.398Z</time>
      </trkpt>
      <trkpt lat="43.33458" lon="6.50397">
        <ele>277.78</ele>
        <time>2025-03-15T13:43:00.746Z</time>
      </trkpt>
      <trkpt lat="43.33447" lon="6.50426">
        <ele>279.13</ele>
        <time>2025-03-15T13:43:12.630Z</time>
      </trkpt>
      <trkpt lat="43.33435" lon="6.50455">
        <ele>280.56</ele>
        <time>2025-03-15T13:43:24.614Z</time>
      </trkpt>
      <trkpt lat="43.33421" lon="6.50477">
        <ele>282.13</ele>
        <time>2025-03-15T13:43:35.588Z</time>
      </trkpt>
      <trkpt lat="43.33407" lon="6.50498">
        <ele>283.51</ele>
        <time>2025-03-15T13:43:46.215Z</time>
      </trkpt>
      <trkpt lat="43.33398" lon="6.505">
        <ele>284.93</ele>
        <time>2025-03-15T13:43:52.467Z</time>
      </trkpt>
      <trkpt lat="43.33396" lon="6.50496">
        <ele>286.4</ele>
        <time>2025-03-15T13:43:59.206Z</time>
      </trkpt>
      <trkpt lat="43.33405" lon="6.50485">
        <ele>287.84</ele>
        <time>2025-03-15T13:44:06.418Z</time>
      </trkpt>
      <trkpt lat="43.33418" lon="6.50455">
        <ele>289.24</ele>
        <time>2025-03-15T13:44:18.854Z</time>
      </trkpt>
      <trkpt lat="43.33426" lon="6.50421">
        <ele>290.71</ele>
        <time>2025-03-15T13:44:31.777Z</time>
      </trkpt>
      <trkpt lat="43.33434" lon="6.50386">
        <ele>292.28</ele>
        <time>2025-03-15T13:44:44.863Z</time>
      </trkpt>
      <trkpt lat="43.33442" lon="6.50352">
        <ele>293.92</ele>
        <time>2025-03-15T13:44:58.063Z</time>
      </trkpt>
      <trkpt lat="43.3345" lon="6.50318">
        <ele>295.7</ele>
        <time>2025-03-15T13:45:11.414Z</time>
      </trkpt>
      <trkpt lat="43.33456" lon="6.50277">
        <ele>297.44</ele>
        <time>2025-03-15T13:45:26.426Z</time>
      </trkpt>
      <trkpt lat="43.33463" lon="6.50236">
        <ele>299.25</ele>
        <time>2025-03-15T13:45:41.498Z</time>
      </trkpt>
      <trkpt lat="43.33454" lon="6.50247">
        <ele>300.86</ele>
        <time>2025-03-15T13:45:49.104Z</time>
      </trkpt>
      <trkpt lat="43.33447" lon="6.50271">
        <ele>302.38</ele>
        <time>2025-03-15T13:45:59.140Z</time>
      </trkpt>
      <trkpt lat="43.33439" lon="6.50294">
        <ele>303.94</ele>
        <time>2025-03-15T13:46:09.222Z</time>
      </trkpt>
      <trkpt lat="43.33429" lon="6.50316">
        <ele>305.53</ele>
        <time>2025-03-15T13:46:19.234Z</time>
      </trkpt>
      <trkpt lat="43.3342" lon="6.50337">
        <ele>307.14</ele>
        <time>2025-03-15T13:46:29.265Z</time>
      </trkpt>
      <trkpt lat="43.33408" lon="6.50363">
        <ele>308.82</ele>
        <time>2025-03-15T13:46:40.983Z</time>
      </trkpt>
      <trkpt lat="43.33395" lon="6.50389">
        <ele>310.47</ele>
        <time>2025-03-15T13:46:52.649Z</time>
      </trkpt>
      <trkpt lat="43.33383" lon="6.50414">
        <ele>312.16</ele>
        <time>2025-03-15T13:47:04.350Z</time>
      </trkpt>
      <trkpt lat="43.3337" lon="6.50429">
        <ele>313.85</ele>
        <time>2025-03-15T13:47:13.991Z</time>
      </trkpt>
      <trkpt lat="43.33355" lon="6.50438">
        <ele>315.59</ele>
        <time>2025-03-15T13:47:23.502Z</time>
      </trkpt>
      <trkpt lat="43.3334" lon="6.50446">
        <ele>317.34</ele>
        <time>2025-03-15T13:47:33.040Z</time>
      </trkpt>
      <trkpt lat="43.3331" lon="6.50451">
        <ele>319.21</ele>
        <time>2025-03-15T13:47:48.183Z</time>
      </trkpt>
      <trkpt lat="43.33293" lon="6.50446">
        <ele>320.94</ele>
        <time>2025-03-15T13:47:58.112Z</time>
      </trkpt>
      <trkpt lat="43.3328" lon="6.50434">
        <ele>322.75</ele>
        <time>2025-03-15T13:48:07.652Z</time>
      </trkpt>
      <trkpt lat="43.33268" lon="6.50421">
        <ele>324.57</ele>
        <time>2025-03-15T13:48:17.205Z</time>
      </trkpt>
      <trkpt lat="43.33259" lon="6.50408">
        <ele>326.41</ele>
        <time>2025-03-15T13:48:25.721Z</time>
      </trkpt>
      <trkpt lat="43.33265" lon="6.50408">
        <ele>328.11</ele>
        <time>2025-03-15T13:48:32.611Z</time>
      </trkpt>
      <trkpt lat="43.33289" lon="6.50427">
        <ele>329.59</ele>
        <time>2025-03-15T13:48:46.021Z</time>
      </trkpt>
      <trkpt lat="43.33308" lon="6.50429">
        <ele>331.23</ele>
        <time>2025-03-15T13:48:56.509Z</time>
      </trkpt>
      <trkpt lat="43.3333" lon="6.50421">
        <ele>332.87</ele>
        <time>2025-03-15T13:49:08.152Z</time>
      </trkpt>
      <trkpt lat="43.3334" lon="6.5041">
        <ele>334.44</ele>
        <time>2025-03-15T13:49:16.231Z</time>
      </trkpt>
      <trkpt lat="43.33355" lon="6.5038">
        <ele>336.06</ele>
        <time>2025-03-15T13:49:29.488Z</time>
      </trkpt>
      <trkpt lat="43.33364" lon="6.50351">
        <ele>337.68</ele>
        <time>2025-03-15T13:49:41.272Z</time>
      </trkpt>
      <trkpt lat="43.33373" lon="6.50322">
        <ele>339.37</ele>
        <time>2025-03-15T13:49:53.144Z</time>
      </trkpt>
      <trkpt lat="43.33377" lon="6.50296">
        <ele>341.11</ele>
        <time>2025-03-15T13:50:03.775Z</time>
      </trkpt>
      <trkpt lat="43.33381" lon="6.50271">
        <ele>342.64</ele>
        <time>2025-03-15T13:50:13.983Z</time>
      </trkpt>
      <trkpt lat="43.33383" lon="6.50249">
        <ele>344.08</ele>
        <time>2025-03-15T13:50:22.728Z</time>
      </trkpt>
      <trkpt lat="43.33386" lon="6.50228">
        <ele>345.38</ele>
        <time>2025-03-15T13:50:31.178Z</time>
      </trkpt>
      <trkpt lat="43.33388" lon="6.50193">
        <ele>346.59</ele>
        <time>2025-03-15T13:50:43.216Z</time>
      </trkpt>
      <trkpt lat="43.3339" lon="6.50159">
        <ele>347.85</ele>
        <time>2025-03-15T13:50:55.283Z</time>
      </trkpt>
      <trkpt lat="43.33398" lon="6.50135">
        <ele>348.78</ele>
        <time>2025-03-15T13:51:04.488Z</time>
      </trkpt>
      <trkpt lat="43.33401" lon="6.50116">
        <ele>349.77</ele>
        <time>2025-03-15T13:51:11.800Z</time>
      </trkpt>
      <trkpt lat="43.33405" lon="6.50077">
        <ele>350.69</ele>
        <time>2025-03-15T13:51:24.738Z</time>
      </trkpt>
      <trkpt lat="43.33406" lon="6.50053">
        <ele>351.56</ele>
        <time>2025-03-15T13:51:33.379Z</time>
      </trkpt>
      <trkpt lat="43.33407" lon="6.50028">
        <ele>352.29</ele>
        <time>2025-03-15T13:51:41.765Z</time>
      </trkpt>
      <trkpt lat="43.33409" lon="6.50017">
        <ele>352.84</ele>
        <time>2025-03-15T13:51:45.906Z</time>
      </trkpt>
      <trkpt lat="43.33407" lon="6.49998">
        <ele>353.35</ele>
        <time>2025-03-15T13:51:52.469Z</time>
      </trkpt>
      <trkpt lat="43.33407" lon="6.49996">
        <ele>353.71</ele>
        <time>2025-03-15T13:51:53.925Z</time>
      </trkpt>
      <trkpt lat="43.33407" lon="6.49996">
        <ele>353.99</ele>
        <time>2025-03-15T13:51:53.993Z</time>
      </trkpt>
      <trkpt lat="43.33392" lon="6.4998">
        <ele>354.17</ele>
        <time>2025-03-15T13:52:02.061Z</time>
      </trkpt>
      <trkpt lat="43.33377" lon="6.49964">
        <ele>354.24</ele>
        <time>2025-03-15T13:52:09.977Z</time>
      </trkpt>
      <trkpt lat="43.33366" lon="6.49945">
        <ele>354.21</ele>
        <time>2025-03-15T13:52:16.966Z</time>
      </trkpt>
      <trkpt lat="43.33355" lon="6.49927">
        <ele>354.12</ele>
        <time>2025-03-15T13:52:23.860Z</time>
      </trkpt>
      <trkpt lat="43.33347" lon="6.49909">
        <ele>354.01</ele>
        <time>2025-03-15T13:52:30.230Z</time>
      </trkpt>
      <trkpt lat="43.33338" lon="6.49891">
        <ele>353.88</ele>
        <time>2025-03-15T13:52:36.557Z</time>
      </trkpt>
      <trkpt lat="43.3333" lon="6.49882">
        <ele>353.77</ele>
        <time>2025-03-15T13:52:40.785Z</time>
      </trkpt>
      <trkpt lat="43.33319" lon="6.49884">
        <ele>353.68</ele>
        <time>2025-03-15T13:52:45.132Z</time>
      </trkpt>
      <trkpt lat="43.33303" lon="6.49895">
        <ele>353.65</ele>
        <time>2025-03-15T13:52:52.448Z</time>
      </trkpt>
      <trkpt lat="43.33287" lon="6.49906">
        <ele>353.57</ele>
        <time>2025-03-15T13:52:59.704Z</time>
      </trkpt>
      <trkpt lat="43.33278" lon="6.49904">
        <ele>353.41</ele>
        <time>2025-03-15T13:53:03.097Z</time>
      </trkpt>
      <trkpt lat="43.3328" lon="6.49874">
        <ele>353.15</ele>
        <time>2025-03-15T13:53:11.805Z</time>
      </trkpt>
      <trkpt lat="43.33278" lon="6.49859">
        <ele>352.97</ele>
        <time>2025-03-15T13:53:16.164Z</time>
      </trkpt>
      <trkpt lat="43.33272" lon="6.49854">
        <ele>352.9</ele>
        <time>2025-03-15T13:53:19.019Z</time>
      </trkpt>
      <trkpt lat="43.33261" lon="6.49854">
        <ele>352.94</ele>
        <time>2025-03-15T13:53:23.482Z</time>
      </trkpt>
      <trkpt lat="43.3324" lon="6.49882">
        <ele>353.24</ele>
        <time>2025-03-15T13:53:36.015Z</time>
      </trkpt>
      <trkpt lat="43.33225" lon="6.49878">
        <ele>353.44</ele>
        <time>2025-03-15T13:53:42.584Z</time>
      </trkpt>
      <trkpt lat="43.33218" lon="6.49838">
        <ele>353.49</ele>
        <time>2025-03-15T13:53:54.737Z</time>
      </trkpt>
      <trkpt lat="43.33212" lon="6.49799">
        <ele>353.56</ele>
        <time>2025-03-15T13:54:06.915Z</time>
      </trkpt>
      <trkpt lat="43.33205" lon="6.4976">
        <ele>353.54</ele>
        <time>2025-03-15T13:54:18.896Z</time>
      </trkpt>
      <trkpt lat="43.33192" lon="6.49741">
        <ele>353.77</ele>
        <time>2025-03-15T13:54:27.031Z</time>
      </trkpt>
      <trkpt lat="43.33167" lon="6.49717">
        <ele>354.12</ele>
        <time>2025-03-15T13:54:40.212Z</time>
      </trkpt>
      <trkpt lat="43.33145" lon="6.49691">
        <ele>354.46</ele>
        <time>2025-03-15T13:54:52.367Z</time>
      </trkpt>
      <trkpt lat="43.33122" lon="6.49678">
        <ele>354.93</ele>
        <time>2025-03-15T13:55:03.425Z</time>
      </trkpt>
      <trkpt lat="43.33098" lon="6.49665">
        <ele>355.36</ele>
        <time>2025-03-15T13:55:14.436Z</time>
      </trkpt>
      <trkpt lat="43.33072" lon="6.49641">
        <ele>355.71</ele>
        <time>2025-03-15T13:55:27.803Z</time>
      </trkpt>
      <trkpt lat="43.33046" lon="6.49616">
        <ele>356</ele>
        <time>2025-03-15T13:55:41.081Z</time>
      </trkpt>
      <trkpt lat="43.33029" lon="6.4961">
        <ele>356.32</ele>
        <time>2025-03-15T13:55:48.819Z</time>
      </trkpt>
      <trkpt lat="43.33012" lon="6.49612">
        <ele>356.7</ele>
        <time>2025-03-15T13:55:56.413Z</time>
      </trkpt>
      <trkpt lat="43.32993" lon="6.49622">
        <ele>357.15</ele>
        <time>2025-03-15T13:56:05.576Z</time>
      </trkpt>
      <trkpt lat="43.3298" lon="6.49622">
        <ele>357.51</ele>
        <time>2025-03-15T13:56:11.355Z</time>
      </trkpt>
      <trkpt lat="43.32964" lon="6.49609">
        <ele>357.73</ele>
        <time>2025-03-15T13:56:19.464Z</time>
      </trkpt>
      <trkpt lat="43.32948" lon="6.49595">
        <ele>357.92</ele>
        <time>2025-03-15T13:56:27.533Z</time>
      </trkpt>
      <trkpt lat="43.32923" lon="6.49587">
        <ele>358.13</ele>
        <time>2025-03-15T13:56:38.070Z</time>
      </trkpt>
      <trkpt lat="43.32899" lon="6.49579">
        <ele>358.3</ele>
        <time>2025-03-15T13:56:48.554Z</time>
      </trkpt>
      <trkpt lat="43.32875" lon="6.49571">
        <ele>358.46</ele>
        <time>2025-03-15T13:56:59.050Z</time>
      </trkpt>
      <trkpt lat="43.32868" lon="6.4956">
        <ele>358.48</ele>
        <time>2025-03-15T13:57:03.235Z</time>
      </trkpt>
      <trkpt lat="43.32866" lon="6.49522">
        <ele>358.24</ele>
        <time>2025-03-15T13:57:14.525Z</time>
      </trkpt>
      <trkpt lat="43.32858" lon="6.49502">
        <ele>358.18</ele>
        <time>2025-03-15T13:57:21.220Z</time>
      </trkpt>
      <trkpt lat="43.32847" lon="6.49492">
        <ele>358.2</ele>
        <time>2025-03-15T13:57:26.701Z</time>
      </trkpt>
      <trkpt lat="43.32826" lon="6.49476">
        <ele>358.25</ele>
        <time>2025-03-15T13:57:36.505Z</time>
      </trkpt>
      <trkpt lat="43.32805" lon="6.4946">
        <ele>358.25</ele>
        <time>2025-03-15T13:57:46.245Z</time>
      </trkpt>
      <trkpt lat="43.32785" lon="6.49444">
        <ele>358.27</ele>
        <time>2025-03-15T13:57:56.018Z</time>
      </trkpt>
      <trkpt lat="43.32765" lon="6.49426">
        <ele>358.29</ele>
        <time>2025-03-15T13:58:05.683Z</time>
      </trkpt>
      <trkpt lat="43.32746" lon="6.49408">
        <ele>358.32</ele>
        <time>2025-03-15T13:58:15.352Z</time>
      </trkpt>
      <trkpt lat="43.32732" lon="6.49384">
        <ele>358.39</ele>
        <time>2025-03-15T13:58:24.458Z</time>
      </trkpt>
      <trkpt lat="43.32719" lon="6.49361">
        <ele>358.49</ele>
        <time>2025-03-15T13:58:33.600Z</time>
      </trkpt>
      <trkpt lat="43.32705" lon="6.49337">
        <ele>358.59</ele>
        <time>2025-03-15T13:58:42.712Z</time>
      </trkpt>
      <trkpt lat="43.3269" lon="6.4932">
        <ele>358.74</ele>
        <time>2025-03-15T13:58:50.938Z</time>
      </trkpt>
      <trkpt lat="43.32684" lon="6.49294">
        <ele>358.99</ele>
        <time>2025-03-15T13:58:59.409Z</time>
      </trkpt>
      <trkpt lat="43.32671" lon="6.4926">
        <ele>359.32</ele>
        <time>2025-03-15T13:59:11.392Z</time>
      </trkpt>
      <trkpt lat="43.32656" lon="6.49247">
        <ele>359.64</ele>
        <time>2025-03-15T13:59:19.093Z</time>
      </trkpt>
      <trkpt lat="43.32633" lon="6.49238">
        <ele>360.07</ele>
        <time>2025-03-15T13:59:29.458Z</time>
      </trkpt>
      <trkpt lat="43.32632" lon="6.49237">
        <ele>360.5</ele>
        <time>2025-03-15T13:59:31.203Z</time>
      </trkpt>
      <trkpt lat="43.32632" lon="6.49237">
        <ele>360.98</ele>
        <time>2025-03-15T13:59:31.259Z</time>
      </trkpt>
      <trkpt lat="43.32627" lon="6.49213">
        <ele>361.75</ele>
        <time>2025-03-15T13:59:39.755Z</time>
      </trkpt>
      <trkpt lat="43.32626" lon="6.49211">
        <ele>362.35</ele>
        <time>2025-03-15T13:59:42.513Z</time>
      </trkpt>
      <trkpt lat="43.32626" lon="6.49211">
        <ele>362.96</ele>
        <time>2025-03-15T13:59:42.557Z</time>
      </trkpt>
      <trkpt lat="43.32612" lon="6.49196">
        <ele>363.83</ele>
        <time>2025-03-15T13:59:51.146Z</time>
      </trkpt>
      <trkpt lat="43.32611" lon="6.49195">
        <ele>364.54</ele>
        <time>2025-03-15T13:59:54.587Z</time>
      </trkpt>
      <trkpt lat="43.32611" lon="6.49195">
        <ele>365.25</ele>
        <time>2025-03-15T13:59:54.609Z</time>
      </trkpt>
      <trkpt lat="43.3258" lon="6.49184">
        <ele>366.19</ele>
        <time>2025-03-15T14:00:08.835Z</time>
      </trkpt>
      <trkpt lat="43.32575" lon="6.49182">
        <ele>367</ele>
        <time>2025-03-15T14:00:12.495Z</time>
      </trkpt>
      <trkpt lat="43.32574" lon="6.49181">
        <ele>367.8</ele>
        <time>2025-03-15T14:00:15.964Z</time>
      </trkpt>
      <trkpt lat="43.32574" lon="6.49181">
        <ele>368.63</ele>
        <time>2025-03-15T14:00:16.020Z</time>
      </trkpt>
      <trkpt lat="43.3255" lon="6.49173">
        <ele>369.57</ele>
        <time>2025-03-15T14:00:27.485Z</time>
      </trkpt>
      <trkpt lat="43.32548" lon="6.49173">
        <ele>370.45</ele>
        <time>2025-03-15T14:00:31.010Z</time>
      </trkpt>
      <trkpt lat="43.32548" lon="6.49173">
        <ele>371.34</ele>
        <time>2025-03-15T14:00:31.119Z</time>
      </trkpt>
      <trkpt lat="43.32533" lon="6.49168">
        <ele>372.31</ele>
        <time>2025-03-15T14:00:38.632Z</time>
      </trkpt>
      <trkpt lat="43.32532" lon="6.49168">
        <ele>373.26</ele>
        <time>2025-03-15T14:00:42.134Z</time>
      </trkpt>
      <trkpt lat="43.32532" lon="6.49168">
        <ele>374.22</ele>
        <time>2025-03-15T14:00:42.225Z</time>
      </trkpt>
      <trkpt lat="43.32515" lon="6.49148">
        <ele>375.26</ele>
        <time>2025-03-15T14:00:52.698Z</time>
      </trkpt>
      <trkpt lat="43.32514" lon="6.49147">
        <ele>376.27</ele>
        <time>2025-03-15T14:00:56.169Z</time>
      </trkpt>
      <trkpt lat="43.32514" lon="6.49147">
        <ele>377.3</ele>
        <time>2025-03-15T14:00:56.223Z</time>
      </trkpt>
      <trkpt lat="43.32515" lon="6.49135">
        <ele>378.41</ele>
        <time>2025-03-15T14:01:01.553Z</time>
      </trkpt>
      <trkpt lat="43.32515" lon="6.49133">
        <ele>379.5</ele>
        <time>2025-03-15T14:01:05.008Z</time>
      </trkpt>
      <trkpt lat="43.32515" lon="6.49133">
        <ele>380.6</ele>
        <time>2025-03-15T14:01:05.040Z</time>
      </trkpt>
      <trkpt lat="43.32534" lon="6.49124">
        <ele>381.85</ele>
        <time>2025-03-15T14:01:14.847Z</time>
      </trkpt>
      <trkpt lat="43.32535" lon="6.49124">
        <ele>383.02</ele>
        <time>2025-03-15T14:01:18.394Z</time>
      </trkpt>
      <trkpt lat="43.32535" lon="6.49124">
        <ele>384.21</ele>
        <time>2025-03-15T14:01:18.527Z</time>
      </trkpt>
      <trkpt lat="43.3255" lon="6.491">
        <ele>385.63</ele>
        <time>2025-03-15T14:01:29.934Z</time>
      </trkpt>
      <trkpt lat="43.32551" lon="6.49098">
        <ele>386.88</ele>
        <time>2025-03-15T14:01:33.398Z</time>
      </trkpt>
      <trkpt lat="43.32551" lon="6.49098">
        <ele>388.13</ele>
        <time>2025-03-15T14:01:33.465Z</time>
      </trkpt>
      <trkpt lat="43.32561" lon="6.49081">
        <ele>389.55</ele>
        <time>2025-03-15T14:01:42.188Z</time>
      </trkpt>
      <trkpt lat="43.32562" lon="6.4908">
        <ele>390.86</ele>
        <time>2025-03-15T14:01:45.683Z</time>
      </trkpt>
      <trkpt lat="43.32562" lon="6.4908">
        <ele>392.17</ele>
        <time>2025-03-15T14:01:45.759Z</time>
      </trkpt>
      <trkpt lat="43.32549" lon="6.4904">
        <ele>393.63</ele>
        <time>2025-03-15T14:02:00.728Z</time>
      </trkpt>
      <trkpt lat="43.32546" lon="6.49031">
        <ele>394.98</ele>
        <time>2025-03-15T14:02:06.534Z</time>
      </trkpt>
      <trkpt lat="43.32545" lon="6.49029">
        <ele>396.32</ele>
        <time>2025-03-15T14:02:10.041Z</time>
      </trkpt>
      <trkpt lat="43.32545" lon="6.49029">
        <ele>397.66</ele>
        <time>2025-03-15T14:02:10.128Z</time>
      </trkpt>
      <trkpt lat="43.32537" lon="6.48995">
        <ele>398.95</ele>
        <time>2025-03-15T14:02:22.667Z</time>
      </trkpt>
      <trkpt lat="43.32536" lon="6.48993">
        <ele>400.29</ele>
        <time>2025-03-15T14:02:26.101Z</time>
      </trkpt>
      <trkpt lat="43.32536" lon="6.48993">
        <ele>401.63</ele>
        <time>2025-03-15T14:02:26.114Z</time>
      </trkpt>
      <trkpt lat="43.32558" lon="6.48962">
        <ele>403.21</ele>
        <time>2025-03-15T14:02:41.283Z</time>
      </trkpt>
      <trkpt lat="43.3256" lon="6.4896">
        <ele>404.54</ele>
        <time>2025-03-15T14:02:45.948Z</time>
      </trkpt>
      <trkpt lat="43.32561" lon="6.48958">
        <ele>405.84</ele>
        <time>2025-03-15T14:02:49.507Z</time>
      </trkpt>
      <trkpt lat="43.32561" lon="6.48958">
        <ele>407.1</ele>
        <time>2025-03-15T14:02:49.650Z</time>
      </trkpt>
      <trkpt lat="43.32571" lon="6.48931">
        <ele>408.53</ele>
        <time>2025-03-15T14:03:00.697Z</time>
      </trkpt>
      <trkpt lat="43.32572" lon="6.48929">
        <ele>409.73</ele>
        <time>2025-03-15T14:03:04.169Z</time>
      </trkpt>
      <trkpt lat="43.32572" lon="6.48929">
        <ele>410.86</ele>
        <time>2025-03-15T14:03:04.233Z</time>
      </trkpt>
      <trkpt lat="43.32568" lon="6.48892">
        <ele>412.01</ele>
        <time>2025-03-15T14:03:16.985Z</time>
      </trkpt>
      <trkpt lat="43.32568" lon="6.4889">
        <ele>413</ele>
        <time>2025-03-15T14:03:20.407Z</time>
      </trkpt>
      <trkpt lat="43.32568" lon="6.4889">
        <ele>413.92</ele>
        <time>2025-03-15T14:03:20.420Z</time>
      </trkpt>
      <trkpt lat="43.32574" lon="6.48848">
        <ele>414.86</ele>
        <time>2025-03-15T14:03:34.602Z</time>
      </trkpt>
      <trkpt lat="43.32576" lon="6.48831">
        <ele>415.57</ele>
        <time>2025-03-15T14:03:40.786Z</time>
      </trkpt>
      <trkpt lat="43.32576" lon="6.48829">
        <ele>416.18</ele>
        <time>2025-03-15T14:03:43.544Z</time>
      </trkpt>
      <trkpt lat="43.32576" lon="6.48829">
        <ele>416.68</ele>
        <time>2025-03-15T14:03:43.655Z</time>
      </trkpt>
      <trkpt lat="43.32598" lon="6.48802">
        <ele>417.17</ele>
        <time>2025-03-15T14:03:56.200Z</time>
      </trkpt>
      <trkpt lat="43.32599" lon="6.488">
        <ele>417.42</ele>
        <time>2025-03-15T14:03:57.330Z</time>
      </trkpt>
      <trkpt lat="43.32599" lon="6.488">
        <ele>417.52</ele>
        <time>2025-03-15T14:03:57.495Z</time>
      </trkpt>
      <trkpt lat="43.32612" lon="6.48775">
        <ele>417.56</ele>
        <time>2025-03-15T14:04:06.926Z</time>
      </trkpt>
      <trkpt lat="43.32613" lon="6.48773">
        <ele>417.36</ele>
        <time>2025-03-15T14:04:07.512Z</time>
      </trkpt>
      <trkpt lat="43.32613" lon="6.48773">
        <ele>416.99</ele>
        <time>2025-03-15T14:04:07.535Z</time>
      </trkpt>
      <trkpt lat="43.32624" lon="6.48779">
        <ele>416.46</ele>
        <time>2025-03-15T14:04:11.666Z</time>
      </trkpt>
      <trkpt lat="43.32645" lon="6.48788">
        <ele>415.79</ele>
        <time>2025-03-15T14:04:20.061Z</time>
      </trkpt>
      <trkpt lat="43.32674" lon="6.48786">
        <ele>414.8</ele>
        <time>2025-03-15T14:04:30.803Z</time>
      </trkpt>
      <trkpt lat="43.32703" lon="6.48785">
        <ele>413.5</ele>
        <time>2025-03-15T14:04:41.223Z</time>
      </trkpt>
      <trkpt lat="43.32732" lon="6.48783">
        <ele>412.08</ele>
        <time>2025-03-15T14:04:51.643Z</time>
      </trkpt>
      <trkpt lat="43.32761" lon="6.48781">
        <ele>410.5</ele>
        <time>2025-03-15T14:05:02.111Z</time>
      </trkpt>
      <trkpt lat="43.32783" lon="6.4879">
        <ele>408.75</ele>
        <time>2025-03-15T14:05:10.153Z</time>
      </trkpt>
      <trkpt lat="43.32795" lon="6.48803">
        <ele>406.86</ele>
        <time>2025-03-15T14:05:15.881Z</time>
      </trkpt>
      <trkpt lat="43.32808" lon="6.48825">
        <ele>404.74</ele>
        <time>2025-03-15T14:05:23.386Z</time>
      </trkpt>
      <trkpt lat="43.32821" lon="6.48848">
        <ele>402.49</ele>
        <time>2025-03-15T14:05:30.880Z</time>
      </trkpt>
      <trkpt lat="43.32833" lon="6.48864">
        <ele>400.14</ele>
        <time>2025-03-15T14:05:36.863Z</time>
      </trkpt>
      <trkpt lat="43.32845" lon="6.4888">
        <ele>397.74</ele>
        <time>2025-03-15T14:05:42.843Z</time>
      </trkpt>
      <trkpt lat="43.32868" lon="6.48886">
        <ele>395.02</ele>
        <time>2025-03-15T14:05:51.502Z</time>
      </trkpt>
      <trkpt lat="43.32883" lon="6.48889">
        <ele>392.21</ele>
        <time>2025-03-15T14:05:56.936Z</time>
      </trkpt>
      <trkpt lat="43.32908" lon="6.48877">
        <ele>389.09</ele>
        <time>2025-03-15T14:06:06.328Z</time>
      </trkpt>
      <trkpt lat="43.32933" lon="6.48865">
        <ele>385.88</ele>
        <time>2025-03-15T14:06:15.739Z</time>
      </trkpt>
      <trkpt lat="43.32963" lon="6.48869">
        <ele>382.63</ele>
        <time>2025-03-15T14:06:26.607Z</time>
      </trkpt>
      <trkpt lat="43.32985" lon="6.48879">
        <ele>379.15</ele>
        <time>2025-03-15T14:06:35.089Z</time>
      </trkpt>
      <trkpt lat="43.33008" lon="6.48889">
        <ele>375.51</ele>
        <time>2025-03-15T14:06:43.591Z</time>
      </trkpt>
      <trkpt lat="43.33032" lon="6.48893">
        <ele>371.68</ele>
        <time>2025-03-15T14:06:52.403Z</time>
      </trkpt>
      <trkpt lat="43.33056" lon="6.48897">
        <ele>367.79</ele>
        <time>2025-03-15T14:07:01.215Z</time>
      </trkpt>
      <trkpt lat="43.33081" lon="6.48902">
        <ele>363.83</ele>
        <time>2025-03-15T14:07:10.058Z</time>
      </trkpt>
      <trkpt lat="43.33098" lon="6.489">
        <ele>359.8</ele>
        <time>2025-03-15T14:07:16.232Z</time>
      </trkpt>
      <trkpt lat="43.33115" lon="6.48899">
        <ele>355.66</ele>
        <time>2025-03-15T14:07:22.425Z</time>
      </trkpt>
      <trkpt lat="43.33132" lon="6.4891">
        <ele>351.55</ele>
        <time>2025-03-15T14:07:29.203Z</time>
      </trkpt>
      <trkpt lat="43.33149" lon="6.48921">
        <ele>347.34</ele>
        <time>2025-03-15T14:07:35.995Z</time>
      </trkpt>
      <trkpt lat="43.33156" lon="6.48906">
        <ele>343.23</ele>
        <time>2025-03-15T14:07:40.558Z</time>
      </trkpt>
      <trkpt lat="43.3316" lon="6.48891">
        <ele>339.15</ele>
        <time>2025-03-15T14:07:44.782Z</time>
      </trkpt>
      <trkpt lat="43.33158" lon="6.48867">
        <ele>335</ele>
        <time>2025-03-15T14:07:51.008Z</time>
      </trkpt>
      <trkpt lat="43.33154" lon="6.4885">
        <ele>330.9</ele>
        <time>2025-03-15T14:07:55.759Z</time>
      </trkpt>
      <trkpt lat="43.33177" lon="6.4886">
        <ele>326.88</ele>
        <time>2025-03-15T14:08:04.393Z</time>
      </trkpt>
      <trkpt lat="43.332" lon="6.4887">
        <ele>322.83</ele>
        <time>2025-03-15T14:08:13.028Z</time>
      </trkpt>
      <trkpt lat="43.33222" lon="6.4888">
        <ele>318.86</ele>
        <time>2025-03-15T14:08:21.688Z</time>
      </trkpt>
      <trkpt lat="43.33249" lon="6.48876">
        <ele>314.93</ele>
        <time>2025-03-15T14:08:31.392Z</time>
      </trkpt>
      <trkpt lat="43.33276" lon="6.48871">
        <ele>311.26</ele>
        <time>2025-03-15T14:08:41.121Z</time>
      </trkpt>
      <trkpt lat="43.33291" lon="6.48878">
        <ele>307.82</ele>
        <time>2025-03-15T14:08:46.782Z</time>
      </trkpt>
      <trkpt lat="43.33307" lon="6.489">
        <ele>304.51</ele>
        <time>2025-03-15T14:08:55.051Z</time>
      </trkpt>
      <trkpt lat="43.33323" lon="6.48923">
        <ele>301.34</ele>
        <time>2025-03-15T14:09:03.312Z</time>
      </trkpt>
      <trkpt lat="43.33339" lon="6.48936">
        <ele>298.35</ele>
        <time>2025-03-15T14:09:10.008Z</time>
      </trkpt>
      <trkpt lat="43.33355" lon="6.48949">
        <ele>295.56</ele>
        <time>2025-03-15T14:09:16.712Z</time>
      </trkpt>
      <trkpt lat="43.33386" lon="6.48951">
        <ele>292.77</ele>
        <time>2025-03-15T14:09:27.536Z</time>
      </trkpt>
      <trkpt lat="43.33406" lon="6.48949">
        <ele>290.29</ele>
        <time>2025-03-15T14:09:34.883Z</time>
      </trkpt>
      <trkpt lat="43.33426" lon="6.48947">
        <ele>288.06</ele>
        <time>2025-03-15T14:09:42.249Z</time>
      </trkpt>
      <trkpt lat="43.33441" lon="6.48953">
        <ele>286.16</ele>
        <time>2025-03-15T14:09:47.910Z</time>
      </trkpt>
      <trkpt lat="43.33458" lon="6.48966">
        <ele>284.46</ele>
        <time>2025-03-15T14:09:54.947Z</time>
      </trkpt>
      <trkpt lat="43.33465" lon="6.48981">
        <ele>283.16</ele>
        <time>2025-03-15T14:09:59.509Z</time>
      </trkpt>
      <trkpt lat="43.33473" lon="6.49022">
        <ele>282.12</ele>
        <time>2025-03-15T14:10:10.979Z</time>
      </trkpt>
      <trkpt lat="43.33487" lon="6.49033">
        <ele>281.34</ele>
        <time>2025-03-15T14:10:16.868Z</time>
      </trkpt>
      <trkpt lat="43.33501" lon="6.49045">
        <ele>280.87</ele>
        <time>2025-03-15T14:10:23.047Z</time>
      </trkpt>
      <trkpt lat="43.33497" lon="6.4908">
        <ele>280.77</ele>
        <time>2025-03-15T14:10:33.342Z</time>
      </trkpt>
      <trkpt lat="43.33499" lon="6.49092">
        <ele>280.86</ele>
        <time>2025-03-15T14:10:37.409Z</time>
      </trkpt>
      <trkpt lat="43.33507" lon="6.49122">
        <ele>281.24</ele>
        <time>2025-03-15T14:10:47.122Z</time>
      </trkpt>
      <trkpt lat="43.33514" lon="6.4915">
        <ele>281.81</ele>
        <time>2025-03-15T14:10:57.068Z</time>
      </trkpt>
      <trkpt lat="43.33529" lon="6.49174">
        <ele>282.57</ele>
        <time>2025-03-15T14:11:07.485Z</time>
      </trkpt>
      <trkpt lat="43.33551" lon="6.49198">
        <ele>283.58</ele>
        <time>2025-03-15T14:11:20.173Z</time>
      </trkpt>
      <trkpt lat="43.33564" lon="6.49228">
        <ele>284.83</ele>
        <time>2025-03-15T14:11:32.369Z</time>
      </trkpt>
      <trkpt lat="43.33572" lon="6.49232">
        <ele>286.01</ele>
        <time>2025-03-15T14:11:38.152Z</time>
      </trkpt>
      <trkpt lat="43.33592" lon="6.49226">
        <ele>287.37</ele>
        <time>2025-03-15T14:11:48.334Z</time>
      </trkpt>
      <trkpt lat="43.33604" lon="6.49193">
        <ele>288.56</ele>
        <time>2025-03-15T14:12:00.984Z</time>
      </trkpt>
      <trkpt lat="43.33609" lon="6.49187">
        <ele>289.91</ele>
        <time>2025-03-15T14:12:06.501Z</time>
      </trkpt>
      <trkpt lat="43.33624" lon="6.49185">
        <ele>291.43</ele>
        <time>2025-03-15T14:12:15.141Z</time>
      </trkpt>
      <trkpt lat="43.33649" lon="6.49192">
        <ele>293.07</ele>
        <time>2025-03-15T14:12:28.101Z</time>
      </trkpt>
      <trkpt lat="43.33674" lon="6.49199">
        <ele>294.68</ele>
        <time>2025-03-15T14:12:41.014Z</time>
      </trkpt>
      <trkpt lat="43.33699" lon="6.49206">
        <ele>296.31</ele>
        <time>2025-03-15T14:12:53.961Z</time>
      </trkpt>
      <trkpt lat="43.33725" lon="6.49213">
        <ele>297.94</ele>
        <time>2025-03-15T14:13:06.952Z</time>
      </trkpt>
      <trkpt lat="43.33752" lon="6.49214">
        <ele>299.48</ele>
        <time>2025-03-15T14:13:20.621Z</time>
      </trkpt>
      <trkpt lat="43.3378" lon="6.49215">
        <ele>300.99</ele>
        <time>2025-03-15T14:13:34.268Z</time>
      </trkpt>
      <trkpt lat="43.33795" lon="6.49208">
        <ele>302.44</ele>
        <time>2025-03-15T14:13:43.008Z</time>
      </trkpt>
      <trkpt lat="43.33818" lon="6.49206">
        <ele>303.88</ele>
        <time>2025-03-15T14:13:54.387Z</time>
      </trkpt>
      <trkpt lat="43.3384" lon="6.49204">
        <ele>305.28</ele>
        <time>2025-03-15T14:14:05.726Z</time>
      </trkpt>
      <trkpt lat="43.33858" lon="6.49208">
        <ele>306.64</ele>
        <time>2025-03-15T14:14:14.958Z</time>
      </trkpt>
      <trkpt lat="43.33887" lon="6.49222">
        <ele>307.97</ele>
        <time>2025-03-15T14:14:29.423Z</time>
      </trkpt>
      <trkpt lat="43.33916" lon="6.49236">
        <ele>309.3</ele>
        <time>2025-03-15T14:14:43.910Z</time>
      </trkpt>
      <trkpt lat="43.33937" lon="6.49231">
        <ele>310.47</ele>
        <time>2025-03-15T14:14:54.539Z</time>
      </trkpt>
      <trkpt lat="43.33958" lon="6.49226">
        <ele>311.66</ele>
        <time>2025-03-15T14:15:05.221Z</time>
      </trkpt>
      <trkpt lat="43.33976" lon="6.4923">
        <ele>312.87</ele>
        <time>2025-03-15T14:15:14.188Z</time>
      </trkpt>
      <trkpt lat="43.34005" lon="6.49222">
        <ele>313.83</ele>
        <time>2025-03-15T14:15:27.603Z</time>
      </trkpt>
      <trkpt lat="43.34034" lon="6.49215">
        <ele>314.73</ele>
        <time>2025-03-15T14:15:40.958Z</time>
      </trkpt>
      <trkpt lat="43.34049" lon="6.49217">
        <ele>315.72</ele>
        <time>2025-03-15T14:15:48.621Z</time>
      </trkpt>
      <trkpt lat="43.34064" lon="6.49228">
        <ele>316.75</ele>
        <time>2025-03-15T14:15:57.077Z</time>
      </trkpt>
      <trkpt lat="43.34079" lon="6.49247">
        <ele>317.81</ele>
        <time>2025-03-15T14:16:07.040Z</time>
      </trkpt>
      <trkpt lat="43.34091" lon="6.49275">
        <ele>318.98</ele>
        <time>2025-03-15T14:16:18.573Z</time>
      </trkpt>
      <trkpt lat="43.34112" lon="6.49283">
        <ele>319.88</ele>
        <time>2025-03-15T14:16:28.662Z</time>
      </trkpt>
      <trkpt lat="43.34133" lon="6.49291">
        <ele>320.73</ele>
        <time>2025-03-15T14:16:38.676Z</time>
      </trkpt>
      <trkpt lat="43.34154" lon="6.49298">
        <ele>321.63</ele>
        <time>2025-03-15T14:16:48.794Z</time>
      </trkpt>
      <trkpt lat="43.34171" lon="6.49292">
        <ele>322.48</ele>
        <time>2025-03-15T14:16:57.308Z</time>
      </trkpt>
      <trkpt lat="43.34186" lon="6.49277">
        <ele>323.34</ele>
        <time>2025-03-15T14:17:06.156Z</time>
      </trkpt>
      <trkpt lat="43.34214" lon="6.49258">
        <ele>324.32</ele>
        <time>2025-03-15T14:17:20.326Z</time>
      </trkpt>
      <trkpt lat="43.3422" lon="6.49241">
        <ele>325.17</ele>
        <time>2025-03-15T14:17:27.335Z</time>
      </trkpt>
      <trkpt lat="43.3422" lon="6.49256">
        <ele>325.97</ele>
        <time>2025-03-15T14:17:33.023Z</time>
      </trkpt>
      <trkpt lat="43.34218" lon="6.49271">
        <ele>326.78</ele>
        <time>2025-03-15T14:17:38.811Z</time>
      </trkpt>
      <trkpt lat="43.34212" lon="6.49279">
        <ele>327.56</ele>
        <time>2025-03-15T14:17:43.707Z</time>
      </trkpt>
      <trkpt lat="43.34227" lon="6.49303">
        <ele>328.49</ele>
        <time>2025-03-15T14:17:54.378Z</time>
      </trkpt>
      <trkpt lat="43.34227" lon="6.49303">
        <ele>329.27</ele>
        <time>2025-03-15T14:17:54.396Z</time>
      </trkpt>
      <trkpt lat="43.3424" lon="6.49326">
        <ele>330.13</ele>
        <time>2025-03-15T14:18:04.410Z</time>
      </trkpt>
      <trkpt lat="43.34255" lon="6.49348">
        <ele>330.96</ele>
        <time>2025-03-15T14:18:14.461Z</time>
      </trkpt>
      <trkpt lat="43.34267" lon="6.49378">
        <ele>331.86</ele>
        <time>2025-03-15T14:18:26.136Z</time>
      </trkpt>
      <trkpt lat="43.3428" lon="6.49408">
        <ele>332.61</ele>
        <time>2025-03-15T14:18:37.564Z</time>
      </trkpt>
      <trkpt lat="43.34289" lon="6.49439">
        <ele>333.39</ele>
        <time>2025-03-15T14:18:48.595Z</time>
      </trkpt>
      <trkpt lat="43.34297" lon="6.4947">
        <ele>334.22</ele>
        <time>2025-03-15T14:18:59.662Z</time>
      </trkpt>
      <trkpt lat="43.34317" lon="6.495">
        <ele>334.82</ele>
        <time>2025-03-15T14:19:12.456Z</time>
      </trkpt>
      <trkpt lat="43.34336" lon="6.4953">
        <ele>335.39</ele>
        <time>2025-03-15T14:19:25.192Z</time>
      </trkpt>
      <trkpt lat="43.34344" lon="6.49552">
        <ele>336.02</ele>
        <time>2025-03-15T14:19:33.189Z</time>
      </trkpt>
      <trkpt lat="43.34351" lon="6.49573">
        <ele>336.74</ele>
        <time>2025-03-15T14:19:41.300Z</time>
      </trkpt>
      <trkpt lat="43.34372" lon="6.49599">
        <ele>337.38</ele>
        <time>2025-03-15T14:19:53.540Z</time>
      </trkpt>
      <trkpt lat="43.34392" lon="6.49625">
        <ele>338</ele>
        <time>2025-03-15T14:20:05.743Z</time>
      </trkpt>
      <trkpt lat="43.344" lon="6.49646">
        <ele>338.63</ele>
        <time>2025-03-15T14:20:13.930Z</time>
      </trkpt>
      <trkpt lat="43.34404" lon="6.49673">
        <ele>339.24</ele>
        <time>2025-03-15T14:20:22.904Z</time>
      </trkpt>
      <trkpt lat="43.34407" lon="6.497">
        <ele>339.73</ele>
        <time>2025-03-15T14:20:31.672Z</time>
      </trkpt>
      <trkpt lat="43.3442" lon="6.49734">
        <ele>340.02</ele>
        <time>2025-03-15T14:20:43.600Z</time>
      </trkpt>
      <trkpt lat="43.3442" lon="6.49749">
        <ele>340.37</ele>
        <time>2025-03-15T14:20:48.567Z</time>
      </trkpt>
      <trkpt lat="43.34415" lon="6.4976">
        <ele>340.75</ele>
        <time>2025-03-15T14:20:52.758Z</time>
      </trkpt>
      <trkpt lat="43.344" lon="6.49768">
        <ele>341.17</ele>
        <time>2025-03-15T14:21:00.010Z</time>
      </trkpt>
      <trkpt lat="43.34384" lon="6.49777">
        <ele>341.52</ele>
        <time>2025-03-15T14:21:07.567Z</time>
      </trkpt>
      <trkpt lat="43.34368" lon="6.49786">
        <ele>341.9</ele>
        <time>2025-03-15T14:21:15.175Z</time>
      </trkpt>
      <trkpt lat="43.34344" lon="6.49792">
        <ele>342.35</ele>
        <time>2025-03-15T14:21:26.089Z</time>
      </trkpt>
      <trkpt lat="43.34319" lon="6.49798">
        <ele>342.88</ele>
        <time>2025-03-15T14:21:37.128Z</time>
      </trkpt>
      <trkpt lat="43.34302" lon="6.49825">
        <ele>343.18</ele>
        <time>2025-03-15T14:21:48.211Z</time>
      </trkpt>
      <trkpt lat="43.34285" lon="6.49852">
        <ele>343.67</ele>
        <time>2025-03-15T14:21:59.535Z</time>
      </trkpt>
      <trkpt lat="43.34282" lon="6.49865">
        <ele>343.9</ele>
        <time>2025-03-15T14:22:03.792Z</time>
      </trkpt>
      <trkpt lat="43.34293" lon="6.49899">
        <ele>343.83</ele>
        <time>2025-03-15T14:22:14.898Z</time>
      </trkpt>
      <trkpt lat="43.34304" lon="6.49934">
        <ele>343.91</ele>
        <time>2025-03-15T14:22:26.197Z</time>
      </trkpt>
      <trkpt lat="43.34315" lon="6.49968">
        <ele>344</ele>
        <time>2025-03-15T14:22:37.448Z</time>
      </trkpt>
      <trkpt lat="43.34315" lon="6.49985">
        <ele>344.15</ele>
        <time>2025-03-15T14:22:42.777Z</time>
      </trkpt>
      <trkpt lat="43.34312" lon="6.5">
        <ele>344.31</ele>
        <time>2025-03-15T14:22:47.564Z</time>
      </trkpt>
      <trkpt lat="43.34302" lon="6.50013">
        <ele>344.58</ele>
        <time>2025-03-15T14:22:53.776Z</time>
      </trkpt>
      <trkpt lat="43.34287" lon="6.50022">
        <ele>344.98</ele>
        <time>2025-03-15T14:23:00.995Z</time>
      </trkpt>
      <trkpt lat="43.34272" lon="6.5003">
        <ele>345.35</ele>
        <time>2025-03-15T14:23:08.181Z</time>
      </trkpt>
      <trkpt lat="43.3426" lon="6.50047">
        <ele>345.52</ele>
        <time>2025-03-15T14:23:15.472Z</time>
      </trkpt>
      <trkpt lat="43.34248" lon="6.50065">
        <ele>345.64</ele>
        <time>2025-03-15T14:23:22.685Z</time>
      </trkpt>
      <trkpt lat="43.34223" lon="6.50076">
        <ele>346.09</ele>
        <time>2025-03-15T14:23:34.012Z</time>
      </trkpt>
      <trkpt lat="43.34199" lon="6.50088">
        <ele>346.59</ele>
        <time>2025-03-15T14:23:45.424Z</time>
      </trkpt>
      <trkpt lat="43.34194" lon="6.50099">
        <ele>346.71</ele>
        <time>2025-03-15T14:23:49.243Z</time>
      </trkpt>
      <trkpt lat="43.34194" lon="6.50122">
        <ele>346.64</ele>
        <time>2025-03-15T14:23:56.214Z</time>
      </trkpt>
      <trkpt lat="43.34198" lon="6.50145">
        <ele>346.62</ele>
        <time>2025-03-15T14:24:03.071Z</time>
      </trkpt>
      <trkpt lat="43.34201" lon="6.50168">
        <ele>346.68</ele>
        <time>2025-03-15T14:24:10.000Z</time>
      </trkpt>
      <trkpt lat="43.34196" lon="6.50191">
        <ele>346.89</ele>
        <time>2025-03-15T14:24:17.683Z</time>
      </trkpt>
      <trkpt lat="43.3419" lon="6.50215">
        <ele>347.09</ele>
        <time>2025-03-15T14:24:25.324Z</time>
      </trkpt>
      <trkpt lat="43.3419" lon="6.50241">
        <ele>347.19</ele>
        <time>2025-03-15T14:24:33.171Z</time>
      </trkpt>
      <trkpt lat="43.3419" lon="6.50266">
        <ele>347.28</ele>
        <time>2025-03-15T14:24:40.969Z</time>
      </trkpt>
      <trkpt lat="43.34182" lon="6.50281">
        <ele>347.51</ele>
        <time>2025-03-15T14:24:46.984Z</time>
      </trkpt>
      <trkpt lat="43.34171" lon="6.50294">
        <ele>347.72</ele>
        <time>2025-03-15T14:24:53.115Z</time>
      </trkpt>
      <trkpt lat="43.34147" lon="6.50298">
        <ele>348.16</ele>
        <time>2025-03-15T14:25:03.450Z</time>
      </trkpt>
      <trkpt lat="43.34124" lon="6.50301">
        <ele>348.62</ele>
        <time>2025-03-15T14:25:13.812Z</time>
      </trkpt>
      <trkpt lat="43.341" lon="6.50305">
        <ele>349.15</ele>
        <time>2025-03-15T14:25:24.303Z</time>
      </trkpt>
      <trkpt lat="43.34096" lon="6.50313">
        <ele>349.43</ele>
        <time>2025-03-15T14:25:27.803Z</time>
      </trkpt>
      <trkpt lat="43.34094" lon="6.50322">
        <ele>349.7</ele>
        <time>2025-03-15T14:25:30.892Z</time>
      </trkpt>
      <trkpt lat="43.34096" lon="6.50346">
        <ele>349.87</ele>
        <time>2025-03-15T14:25:38.241Z</time>
      </trkpt>
      <trkpt lat="43.34098" lon="6.50369">
        <ele>350.13</ele>
        <time>2025-03-15T14:25:45.680Z</time>
      </trkpt>
      <trkpt lat="43.34098" lon="6.50392">
        <ele>350.56</ele>
        <time>2025-03-15T14:25:53.011Z</time>
      </trkpt>
      <trkpt lat="43.34098" lon="6.50414">
        <ele>351.09</ele>
        <time>2025-03-15T14:26:00.455Z</time>
      </trkpt>
      <trkpt lat="43.34104" lon="6.50455">
        <ele>351.73</ele>
        <time>2025-03-15T14:26:13.781Z</time>
      </trkpt>
      <trkpt lat="43.34116" lon="6.50484">
        <ele>352.27</ele>
        <time>2025-03-15T14:26:24.444Z</time>
      </trkpt>
      <trkpt lat="43.34128" lon="6.50513">
        <ele>352.84</ele>
        <time>2025-03-15T14:26:35.120Z</time>
      </trkpt>
      <trkpt lat="43.34134" lon="6.50555">
        <ele>353.52</ele>
        <time>2025-03-15T14:26:48.890Z</time>
      </trkpt>
      <trkpt lat="43.34139" lon="6.50598">
        <ele>354.16</ele>
        <time>2025-03-15T14:27:02.605Z</time>
      </trkpt>
      <trkpt lat="43.34145" lon="6.5064">
        <ele>354.97</ele>
        <time>2025-03-15T14:27:16.472Z</time>
      </trkpt>
      <trkpt lat="43.34143" lon="6.50678">
        <ele>355.88</ele>
        <time>2025-03-15T14:27:29.295Z</time>
      </trkpt>
      <trkpt lat="43.34141" lon="6.50691">
        <ele>356.78</ele>
        <time>2025-03-15T14:27:34.659Z</time>
      </trkpt>
      <trkpt lat="43.34141" lon="6.50724">
        <ele>357.76</ele>
        <time>2025-03-15T14:27:45.986Z</time>
      </trkpt>
      <trkpt lat="43.34141" lon="6.50758">
        <ele>359</ele>
        <time>2025-03-15T14:27:57.672Z</time>
      </trkpt>
      <trkpt lat="43.34138" lon="6.50798">
        <ele>360.45</ele>
        <time>2025-03-15T14:28:12.010Z</time>
      </trkpt>
      <trkpt lat="43.34134" lon="6.50839">
        <ele>362.02</ele>
        <time>2025-03-15T14:28:26.485Z</time>
      </trkpt>
      <trkpt lat="43.34126" lon="6.50858">
        <ele>363.31</ele>
        <time>2025-03-15T14:28:35.206Z</time>
      </trkpt>
      <trkpt lat="43.34104" lon="6.50873">
        <ele>364.41</ele>
        <time>2025-03-15T14:28:46.650Z</time>
      </trkpt>
      <trkpt lat="43.34082" lon="6.50901">
        <ele>365.92</ele>
        <time>2025-03-15T14:29:01.261Z</time>
      </trkpt>
      <trkpt lat="43.34059" lon="6.50929">
        <ele>367.55</ele>
        <time>2025-03-15T14:29:16.050Z</time>
      </trkpt>
      <trkpt lat="43.34043" lon="6.50937">
        <ele>368.91</ele>
        <time>2025-03-15T14:29:25.102Z</time>
      </trkpt>
      <trkpt lat="43.34027" lon="6.50944">
        <ele>370.27</ele>
        <time>2025-03-15T14:29:34.162Z</time>
      </trkpt>
      <trkpt lat="43.3401" lon="6.50946">
        <ele>371.66</ele>
        <time>2025-03-15T14:29:43.359Z</time>
      </trkpt>
      <trkpt lat="43.33993" lon="6.50949">
        <ele>373.1</ele>
        <time>2025-03-15T14:29:52.661Z</time>
      </trkpt>
      <trkpt lat="43.3398" lon="6.50969">
        <ele>374.91</ele>
        <time>2025-03-15T14:30:03.577Z</time>
      </trkpt>
      <trkpt lat="43.33967" lon="6.50989">
        <ele>376.56</ele>
        <time>2025-03-15T14:30:14.176Z</time>
      </trkpt>
      <trkpt lat="43.33967" lon="6.51002">
        <ele>378.25</ele>
        <time>2025-03-15T14:30:21.353Z</time>
      </trkpt>
      <trkpt lat="43.33994" lon="6.51024">
        <ele>380.31</ele>
        <time>2025-03-15T14:30:37.261Z</time>
      </trkpt>
      <trkpt lat="43.34021" lon="6.51045">
        <ele>382.06</ele>
        <time>2025-03-15T14:30:52.658Z</time>
      </trkpt>
      <trkpt lat="43.34049" lon="6.51067">
        <ele>384.11</ele>
        <time>2025-03-15T14:31:08.565Z</time>
      </trkpt>
      <trkpt lat="43.34066" lon="6.51088">
        <ele>386.07</ele>
        <time>2025-03-15T14:31:21.116Z</time>
      </trkpt>
      <trkpt lat="43.3407" lon="6.51114">
        <ele>387.9</ele>
        <time>2025-03-15T14:31:31.903Z</time>
      </trkpt>
      <trkpt lat="43.34065" lon="6.51155">
        <ele>389.56</ele>
        <time>2025-03-15T14:31:46.880Z</time>
      </trkpt>
      <trkpt lat="43.3406" lon="6.51197">
        <ele>391.23</ele>
        <time>2025-03-15T14:32:01.876Z</time>
      </trkpt>
      <trkpt lat="43.34055" lon="6.51238">
        <ele>392.83</ele>
        <time>2025-03-15T14:32:16.675Z</time>
      </trkpt>
      <trkpt lat="43.34057" lon="6.51264">
        <ele>394.61</ele>
        <time>2025-03-15T14:32:27.228Z</time>
      </trkpt>
      <trkpt lat="43.34074" lon="6.51292">
        <ele>396.65</ele>
        <time>2025-03-15T14:32:41.227Z</time>
      </trkpt>
      <trkpt lat="43.3409" lon="6.51321">
        <ele>398.56</ele>
        <time>2025-03-15T14:32:54.996Z</time>
      </trkpt>
      <trkpt lat="43.34107" lon="6.51349">
        <ele>400.45</ele>
        <time>2025-03-15T14:33:08.732Z</time>
      </trkpt>
      <trkpt lat="43.34124" lon="6.51378">
        <ele>402.47</ele>
        <time>2025-03-15T14:33:22.656Z</time>
      </trkpt>
      <trkpt lat="43.34145" lon="6.51397">
        <ele>404.76</ele>
        <time>2025-03-15T14:33:36.759Z</time>
      </trkpt>
      <trkpt lat="43.34152" lon="6.51433">
        <ele>406.62</ele>
        <time>2025-03-15T14:33:50.557Z</time>
      </trkpt>
      <trkpt lat="43.34158" lon="6.51469">
        <ele>408.5</ele>
        <time>2025-03-15T14:34:04.389Z</time>
      </trkpt>
      <trkpt lat="43.34164" lon="6.51504">
        <ele>410.56</ele>
        <time>2025-03-15T14:34:18.469Z</time>
      </trkpt>
      <trkpt lat="43.3416" lon="6.51519">
        <ele>412.37</ele>
        <time>2025-03-15T14:34:26.615Z</time>
      </trkpt>
      <trkpt lat="43.34145" lon="6.51538">
        <ele>413.99</ele>
        <time>2025-03-15T14:34:37.325Z</time>
      </trkpt>
      <trkpt lat="43.3413" lon="6.51556">
        <ele>415.72</ele>
        <time>2025-03-15T14:34:48.233Z</time>
      </trkpt>
      <trkpt lat="43.34108" lon="6.51576">
        <ele>417.37</ele>
        <time>2025-03-15T14:35:01.721Z</time>
      </trkpt>
      <trkpt lat="43.34085" lon="6.51597">
        <ele>418.87</ele>
        <time>2025-03-15T14:35:14.965Z</time>
      </trkpt>
      <trkpt lat="43.34083" lon="6.51607">
        <ele>420.55</ele>
        <time>2025-03-15T14:35:21.858Z</time>
      </trkpt>
      <trkpt lat="43.34089" lon="6.51633">
        <ele>422.36</ele>
        <time>2025-03-15T14:35:32.829Z</time>
      </trkpt>
      <trkpt lat="43.34102" lon="6.51652">
        <ele>424.05</ele>
        <time>2025-03-15T14:35:43.287Z</time>
      </trkpt>
      <trkpt lat="43.34122" lon="6.51667">
        <ele>425.78</ele>
        <time>2025-03-15T14:35:55.028Z</time>
      </trkpt>
      <trkpt lat="43.34134" lon="6.51689">
        <ele>427.22</ele>
        <time>2025-03-15T14:36:05.490Z</time>
      </trkpt>
      <trkpt lat="43.34157" lon="6.51706">
        <ele>428.99</ele>
        <time>2025-03-15T14:36:18.697Z</time>
      </trkpt>
      <trkpt lat="43.34179" lon="6.51723">
        <ele>430.54</ele>
        <time>2025-03-15T14:36:31.540Z</time>
      </trkpt>
      <trkpt lat="43.34203" lon="6.5174">
        <ele>431.96</ele>
        <time>2025-03-15T14:36:44.467Z</time>
      </trkpt>
      <trkpt lat="43.34227" lon="6.51756">
        <ele>433.35</ele>
        <time>2025-03-15T14:36:57.348Z</time>
      </trkpt>
      <trkpt lat="43.3425" lon="6.51773">
        <ele>434.79</ele>
        <time>2025-03-15T14:37:10.309Z</time>
      </trkpt>
      <trkpt lat="43.34274" lon="6.5179">
        <ele>436.29</ele>
        <time>2025-03-15T14:37:23.387Z</time>
      </trkpt>
      <trkpt lat="43.34274" lon="6.5179">
        <ele>437.43</ele>
        <time>2025-03-15T14:37:24.349Z</time>
      </trkpt>
      <trkpt lat="43.34275" lon="6.51792">
        <ele>438.49</ele>
        <time>2025-03-15T14:37:27.927Z</time>
      </trkpt>
      <trkpt lat="43.34275" lon="6.51792">
        <ele>439.52</ele>
        <time>2025-03-15T14:37:28.141Z</time>
      </trkpt>
      <trkpt lat="43.34277" lon="6.51794">
        <ele>440.47</ele>
        <time>2025-03-15T14:37:32.692Z</time>
      </trkpt>
      <trkpt lat="43.3428" lon="6.51797">
        <ele>441.37</ele>
        <time>2025-03-15T14:37:36.327Z</time>
      </trkpt>
      <trkpt lat="43.34294" lon="6.51818">
        <ele>442.12</ele>
        <time>2025-03-15T14:37:45.902Z</time>
      </trkpt>
      <trkpt lat="43.34296" lon="6.51822">
        <ele>442.9</ele>
        <time>2025-03-15T14:37:49.064Z</time>
      </trkpt>
      <trkpt lat="43.34299" lon="6.51825">
        <ele>443.67</ele>
        <time>2025-03-15T14:37:52.186Z</time>
      </trkpt>
      <trkpt lat="43.34301" lon="6.51827">
        <ele>444.39</ele>
        <time>2025-03-15T14:37:55.122Z</time>
      </trkpt>
      <trkpt lat="43.34304" lon="6.5183">
        <ele>445.06</ele>
        <time>2025-03-15T14:37:57.869Z</time>
      </trkpt>
      <trkpt lat="43.3431" lon="6.51833">
        <ele>445.76</ele>
        <time>2025-03-15T14:38:01.787Z</time>
      </trkpt>
      <trkpt lat="43.34317" lon="6.51837">
        <ele>446.43</ele>
        <time>2025-03-15T14:38:05.575Z</time>
      </trkpt>
      <trkpt lat="43.3432" lon="6.51839">
        <ele>447.03</ele>
        <time>2025-03-15T14:38:08.119Z</time>
      </trkpt>
      <trkpt lat="43.34323" lon="6.5184">
        <ele>447.62</ele>
        <time>2025-03-15T14:38:10.627Z</time>
      </trkpt>
      <trkpt lat="43.34326" lon="6.51841">
        <ele>448.19</ele>
        <time>2025-03-15T14:38:13.216Z</time>
      </trkpt>
      <trkpt lat="43.3433" lon="6.51843">
        <ele>448.73</ele>
        <time>2025-03-15T14:38:15.666Z</time>
      </trkpt>
      <trkpt lat="43.34336" lon="6.51845">
        <ele>449.28</ele>
        <time>2025-03-15T14:38:19.040Z</time>
      </trkpt>
      <trkpt lat="43.34342" lon="6.51848">
        <ele>449.8</ele>
        <time>2025-03-15T14:38:22.522Z</time>
      </trkpt>
      <trkpt lat="43.34345" lon="6.51849">
        <ele>450.27</ele>
        <time>2025-03-15T14:38:24.807Z</time>
      </trkpt>
      <trkpt lat="43.34349" lon="6.51851">
        <ele>450.73</ele>
        <time>2025-03-15T14:38:27.172Z</time>
      </trkpt>
      <trkpt lat="43.34353" lon="6.51852">
        <ele>451.17</ele>
        <time>2025-03-15T14:38:29.397Z</time>
      </trkpt>
      <trkpt lat="43.34356" lon="6.51854">
        <ele>451.59</ele>
        <time>2025-03-15T14:38:31.683Z</time>
      </trkpt>
      <trkpt lat="43.34374" lon="6.51867">
        <ele>452.01</ele>
        <time>2025-03-15T14:38:40.467Z</time>
      </trkpt>
      <trkpt lat="43.34377" lon="6.51869">
        <ele>452.36</ele>
        <time>2025-03-15T14:38:42.486Z</time>
      </trkpt>
      <trkpt lat="43.3438" lon="6.51872">
        <ele>452.69</ele>
        <time>2025-03-15T14:38:44.450Z</time>
      </trkpt>
      <trkpt lat="43.34383" lon="6.51875">
        <ele>453</ele>
        <time>2025-03-15T14:38:46.411Z</time>
      </trkpt>
      <trkpt lat="43.34385" lon="6.51878">
        <ele>453.29</ele>
        <time>2025-03-15T14:38:48.206Z</time>
      </trkpt>
      <trkpt lat="43.34395" lon="6.51889">
        <ele>453.55</ele>
        <time>2025-03-15T14:38:53.690Z</time>
      </trkpt>
      <trkpt lat="43.34398" lon="6.51892">
        <ele>453.78</ele>
        <time>2025-03-15T14:38:55.607Z</time>
      </trkpt>
      <trkpt lat="43.344" lon="6.51896">
        <ele>454.01</ele>
        <time>2025-03-15T14:38:57.426Z</time>
      </trkpt>
      <trkpt lat="43.34403" lon="6.51899">
        <ele>454.23</ele>
        <time>2025-03-15T14:38:59.265Z</time>
      </trkpt>
      <trkpt lat="43.34406" lon="6.51902">
        <ele>454.46</ele>
        <time>2025-03-15T14:39:00.993Z</time>
      </trkpt>
      <trkpt lat="43.34411" lon="6.51906">
        <ele>454.71</ele>
        <time>2025-03-15T14:39:04.010Z</time>
      </trkpt>
      <trkpt lat="43.34425" lon="6.51915">
        <ele>455.09</ele>
        <time>2025-03-15T14:39:10.847Z</time>
      </trkpt>
      <trkpt lat="43.34428" lon="6.51917">
        <ele>455.33</ele>
        <time>2025-03-15T14:39:12.537Z</time>
      </trkpt>
      <trkpt lat="43.34431" lon="6.51918">
        <ele>455.62</ele>
        <time>2025-03-15T14:39:14.281Z</time>
      </trkpt>
      <trkpt lat="43.34434" lon="6.51919">
        <ele>455.88</ele>
        <time>2025-03-15T14:39:15.834Z</time>
      </trkpt>
      <trkpt lat="43.34437" lon="6.5192">
        <ele>456.12</ele>
        <time>2025-03-15T14:39:17.350Z</time>
      </trkpt>
      <trkpt lat="43.34452" lon="6.51925">
        <ele>456.41</ele>
        <time>2025-03-15T14:39:24.340Z</time>
      </trkpt>
      <trkpt lat="43.34459" lon="6.51927">
        <ele>456.59</ele>
        <time>2025-03-15T14:39:27.381Z</time>
      </trkpt>
      <trkpt lat="43.34463" lon="6.51929">
        <ele>456.73</ele>
        <time>2025-03-15T14:39:29.177Z</time>
      </trkpt>
      <trkpt lat="43.34466" lon="6.5193">
        <ele>456.84</ele>
        <time>2025-03-15T14:39:30.744Z</time>
      </trkpt>
      <trkpt lat="43.34469" lon="6.51931">
        <ele>456.95</ele>
        <time>2025-03-15T14:39:32.206Z</time>
      </trkpt>
      <trkpt lat="43.34472" lon="6.51932">
        <ele>457.01</ele>
        <time>2025-03-15T14:39:33.764Z</time>
      </trkpt>
      <trkpt lat="43.34489" lon="6.5194">
        <ele>457</ele>
        <time>2025-03-15T14:39:40.752Z</time>
      </trkpt>
      <trkpt lat="43.34502" lon="6.51953">
        <ele>457.03</ele>
        <time>2025-03-15T14:39:47.734Z</time>
      </trkpt>
      <trkpt lat="43.34505" lon="6.51956">
        <ele>457.05</ele>
        <time>2025-03-15T14:39:49.091Z</time>
      </trkpt>
      <trkpt lat="43.34507" lon="6.51959">
        <ele>457.06</ele>
        <time>2025-03-15T14:39:50.443Z</time>
      </trkpt>
      <trkpt lat="43.34509" lon="6.51963">
        <ele>457.02</ele>
        <time>2025-03-15T14:39:51.899Z</time>
      </trkpt>
      <trkpt lat="43.3451" lon="6.51967">
        <ele>456.96</ele>
        <time>2025-03-15T14:39:53.104Z</time>
      </trkpt>
      <trkpt lat="43.3451" lon="6.51979">
        <ele>456.84</ele>
        <time>2025-03-15T14:39:56.417Z</time>
      </trkpt>
      <trkpt lat="43.34508" lon="6.52004">
        <ele>456.64</ele>
        <time>2025-03-15T14:40:03.726Z</time>
      </trkpt>
      <trkpt lat="43.34509" lon="6.52013">
        <ele>456.59</ele>
        <time>2025-03-15T14:40:06.505Z</time>
      </trkpt>
      <trkpt lat="43.3451" lon="6.52018">
        <ele>456.5</ele>
        <time>2025-03-15T14:40:07.776Z</time>
      </trkpt>
      <trkpt lat="43.34511" lon="6.52022">
        <ele>456.42</ele>
        <time>2025-03-15T14:40:08.923Z</time>
      </trkpt>
      <trkpt lat="43.34511" lon="6.52027">
        <ele>456.33</ele>
        <time>2025-03-15T14:40:10.283Z</time>
      </trkpt>
      <trkpt lat="43.34512" lon="6.52032">
        <ele>456.23</ele>
        <time>2025-03-15T14:40:11.752Z</time>
      </trkpt>
      <trkpt lat="43.34517" lon="6.52061">
        <ele>456.24</ele>
        <time>2025-03-15T14:40:20.744Z</time>
      </trkpt>
      <trkpt lat="43.34521" lon="6.52074">
        <ele>456.2</ele>
        <time>2025-03-15T14:40:24.769Z</time>
      </trkpt>
      <trkpt lat="43.34522" lon="6.52078">
        <ele>456.11</ele>
        <time>2025-03-15T14:40:25.992Z</time>
      </trkpt>
      <trkpt lat="43.34523" lon="6.52082">
        <ele>456.01</ele>
        <time>2025-03-15T14:40:27.101Z</time>
      </trkpt>
      <trkpt lat="43.34524" lon="6.52086">
        <ele>455.91</ele>
        <time>2025-03-15T14:40:28.350Z</time>
      </trkpt>
      <trkpt lat="43.34533" lon="6.52111">
        <ele>455.75</ele>
        <time>2025-03-15T14:40:36.426Z</time>
      </trkpt>
      <trkpt lat="43.34535" lon="6.52119">
        <ele>455.63</ele>
        <time>2025-03-15T14:40:38.926Z</time>
      </trkpt>
      <trkpt lat="43.34537" lon="6.52123">
        <ele>455.55</ele>
        <time>2025-03-15T14:40:40.150Z</time>
      </trkpt>
      <trkpt lat="43.34538" lon="6.52128">
        <ele>455.48</ele>
        <time>2025-03-15T14:40:41.545Z</time>
      </trkpt>
      <trkpt lat="43.34539" lon="6.52132">
        <ele>455.44</ele>
        <time>2025-03-15T14:40:42.780Z</time>
      </trkpt>
      <trkpt lat="43.3454" lon="6.52136">
        <ele>455.41</ele>
        <time>2025-03-15T14:40:44.099Z</time>
      </trkpt>
      <trkpt lat="43.34542" lon="6.52145">
        <ele>455.36</ele>
        <time>2025-03-15T14:40:46.867Z</time>
      </trkpt>
      <trkpt lat="43.34546" lon="6.52157">
        <ele>455.37</ele>
        <time>2025-03-15T14:40:50.907Z</time>
      </trkpt>
      <trkpt lat="43.34547" lon="6.5216">
        <ele>455.47</ele>
        <time>2025-03-15T14:40:52.049Z</time>
      </trkpt>
      <trkpt lat="43.34549" lon="6.52163">
        <ele>455.6</ele>
        <time>2025-03-15T14:40:53.417Z</time>
      </trkpt>
      <trkpt lat="43.34552" lon="6.52166">
        <ele>455.81</ele>
        <time>2025-03-15T14:40:55.041Z</time>
      </trkpt>
      <trkpt lat="43.34554" lon="6.52169">
        <ele>456.02</ele>
        <time>2025-03-15T14:40:56.713Z</time>
      </trkpt>
      <trkpt lat="43.34563" lon="6.52175">
        <ele>456.28</ele>
        <time>2025-03-15T14:41:01.001Z</time>
      </trkpt>
      <trkpt lat="43.34566" lon="6.52176">
        <ele>456.6</ele>
        <time>2025-03-15T14:41:02.949Z</time>
      </trkpt>
      <trkpt lat="43.3457" lon="6.52176">
        <ele>456.98</ele>
        <time>2025-03-15T14:41:04.914Z</time>
      </trkpt>
      <trkpt lat="43.34573" lon="6.52177">
        <ele>457.39</ele>
        <time>2025-03-15T14:41:07.131Z</time>
      </trkpt>
      <trkpt lat="43.34577" lon="6.52178">
        <ele>457.83</ele>
        <time>2025-03-15T14:41:09.282Z</time>
      </trkpt>
      <trkpt lat="43.34583" lon="6.52182">
        <ele>458.28</ele>
        <time>2025-03-15T14:41:12.937Z</time>
      </trkpt>
      <trkpt lat="43.34606" lon="6.52184">
        <ele>458.88</ele>
        <time>2025-03-15T14:41:23.033Z</time>
      </trkpt>
      <trkpt lat="43.34609" lon="6.52183">
        <ele>459.42</ele>
        <time>2025-03-15T14:41:25.297Z</time>
      </trkpt>
      <trkpt lat="43.34612" lon="6.52181">
        <ele>459.97</ele>
        <time>2025-03-15T14:41:27.676Z</time>
      </trkpt>
      <trkpt lat="43.34615" lon="6.5218">
        <ele>460.55</ele>
        <time>2025-03-15T14:41:30.144Z</time>
      </trkpt>
      <trkpt lat="43.34618" lon="6.52179">
        <ele>461.14</ele>
        <time>2025-03-15T14:41:32.709Z</time>
      </trkpt>
      <trkpt lat="43.34621" lon="6.52178">
        <ele>461.71</ele>
        <time>2025-03-15T14:41:35.144Z</time>
      </trkpt>
      <trkpt lat="43.34625" lon="6.52176">
        <ele>462.29</ele>
        <time>2025-03-15T14:41:37.656Z</time>
      </trkpt>
      <trkpt lat="43.34644" lon="6.52175">
        <ele>462.92</ele>
        <time>2025-03-15T14:41:46.400Z</time>
      </trkpt>
      <trkpt lat="43.34647" lon="6.52176">
        <ele>463.44</ele>
        <time>2025-03-15T14:41:48.653Z</time>
      </trkpt>
      <trkpt lat="43.3465" lon="6.52176">
        <ele>463.97</ele>
        <time>2025-03-15T14:41:50.956Z</time>
      </trkpt>
      <trkpt lat="43.34653" lon="6.52176">
        <ele>464.48</ele>
        <time>2025-03-15T14:41:53.286Z</time>
      </trkpt>
      <trkpt lat="43.3467" lon="6.52176">
        <ele>464.95</ele>
        <time>2025-03-15T14:42:00.680Z</time>
      </trkpt>
      <trkpt lat="43.34673" lon="6.52176">
        <ele>465.43</ele>
        <time>2025-03-15T14:42:02.917Z</time>
      </trkpt>
      <trkpt lat="43.34677" lon="6.52177">
        <ele>465.89</ele>
        <time>2025-03-15T14:42:05.164Z</time>
      </trkpt>
      <trkpt lat="43.3468" lon="6.52178">
        <ele>466.33</ele>
        <time>2025-03-15T14:42:07.322Z</time>
      </trkpt>
      <trkpt lat="43.34683" lon="6.52179">
        <ele>466.72</ele>
        <time>2025-03-15T14:42:09.414Z</time>
      </trkpt>
      <trkpt lat="43.34686" lon="6.5218">
        <ele>467.1</ele>
        <time>2025-03-15T14:42:11.332Z</time>
      </trkpt>
      <trkpt lat="43.34693" lon="6.52182">
        <ele>467.44</ele>
        <time>2025-03-15T14:42:14.435Z</time>
      </trkpt>
      <trkpt lat="43.34718" lon="6.52188">
        <ele>467.89</ele>
        <time>2025-03-15T14:42:25.705Z</time>
      </trkpt>
      <trkpt lat="43.34742" lon="6.52193">
        <ele>468.3</ele>
        <time>2025-03-15T14:42:36.313Z</time>
      </trkpt>
      <trkpt lat="43.34762" lon="6.522">
        <ele>468.54</ele>
        <time>2025-03-15T14:42:44.790Z</time>
      </trkpt>
      <trkpt lat="43.34765" lon="6.52202">
        <ele>468.72</ele>
        <time>2025-03-15T14:42:46.590Z</time>
      </trkpt>
      <trkpt lat="43.34769" lon="6.52203">
        <ele>468.85</ele>
        <time>2025-03-15T14:42:48.338Z</time>
      </trkpt>
      <trkpt lat="43.34773" lon="6.52205">
        <ele>468.94</ele>
        <time>2025-03-15T14:42:50.056Z</time>
      </trkpt>
      <trkpt lat="43.34776" lon="6.52207">
        <ele>468.98</ele>
        <time>2025-03-15T14:42:51.719Z</time>
      </trkpt>
      <trkpt lat="43.34793" lon="6.52217">
        <ele>468.95</ele>
        <time>2025-03-15T14:42:59.397Z</time>
      </trkpt>
      <trkpt lat="43.34803" lon="6.52225">
        <ele>468.85</ele>
        <time>2025-03-15T14:43:03.655Z</time>
      </trkpt>
      <trkpt lat="43.34811" lon="6.5223">
        <ele>468.7</ele>
        <time>2025-03-15T14:43:07.367Z</time>
      </trkpt>
      <trkpt lat="43.34814" lon="6.52233">
        <ele>468.54</ele>
        <time>2025-03-15T14:43:08.564Z</time>
      </trkpt>
      <trkpt lat="43.34814" lon="6.52235">
        <ele>468.35</ele>
        <time>2025-03-15T14:43:09.153Z</time>
      </trkpt>
      <trkpt lat="43.34814" lon="6.52236">
        <ele>468.14</ele>
        <time>2025-03-15T14:43:09.317Z</time>
      </trkpt>
      <trkpt lat="43.34814" lon="6.52236">
        <ele>467.9</ele>
        <time>2025-03-15T14:43:09.420Z</time>
      </trkpt>
      <trkpt lat="43.34815" lon="6.52236">
        <ele>467.62</ele>
        <time>2025-03-15T14:43:09.550Z</time>
      </trkpt>
      <trkpt lat="43.34814" lon="6.52236">
        <ele>467.32</ele>
        <time>2025-03-15T14:43:09.604Z</time>
      </trkpt>
      <trkpt lat="43.34814" lon="6.52236">
        <ele>466.98</ele>
        <time>2025-03-15T14:43:09.642Z</time>
      </trkpt>
      <trkpt lat="43.34814" lon="6.52236">
        <ele>466.61</ele>
        <time>2025-03-15T14:43:09.691Z</time>
      </trkpt>
      <trkpt lat="43.34815" lon="6.52236">
        <ele>466.21</ele>
        <time>2025-03-15T14:43:10.068Z</time>
      </trkpt>
      <trkpt lat="43.34817" lon="6.52236">
        <ele>465.78</ele>
        <time>2025-03-15T14:43:10.504Z</time>
      </trkpt>
      <trkpt lat="43.34823" lon="6.52238">
        <ele>465.3</ele>
        <time>2025-03-15T14:43:12.762Z</time>
      </trkpt>
      <trkpt lat="43.34826" lon="6.5224">
        <ele>464.81</ele>
        <time>2025-03-15T14:43:13.837Z</time>
      </trkpt>
      <trkpt lat="43.34836" lon="6.52244">
        <ele>464.26</ele>
        <time>2025-03-15T14:43:17.806Z</time>
      </trkpt>
      <trkpt lat="43.34845" lon="6.52247">
        <ele>463.72</ele>
        <time>2025-03-15T14:43:21.098Z</time>
      </trkpt>
      <trkpt lat="43.3485" lon="6.52248">
        <ele>463.17</ele>
        <time>2025-03-15T14:43:22.869Z</time>
      </trkpt>
      <trkpt lat="43.34855" lon="6.52249">
        <ele>462.6</ele>
        <time>2025-03-15T14:43:24.721Z</time>
      </trkpt>
      <trkpt lat="43.3486" lon="6.52251">
        <ele>461.99</ele>
        <time>2025-03-15T14:43:26.665Z</time>
      </trkpt>
      <trkpt lat="43.34866" lon="6.52252">
        <ele>461.36</ele>
        <time>2025-03-15T14:43:28.739Z</time>
      </trkpt>
      <trkpt lat="43.34872" lon="6.52254">
        <ele>460.71</ele>
        <time>2025-03-15T14:43:30.927Z</time>
      </trkpt>
      <trkpt lat="43.34878" lon="6.52255">
        <ele>460.05</ele>
        <time>2025-03-15T14:43:33.184Z</time>
      </trkpt>
      <trkpt lat="43.3489" lon="6.52254">
        <ele>459.38</ele>
        <time>2025-03-15T14:43:37.477Z</time>
      </trkpt>
      <trkpt lat="43.34896" lon="6.52251">
        <ele>458.73</ele>
        <time>2025-03-15T14:43:39.688Z</time>
      </trkpt>
      <trkpt lat="43.34901" lon="6.52247">
        <ele>458.1</ele>
        <time>2025-03-15T14:43:41.821Z</time>
      </trkpt>
      <trkpt lat="43.34905" lon="6.52242">
        <ele>457.47</ele>
        <time>2025-03-15T14:43:43.844Z</time>
      </trkpt>
      <trkpt lat="43.34912" lon="6.52229">
        <ele>456.89</ele>
        <time>2025-03-15T14:43:48.185Z</time>
      </trkpt>
      <trkpt lat="43.34917" lon="6.52222">
        <ele>456.26</ele>
        <time>2025-03-15T14:43:50.616Z</time>
      </trkpt>
      <trkpt lat="43.34921" lon="6.52215">
        <ele>455.61</ele>
        <time>2025-03-15T14:43:53.129Z</time>
      </trkpt>
      <trkpt lat="43.34926" lon="6.52208">
        <ele>454.96</ele>
        <time>2025-03-15T14:43:55.604Z</time>
      </trkpt>
      <trkpt lat="43.34931" lon="6.52201">
        <ele>454.31</ele>
        <time>2025-03-15T14:43:58.277Z</time>
      </trkpt>
      <trkpt lat="43.34937" lon="6.52193">
        <ele>453.66</ele>
        <time>2025-03-15T14:44:01.087Z</time>
      </trkpt>
      <trkpt lat="43.34944" lon="6.52186">
        <ele>452.98</ele>
        <time>2025-03-15T14:44:04.167Z</time>
      </trkpt>
      <trkpt lat="43.34952" lon="6.52181">
        <ele>452.36</ele>
        <time>2025-03-15T14:44:07.311Z</time>
      </trkpt>
      <trkpt lat="43.3496" lon="6.52179">
        <ele>451.77</ele>
        <time>2025-03-15T14:44:10.477Z</time>
      </trkpt>
      <trkpt lat="43.3497" lon="6.52177">
        <ele>451.21</ele>
        <time>2025-03-15T14:44:13.916Z</time>
      </trkpt>
      <trkpt lat="43.3498" lon="6.52176">
        <ele>450.66</ele>
        <time>2025-03-15T14:44:17.371Z</time>
      </trkpt>
      <trkpt lat="43.34989" lon="6.52177">
        <ele>450.15</ele>
        <time>2025-03-15T14:44:20.938Z</time>
      </trkpt>
      <trkpt lat="43.34999" lon="6.52178">
        <ele>449.66</ele>
        <time>2025-03-15T14:44:24.507Z</time>
      </trkpt>
      <trkpt lat="43.35009" lon="6.5218">
        <ele>449.22</ele>
        <time>2025-03-15T14:44:27.996Z</time>
      </trkpt>
      <trkpt lat="43.35019" lon="6.52183">
        <ele>448.78</ele>
        <time>2025-03-15T14:44:31.650Z</time>
      </trkpt>
      <trkpt lat="43.35027" lon="6.52189">
        <ele>448.37</ele>
        <time>2025-03-15T14:44:35.011Z</time>
      </trkpt>
      <trkpt lat="43.35033" lon="6.52196">
        <ele>447.96</ele>
        <time>2025-03-15T14:44:37.927Z</time>
      </trkpt>
      <trkpt lat="43.35038" lon="6.52202">
        <ele>447.48</ele>
        <time>2025-03-15T14:44:40.192Z</time>
      </trkpt>
      <trkpt lat="43.35041" lon="6.52209">
        <ele>447</ele>
        <time>2025-03-15T14:44:42.295Z</time>
      </trkpt>
      <trkpt lat="43.35045" lon="6.52215">
        <ele>446.52</ele>
        <time>2025-03-15T14:44:44.432Z</time>
      </trkpt>
      <trkpt lat="43.35049" lon="6.52222">
        <ele>446.03</ele>
        <time>2025-03-15T14:44:46.708Z</time>
      </trkpt>
      <trkpt lat="43.35053" lon="6.52229">
        <ele>445.51</ele>
        <time>2025-03-15T14:44:48.997Z</time>
      </trkpt>
      <trkpt lat="43.35058" lon="6.52235">
        <ele>444.96</ele>
        <time>2025-03-15T14:44:51.418Z</time>
      </trkpt>
      <trkpt lat="43.35064" lon="6.5224">
        <ele>444.42</ele>
        <time>2025-03-15T14:44:53.843Z</time>
      </trkpt>
      <trkpt lat="43.3507" lon="6.52244">
        <ele>443.88</ele>
        <time>2025-03-15T14:44:56.468Z</time>
      </trkpt>
      <trkpt lat="43.35077" lon="6.52248">
        <ele>443.34</ele>
        <time>2025-03-15T14:44:59.009Z</time>
      </trkpt>
      <trkpt lat="43.35084" lon="6.52251">
        <ele>442.82</ele>
        <time>2025-03-15T14:45:01.567Z</time>
      </trkpt>
      <trkpt lat="43.35091" lon="6.52253">
        <ele>442.29</ele>
        <time>2025-03-15T14:45:04.219Z</time>
      </trkpt>
      <trkpt lat="43.35098" lon="6.52255">
        <ele>441.75</ele>
        <time>2025-03-15T14:45:06.853Z</time>
      </trkpt>
      <trkpt lat="43.35105" lon="6.52257">
        <ele>441.22</ele>
        <time>2025-03-15T14:45:09.549Z</time>
      </trkpt>
      <trkpt lat="43.35113" lon="6.52257">
        <ele>440.7</ele>
        <time>2025-03-15T14:45:12.344Z</time>
      </trkpt>
      <trkpt lat="43.35121" lon="6.52257">
        <ele>440.21</ele>
        <time>2025-03-15T14:45:15.338Z</time>
      </trkpt>
      <trkpt lat="43.35129" lon="6.52256">
        <ele>439.72</ele>
        <time>2025-03-15T14:45:18.215Z</time>
      </trkpt>
      <trkpt lat="43.35146" lon="6.52256">
        <ele>439.16</ele>
        <time>2025-03-15T14:45:24.232Z</time>
      </trkpt>
      <trkpt lat="43.35154" lon="6.52257">
        <ele>438.56</ele>
        <time>2025-03-15T14:45:27.424Z</time>
      </trkpt>
      <trkpt lat="43.35163" lon="6.52258">
        <ele>437.96</ele>
        <time>2025-03-15T14:45:30.659Z</time>
      </trkpt>
      <trkpt lat="43.35172" lon="6.52258">
        <ele>437.32</ele>
        <time>2025-03-15T14:45:33.929Z</time>
      </trkpt>
      <trkpt lat="43.35182" lon="6.52256">
        <ele>436.69</ele>
        <time>2025-03-15T14:45:37.312Z</time>
      </trkpt>
      <trkpt lat="43.3519" lon="6.52253">
        <ele>436.1</ele>
        <time>2025-03-15T14:45:40.371Z</time>
      </trkpt>
      <trkpt lat="43.35197" lon="6.52248">
        <ele>435.56</ele>
        <time>2025-03-15T14:45:43.245Z</time>
      </trkpt>
      <trkpt lat="43.35204" lon="6.52243">
        <ele>435</ele>
        <time>2025-03-15T14:45:46.213Z</time>
      </trkpt>
      <trkpt lat="43.35212" lon="6.52238">
        <ele>434.45</ele>
        <time>2025-03-15T14:45:49.282Z</time>
      </trkpt>
      <trkpt lat="43.35219" lon="6.52237">
        <ele>433.88</ele>
        <time>2025-03-15T14:45:51.917Z</time>
      </trkpt>
      <trkpt lat="43.35225" lon="6.52239">
        <ele>433.34</ele>
        <time>2025-03-15T14:45:54.122Z</time>
      </trkpt>
      <trkpt lat="43.3523" lon="6.52244">
        <ele>432.75</ele>
        <time>2025-03-15T14:45:56.226Z</time>
      </trkpt>
      <trkpt lat="43.35234" lon="6.52251">
        <ele>432.1</ele>
        <time>2025-03-15T14:45:58.385Z</time>
      </trkpt>
      <trkpt lat="43.35236" lon="6.52258">
        <ele>431.42</ele>
        <time>2025-03-15T14:46:00.535Z</time>
      </trkpt>
      <trkpt lat="43.35239" lon="6.52266">
        <ele>430.73</ele>
        <time>2025-03-15T14:46:02.790Z</time>
      </trkpt>
      <trkpt lat="43.35242" lon="6.52274">
        <ele>430.03</ele>
        <time>2025-03-15T14:46:05.139Z</time>
      </trkpt>
      <trkpt lat="43.35245" lon="6.52282">
        <ele>429.31</ele>
        <time>2025-03-15T14:46:07.622Z</time>
      </trkpt>
      <trkpt lat="43.35247" lon="6.52291">
        <ele>428.57</ele>
        <time>2025-03-15T14:46:10.116Z</time>
      </trkpt>
      <trkpt lat="43.35249" lon="6.523">
        <ele>427.83</ele>
        <time>2025-03-15T14:46:12.586Z</time>
      </trkpt>
      <trkpt lat="43.35251" lon="6.5231">
        <ele>427.07</ele>
        <time>2025-03-15T14:46:15.261Z</time>
      </trkpt>
      <trkpt lat="43.35254" lon="6.5232">
        <ele>426.31</ele>
        <time>2025-03-15T14:46:18.009Z</time>
      </trkpt>
      <trkpt lat="43.35256" lon="6.5233">
        <ele>425.56</ele>
        <time>2025-03-15T14:46:20.847Z</time>
      </trkpt>
      <trkpt lat="43.35259" lon="6.52341">
        <ele>424.8</ele>
        <time>2025-03-15T14:46:23.822Z</time>
      </trkpt>
      <trkpt lat="43.35261" lon="6.52353">
        <ele>424.02</ele>
        <time>2025-03-15T14:46:26.922Z</time>
      </trkpt>
      <trkpt lat="43.35262" lon="6.52365">
        <ele>423.24</ele>
        <time>2025-03-15T14:46:30.219Z</time>
      </trkpt>
      <trkpt lat="43.35262" lon="6.52378">
        <ele>422.47</ele>
        <time>2025-03-15T14:46:33.479Z</time>
      </trkpt>
      <trkpt lat="43.35261" lon="6.5239">
        <ele>421.69</ele>
        <time>2025-03-15T14:46:36.692Z</time>
      </trkpt>
      <trkpt lat="43.3526" lon="6.52403">
        <ele>420.86</ele>
        <time>2025-03-15T14:46:40.033Z</time>
      </trkpt>
      <trkpt lat="43.35258" lon="6.52414">
        <ele>420.1</ele>
        <time>2025-03-15T14:46:42.973Z</time>
      </trkpt>
      <trkpt lat="43.35258" lon="6.52424">
        <ele>419.34</ele>
        <time>2025-03-15T14:46:45.774Z</time>
      </trkpt>
      <trkpt lat="43.3526" lon="6.52435">
        <ele>418.61</ele>
        <time>2025-03-15T14:46:48.591Z</time>
      </trkpt>
      <trkpt lat="43.35263" lon="6.52444">
        <ele>417.93</ele>
        <time>2025-03-15T14:46:51.237Z</time>
      </trkpt>
      <trkpt lat="43.35267" lon="6.52452">
        <ele>417.25</ele>
        <time>2025-03-15T14:46:53.741Z</time>
      </trkpt>
      <trkpt lat="43.35273" lon="6.52457">
        <ele>416.64</ele>
        <time>2025-03-15T14:46:56.265Z</time>
      </trkpt>
      <trkpt lat="43.3528" lon="6.52461">
        <ele>416.01</ele>
        <time>2025-03-15T14:46:59.023Z</time>
      </trkpt>
      <trkpt lat="43.35287" lon="6.52463">
        <ele>415.41</ele>
        <time>2025-03-15T14:47:01.700Z</time>
      </trkpt>
      <trkpt lat="43.35295" lon="6.52464">
        <ele>414.87</ele>
        <time>2025-03-15T14:47:04.475Z</time>
      </trkpt>
      <trkpt lat="43.35303" lon="6.52464">
        <ele>414.36</ele>
        <time>2025-03-15T14:47:07.337Z</time>
      </trkpt>
      <trkpt lat="43.35311" lon="6.52463">
        <ele>413.85</ele>
        <time>2025-03-15T14:47:10.137Z</time>
      </trkpt>
      <trkpt lat="43.35318" lon="6.5246">
        <ele>413.39</ele>
        <time>2025-03-15T14:47:12.888Z</time>
      </trkpt>
      <trkpt lat="43.35325" lon="6.52456">
        <ele>412.98</ele>
        <time>2025-03-15T14:47:15.751Z</time>
      </trkpt>
      <trkpt lat="43.35332" lon="6.52451">
        <ele>412.63</ele>
        <time>2025-03-15T14:47:18.670Z</time>
      </trkpt>
      <trkpt lat="43.3534" lon="6.52445">
        <ele>412.29</ele>
        <time>2025-03-15T14:47:21.687Z</time>
      </trkpt>
      <trkpt lat="43.35347" lon="6.52441">
        <ele>411.94</ele>
        <time>2025-03-15T14:47:24.579Z</time>
      </trkpt>
      <trkpt lat="43.35354" lon="6.52438">
        <ele>411.57</ele>
        <time>2025-03-15T14:47:27.332Z</time>
      </trkpt>
      <trkpt lat="43.35362" lon="6.52437">
        <ele>411.22</ele>
        <time>2025-03-15T14:47:30.111Z</time>
      </trkpt>
      <trkpt lat="43.3537" lon="6.52435">
        <ele>410.89</ele>
        <time>2025-03-15T14:47:32.859Z</time>
      </trkpt>
      <trkpt lat="43.35376" lon="6.52436">
        <ele>410.52</ele>
        <time>2025-03-15T14:47:35.322Z</time>
      </trkpt>
      <trkpt lat="43.35382" lon="6.52439">
        <ele>410.09</ele>
        <time>2025-03-15T14:47:37.509Z</time>
      </trkpt>
      <trkpt lat="43.35387" lon="6.52443">
        <ele>409.68</ele>
        <time>2025-03-15T14:47:39.634Z</time>
      </trkpt>
      <trkpt lat="43.35389" lon="6.52447">
        <ele>409.24</ele>
        <time>2025-03-15T14:47:40.961Z</time>
      </trkpt>
      <trkpt lat="43.35389" lon="6.52462">
        <ele>408.6</ele>
        <time>2025-03-15T14:47:44.957Z</time>
      </trkpt>
      <trkpt lat="43.3539" lon="6.5247">
        <ele>408.07</ele>
        <time>2025-03-15T14:47:46.885Z</time>
      </trkpt>
      <trkpt lat="43.35391" lon="6.52477">
        <ele>407.52</ele>
        <time>2025-03-15T14:47:48.956Z</time>
      </trkpt>
      <trkpt lat="43.35393" lon="6.52487">
        <ele>406.99</ele>
        <time>2025-03-15T14:47:51.458Z</time>
      </trkpt>
      <trkpt lat="43.35395" lon="6.52496">
        <ele>406.44</ele>
        <time>2025-03-15T14:47:53.934Z</time>
      </trkpt>
      <trkpt lat="43.35397" lon="6.52505">
        <ele>405.91</ele>
        <time>2025-03-15T14:47:56.586Z</time>
      </trkpt>
      <trkpt lat="43.35399" lon="6.52516">
        <ele>405.35</ele>
        <time>2025-03-15T14:47:59.348Z</time>
      </trkpt>
      <trkpt lat="43.354" lon="6.52527">
        <ele>404.76</ele>
        <time>2025-03-15T14:48:02.281Z</time>
      </trkpt>
      <trkpt lat="43.35401" lon="6.52538">
        <ele>404.12</ele>
        <time>2025-03-15T14:48:05.241Z</time>
      </trkpt>
      <trkpt lat="43.35402" lon="6.5255">
        <ele>403.47</ele>
        <time>2025-03-15T14:48:08.399Z</time>
      </trkpt>
      <trkpt lat="43.35402" lon="6.52562">
        <ele>402.78</ele>
        <time>2025-03-15T14:48:11.647Z</time>
      </trkpt>
      <trkpt lat="43.35403" lon="6.52575">
        <ele>402.05</ele>
        <time>2025-03-15T14:48:15.058Z</time>
      </trkpt>
      <trkpt lat="43.35405" lon="6.52587">
        <ele>401.32</ele>
        <time>2025-03-15T14:48:18.158Z</time>
      </trkpt>
      <trkpt lat="43.35409" lon="6.52597">
        <ele>400.58</ele>
        <time>2025-03-15T14:48:21.115Z</time>
      </trkpt>
      <trkpt lat="43.35413" lon="6.52606">
        <ele>399.86</ele>
        <time>2025-03-15T14:48:24.023Z</time>
      </trkpt>
      <trkpt lat="43.35419" lon="6.52614">
        <ele>399.14</ele>
        <time>2025-03-15T14:48:26.840Z</time>
      </trkpt>
      <trkpt lat="43.35425" lon="6.52621">
        <ele>398.38</ele>
        <time>2025-03-15T14:48:29.649Z</time>
      </trkpt>
      <trkpt lat="43.35431" lon="6.52627">
        <ele>397.63</ele>
        <time>2025-03-15T14:48:32.549Z</time>
      </trkpt>
      <trkpt lat="43.35438" lon="6.52634">
        <ele>396.87</ele>
        <time>2025-03-15T14:48:35.555Z</time>
      </trkpt>
      <trkpt lat="43.35445" lon="6.52641">
        <ele>396.06</ele>
        <time>2025-03-15T14:48:38.885Z</time>
      </trkpt>
      <trkpt lat="43.35453" lon="6.52648">
        <ele>395.22</ele>
        <time>2025-03-15T14:48:42.143Z</time>
      </trkpt>
      <trkpt lat="43.35461" lon="6.52654">
        <ele>394.38</ele>
        <time>2025-03-15T14:48:45.406Z</time>
      </trkpt>
      <trkpt lat="43.35469" lon="6.52661">
        <ele>393.53</ele>
        <time>2025-03-15T14:48:48.708Z</time>
      </trkpt>
      <trkpt lat="43.35476" lon="6.52669">
        <ele>392.69</ele>
        <time>2025-03-15T14:48:52.140Z</time>
      </trkpt>
      <trkpt lat="43.35484" lon="6.52677">
        <ele>391.87</ele>
        <time>2025-03-15T14:48:55.544Z</time>
      </trkpt>
      <trkpt lat="43.35491" lon="6.52685">
        <ele>391.06</ele>
        <time>2025-03-15T14:48:58.959Z</time>
      </trkpt>
      <trkpt lat="43.355" lon="6.52693">
        <ele>390.24</ele>
        <time>2025-03-15T14:49:02.649Z</time>
      </trkpt>
      <trkpt lat="43.35507" lon="6.52702">
        <ele>389.49</ele>
        <time>2025-03-15T14:49:06.288Z</time>
      </trkpt>
      <trkpt lat="43.35514" lon="6.52712">
        <ele>388.72</ele>
        <time>2025-03-15T14:49:09.858Z</time>
      </trkpt>
      <trkpt lat="43.35519" lon="6.52724">
        <ele>387.91</ele>
        <time>2025-03-15T14:49:13.476Z</time>
      </trkpt>
      <trkpt lat="43.35523" lon="6.52737">
        <ele>387.1</ele>
        <time>2025-03-15T14:49:17.043Z</time>
      </trkpt>
      <trkpt lat="43.35524" lon="6.5275">
        <ele>386.25</ele>
        <time>2025-03-15T14:49:20.466Z</time>
      </trkpt>
      <trkpt lat="43.35525" lon="6.52762">
        <ele>385.42</ele>
        <time>2025-03-15T14:49:23.822Z</time>
      </trkpt>
      <trkpt lat="43.35526" lon="6.52775">
        <ele>384.58</ele>
        <time>2025-03-15T14:49:27.244Z</time>
      </trkpt>
      <trkpt lat="43.35526" lon="6.52788">
        <ele>383.76</ele>
        <time>2025-03-15T14:49:30.465Z</time>
      </trkpt>
      <trkpt lat="43.35527" lon="6.52799">
        <ele>382.97</ele>
        <time>2025-03-15T14:49:33.530Z</time>
      </trkpt>
      <trkpt lat="43.35527" lon="6.52811">
        <ele>382.16</ele>
        <time>2025-03-15T14:49:36.637Z</time>
      </trkpt>
      <trkpt lat="43.35526" lon="6.52823">
        <ele>381.37</ele>
        <time>2025-03-15T14:49:39.651Z</time>
      </trkpt>
      <trkpt lat="43.35524" lon="6.52834">
        <ele>380.57</ele>
        <time>2025-03-15T14:49:42.637Z</time>
      </trkpt>
      <trkpt lat="43.3552" lon="6.52844">
        <ele>379.8</ele>
        <time>2025-03-15T14:49:45.646Z</time>
      </trkpt>
      <trkpt lat="43.35515" lon="6.52854">
        <ele>379.03</ele>
        <time>2025-03-15T14:49:48.906Z</time>
      </trkpt>
      <trkpt lat="43.35508" lon="6.52861">
        <ele>378.3</ele>
        <time>2025-03-15T14:49:51.978Z</time>
      </trkpt>
      <trkpt lat="43.35502" lon="6.52867">
        <ele>377.53</ele>
        <time>2025-03-15T14:49:54.699Z</time>
      </trkpt>
      <trkpt lat="43.35497" lon="6.52872">
        <ele>376.86</ele>
        <time>2025-03-15T14:49:56.979Z</time>
      </trkpt>
      <trkpt lat="43.3548" lon="6.52897">
        <ele>376.11</ele>
        <time>2025-03-15T14:50:06.219Z</time>
      </trkpt>
      <trkpt lat="43.35475" lon="6.52904">
        <ele>375.41</ele>
        <time>2025-03-15T14:50:08.707Z</time>
      </trkpt>
      <trkpt lat="43.35471" lon="6.5291">
        <ele>374.73</ele>
        <time>2025-03-15T14:50:10.896Z</time>
      </trkpt>
      <trkpt lat="43.35468" lon="6.52917">
        <ele>374.06</ele>
        <time>2025-03-15T14:50:13.118Z</time>
      </trkpt>
      <trkpt lat="43.35464" lon="6.52925">
        <ele>373.39</ele>
        <time>2025-03-15T14:50:15.593Z</time>
      </trkpt>
      <trkpt lat="43.35461" lon="6.52934">
        <ele>372.73</ele>
        <time>2025-03-15T14:50:18.133Z</time>
      </trkpt>
      <trkpt lat="43.35457" lon="6.52942">
        <ele>372.09</ele>
        <time>2025-03-15T14:50:20.670Z</time>
      </trkpt>
      <trkpt lat="43.35454" lon="6.52951">
        <ele>371.43</ele>
        <time>2025-03-15T14:50:23.255Z</time>
      </trkpt>
      <trkpt lat="43.3545" lon="6.5296">
        <ele>370.77</ele>
        <time>2025-03-15T14:50:25.831Z</time>
      </trkpt>
      <trkpt lat="43.35447" lon="6.52969">
        <ele>370.16</ele>
        <time>2025-03-15T14:50:28.735Z</time>
      </trkpt>
      <trkpt lat="43.35443" lon="6.52979">
        <ele>369.55</ele>
        <time>2025-03-15T14:50:31.656Z</time>
      </trkpt>
      <trkpt lat="43.35439" lon="6.52988">
        <ele>368.92</ele>
        <time>2025-03-15T14:50:34.516Z</time>
      </trkpt>
      <trkpt lat="43.35435" lon="6.52998">
        <ele>368.27</ele>
        <time>2025-03-15T14:50:37.315Z</time>
      </trkpt>
      <trkpt lat="43.35433" lon="6.53008">
        <ele>367.61</ele>
        <time>2025-03-15T14:50:40.061Z</time>
      </trkpt>
      <trkpt lat="43.35432" lon="6.53017">
        <ele>366.95</ele>
        <time>2025-03-15T14:50:42.464Z</time>
      </trkpt>
      <trkpt lat="43.3543" lon="6.53026">
        <ele>366.29</ele>
        <time>2025-03-15T14:50:44.871Z</time>
      </trkpt>
      <trkpt lat="43.35425" lon="6.53042">
        <ele>365.52</ele>
        <time>2025-03-15T14:50:49.423Z</time>
      </trkpt>
      <trkpt lat="43.35422" lon="6.53049">
        <ele>364.79</ele>
        <time>2025-03-15T14:50:51.442Z</time>
      </trkpt>
      <trkpt lat="43.35417" lon="6.53053">
        <ele>364.05</ele>
        <time>2025-03-15T14:50:53.574Z</time>
      </trkpt>
      <trkpt lat="43.35412" lon="6.53055">
        <ele>363.29</ele>
        <time>2025-03-15T14:50:55.739Z</time>
      </trkpt>
      <trkpt lat="43.35406" lon="6.53054">
        <ele>362.51</ele>
        <time>2025-03-15T14:50:57.683Z</time>
      </trkpt>
      <trkpt lat="43.35401" lon="6.53049">
        <ele>361.71</ele>
        <time>2025-03-15T14:50:59.918Z</time>
      </trkpt>
      <trkpt lat="43.35397" lon="6.53042">
        <ele>360.89</ele>
        <time>2025-03-15T14:51:02.311Z</time>
      </trkpt>
      <trkpt lat="43.35391" lon="6.53033">
        <ele>360.05</ele>
        <time>2025-03-15T14:51:05.458Z</time>
      </trkpt>
      <trkpt lat="43.35385" lon="6.53031">
        <ele>359.16</ele>
        <time>2025-03-15T14:51:07.728Z</time>
      </trkpt>
      <trkpt lat="43.35379" lon="6.53034">
        <ele>358.2</ele>
        <time>2025-03-15T14:51:10.068Z</time>
      </trkpt>
      <trkpt lat="43.35373" lon="6.53039">
        <ele>357.22</ele>
        <time>2025-03-15T14:51:12.296Z</time>
      </trkpt>
      <trkpt lat="43.35369" lon="6.53047">
        <ele>356.23</ele>
        <time>2025-03-15T14:51:14.859Z</time>
      </trkpt>
      <trkpt lat="43.35365" lon="6.53055">
        <ele>355.24</ele>
        <time>2025-03-15T14:51:17.432Z</time>
      </trkpt>
      <trkpt lat="43.35362" lon="6.53065">
        <ele>354.21</ele>
        <time>2025-03-15T14:51:20.310Z</time>
      </trkpt>
      <trkpt lat="43.35358" lon="6.53076">
        <ele>353.18</ele>
        <time>2025-03-15T14:51:23.504Z</time>
      </trkpt>
      <trkpt lat="43.35357" lon="6.53086">
        <ele>352.15</ele>
        <time>2025-03-15T14:51:25.944Z</time>
      </trkpt>
      <trkpt lat="43.35358" lon="6.53094">
        <ele>351.09</ele>
        <time>2025-03-15T14:51:28.177Z</time>
      </trkpt>
      <trkpt lat="43.35361" lon="6.53103">
        <ele>350.03</ele>
        <time>2025-03-15T14:51:30.744Z</time>
      </trkpt>
      <trkpt lat="43.35364" lon="6.53113">
        <ele>348.93</ele>
        <time>2025-03-15T14:51:33.794Z</time>
      </trkpt>
      <trkpt lat="43.35368" lon="6.53125">
        <ele>347.76</ele>
        <time>2025-03-15T14:51:37.106Z</time>
      </trkpt>
      <trkpt lat="43.35372" lon="6.53137">
        <ele>346.56</ele>
        <time>2025-03-15T14:51:40.538Z</time>
      </trkpt>
      <trkpt lat="43.35376" lon="6.53149">
        <ele>345.34</ele>
        <time>2025-03-15T14:51:44.014Z</time>
      </trkpt>
      <trkpt lat="43.3538" lon="6.53162">
        <ele>344.1</ele>
        <time>2025-03-15T14:51:47.680Z</time>
      </trkpt>
      <trkpt lat="43.35383" lon="6.53174">
        <ele>342.85</ele>
        <time>2025-03-15T14:51:51.097Z</time>
      </trkpt>
      <trkpt lat="43.35384" lon="6.53188">
        <ele>341.58</ele>
        <time>2025-03-15T14:51:54.663Z</time>
      </trkpt>
      <trkpt lat="43.35384" lon="6.53201">
        <ele>340.3</ele>
        <time>2025-03-15T14:51:58.166Z</time>
      </trkpt>
      <trkpt lat="43.35382" lon="6.53215">
        <ele>339.03</ele>
        <time>2025-03-15T14:52:01.796Z</time>
      </trkpt>
      <trkpt lat="43.35378" lon="6.53228">
        <ele>337.77</ele>
        <time>2025-03-15T14:52:05.570Z</time>
      </trkpt>
      <trkpt lat="43.35375" lon="6.53241">
        <ele>336.54</ele>
        <time>2025-03-15T14:52:09.059Z</time>
      </trkpt>
      <trkpt lat="43.35372" lon="6.53252">
        <ele>335.36</ele>
        <time>2025-03-15T14:52:12.127Z</time>
      </trkpt>
      <trkpt lat="43.35369" lon="6.5326">
        <ele>334.19</ele>
        <time>2025-03-15T14:52:14.654Z</time>
      </trkpt>
      <trkpt lat="43.35366" lon="6.53269">
        <ele>333.04</ele>
        <time>2025-03-15T14:52:17.004Z</time>
      </trkpt>
      <trkpt lat="43.35366" lon="6.53275">
        <ele>331.92</ele>
        <time>2025-03-15T14:52:18.711Z</time>
      </trkpt>
      <trkpt lat="43.35367" lon="6.53281">
        <ele>330.81</ele>
        <time>2025-03-15T14:52:20.204Z</time>
      </trkpt>
      <trkpt lat="43.35369" lon="6.53286">
        <ele>329.71</ele>
        <time>2025-03-15T14:52:21.707Z</time>
      </trkpt>
      <trkpt lat="43.35371" lon="6.5329">
        <ele>328.64</ele>
        <time>2025-03-15T14:52:22.975Z</time>
      </trkpt>
      <trkpt lat="43.35374" lon="6.53294">
        <ele>327.59</ele>
        <time>2025-03-15T14:52:24.495Z</time>
      </trkpt>
      <trkpt lat="43.35376" lon="6.533">
        <ele>326.54</ele>
        <time>2025-03-15T14:52:26.187Z</time>
      </trkpt>
      <trkpt lat="43.35379" lon="6.53305">
        <ele>325.52</ele>
        <time>2025-03-15T14:52:28.015Z</time>
      </trkpt>
      <trkpt lat="43.35382" lon="6.53311">
        <ele>324.51</ele>
        <time>2025-03-15T14:52:29.850Z</time>
      </trkpt>
      <trkpt lat="43.35385" lon="6.53317">
        <ele>323.53</ele>
        <time>2025-03-15T14:52:31.720Z</time>
      </trkpt>
      <trkpt lat="43.35388" lon="6.53323">
        <ele>322.55</ele>
        <time>2025-03-15T14:52:33.611Z</time>
      </trkpt>
      <trkpt lat="43.35391" lon="6.5333">
        <ele>321.59</ele>
        <time>2025-03-15T14:52:35.619Z</time>
      </trkpt>
      <trkpt lat="43.35394" lon="6.53334">
        <ele>320.65</ele>
        <time>2025-03-15T14:52:37.287Z</time>
      </trkpt>
      <trkpt lat="43.35397" lon="6.53338">
        <ele>319.72</ele>
        <time>2025-03-15T14:52:38.875Z</time>
      </trkpt>
      <trkpt lat="43.354" lon="6.53344">
        <ele>318.8</ele>
        <time>2025-03-15T14:52:40.701Z</time>
      </trkpt>
      <trkpt lat="43.35401" lon="6.53351">
        <ele>317.88</ele>
        <time>2025-03-15T14:52:42.617Z</time>
      </trkpt>
      <trkpt lat="43.354" lon="6.53359">
        <ele>317</ele>
        <time>2025-03-15T14:52:44.632Z</time>
      </trkpt>
      <trkpt lat="43.35398" lon="6.53367">
        <ele>316.12</ele>
        <time>2025-03-15T14:52:46.961Z</time>
      </trkpt>
      <trkpt lat="43.35395" lon="6.53374">
        <ele>315.28</ele>
        <time>2025-03-15T14:52:49.059Z</time>
      </trkpt>
      <trkpt lat="43.35391" lon="6.53379">
        <ele>314.49</ele>
        <time>2025-03-15T14:52:51.040Z</time>
      </trkpt>
      <trkpt lat="43.35389" lon="6.53385">
        <ele>313.71</ele>
        <time>2025-03-15T14:52:52.672Z</time>
      </trkpt>
      <trkpt lat="43.35388" lon="6.53391">
        <ele>312.94</ele>
        <time>2025-03-15T14:52:54.363Z</time>
      </trkpt>
      <trkpt lat="43.35389" lon="6.53398">
        <ele>312.2</ele>
        <time>2025-03-15T14:52:56.275Z</time>
      </trkpt>
      <trkpt lat="43.3539" lon="6.53404">
        <ele>311.49</ele>
        <time>2025-03-15T14:52:57.860Z</time>
      </trkpt>
      <trkpt lat="43.35392" lon="6.5341">
        <ele>310.8</ele>
        <time>2025-03-15T14:52:59.524Z</time>
      </trkpt>
      <trkpt lat="43.35391" lon="6.53416">
        <ele>310.15</ele>
        <time>2025-03-15T14:53:01.131Z</time>
      </trkpt>
      <trkpt lat="43.3539" lon="6.53425">
        <ele>309.53</ele>
        <time>2025-03-15T14:53:03.357Z</time>
      </trkpt>
      <trkpt lat="43.35387" lon="6.53431">
        <ele>308.96</ele>
        <time>2025-03-15T14:53:05.316Z</time>
      </trkpt>
      <trkpt lat="43.35386" lon="6.53438">
        <ele>308.4</ele>
        <time>2025-03-15T14:53:07.174Z</time>
      </trkpt>
      <trkpt lat="43.35385" lon="6.53445">
        <ele>307.87</ele>
        <time>2025-03-15T14:53:08.966Z</time>
      </trkpt>
      <trkpt lat="43.35384" lon="6.5345">
        <ele>307.37</ele>
        <time>2025-03-15T14:53:10.405Z</time>
      </trkpt>
      <trkpt lat="43.35383" lon="6.53457">
        <ele>306.89</ele>
        <time>2025-03-15T14:53:12.094Z</time>
      </trkpt>
      <trkpt lat="43.35384" lon="6.53462">
        <ele>306.45</ele>
        <time>2025-03-15T14:53:13.633Z</time>
      </trkpt>
      <trkpt lat="43.35384" lon="6.53468">
        <ele>306.02</ele>
        <time>2025-03-15T14:53:15.242Z</time>
      </trkpt>
      <trkpt lat="43.35384" lon="6.53473">
        <ele>305.62</ele>
        <time>2025-03-15T14:53:16.348Z</time>
      </trkpt>
      <trkpt lat="43.35382" lon="6.53481">
        <ele>305.25</ele>
        <time>2025-03-15T14:53:18.643Z</time>
      </trkpt>
      <trkpt lat="43.35381" lon="6.53488">
        <ele>304.9</ele>
        <time>2025-03-15T14:53:20.565Z</time>
      </trkpt>
      <trkpt lat="43.35381" lon="6.53496">
        <ele>304.56</ele>
        <time>2025-03-15T14:53:22.522Z</time>
      </trkpt>
      <trkpt lat="43.35381" lon="6.53501">
        <ele>304.24</ele>
        <time>2025-03-15T14:53:24.051Z</time>
      </trkpt>
      <trkpt lat="43.35382" lon="6.53505">
        <ele>303.95</ele>
        <time>2025-03-15T14:53:25.154Z</time>
      </trkpt>
      <trkpt lat="43.35383" lon="6.53508">
        <ele>303.66</ele>
        <time>2025-03-15T14:53:25.901Z</time>
      </trkpt>
      <trkpt lat="43.35384" lon="6.5351">
        <ele>303.38</ele>
        <time>2025-03-15T14:53:26.604Z</time>
      </trkpt>
      <trkpt lat="43.35385" lon="6.53512">
        <ele>303.1</ele>
        <time>2025-03-15T14:53:27.272Z</time>
      </trkpt>
      <trkpt lat="43.35387" lon="6.53511">
        <ele>302.81</ele>
        <time>2025-03-15T14:53:27.837Z</time>
      </trkpt>
      <trkpt lat="43.35389" lon="6.53509">
        <ele>302.5</ele>
        <time>2025-03-15T14:53:28.954Z</time>
      </trkpt>
      <trkpt lat="43.35389" lon="6.53508">
        <ele>302.2</ele>
        <time>2025-03-15T14:53:29.010Z</time>
      </trkpt>
      <trkpt lat="43.35389" lon="6.53508">
        <ele>301.9</ele>
        <time>2025-03-15T14:53:29.026Z</time>
      </trkpt>
      <trkpt lat="43.35389" lon="6.53509">
        <ele>301.58</ele>
        <time>2025-03-15T14:53:29.064Z</time>
      </trkpt>
      <trkpt lat="43.35389" lon="6.53508">
        <ele>301.24</ele>
        <time>2025-03-15T14:53:29.133Z</time>
      </trkpt>
      <trkpt lat="43.35389" lon="6.53508">
        <ele>300.89</ele>
        <time>2025-03-15T14:53:29.188Z</time>
      </trkpt>
      <trkpt lat="43.35389" lon="6.53508">
        <ele>300.52</ele>
        <time>2025-03-15T14:53:29.203Z</time>
      </trkpt>
      <trkpt lat="43.35393" lon="6.53505">
        <ele>300.11</ele>
        <time>2025-03-15T14:53:31.013Z</time>
      </trkpt>
      <trkpt lat="43.35401" lon="6.53499">
        <ele>299.67</ele>
        <time>2025-03-15T14:53:34.025Z</time>
      </trkpt>
      <trkpt lat="43.35406" lon="6.53495">
        <ele>299.22</ele>
        <time>2025-03-15T14:53:36.032Z</time>
      </trkpt>
      <trkpt lat="43.35411" lon="6.53492">
        <ele>298.77</ele>
        <time>2025-03-15T14:53:38.164Z</time>
      </trkpt>
      <trkpt lat="43.35417" lon="6.53488">
        <ele>298.27</ele>
        <time>2025-03-15T14:53:40.460Z</time>
      </trkpt>
      <trkpt lat="43.35421" lon="6.53485">
        <ele>297.77</ele>
        <time>2025-03-15T14:53:42.187Z</time>
      </trkpt>
      <trkpt lat="43.35426" lon="6.53482">
        <ele>297.24</ele>
        <time>2025-03-15T14:53:44.302Z</time>
      </trkpt>
      <trkpt lat="43.35432" lon="6.53478">
        <ele>296.7</ele>
        <time>2025-03-15T14:53:46.568Z</time>
      </trkpt>
      <trkpt lat="43.35438" lon="6.53475">
        <ele>296.14</ele>
        <time>2025-03-15T14:53:48.947Z</time>
      </trkpt>
      <trkpt lat="43.35445" lon="6.53473">
        <ele>295.55</ele>
        <time>2025-03-15T14:53:51.231Z</time>
      </trkpt>
      <trkpt lat="43.35452" lon="6.53473">
        <ele>294.95</ele>
        <time>2025-03-15T14:53:53.762Z</time>
      </trkpt>
      <trkpt lat="43.35458" lon="6.53469">
        <ele>294.37</ele>
        <time>2025-03-15T14:53:56.350Z</time>
      </trkpt>
      <trkpt lat="43.35464" lon="6.53463">
        <ele>293.8</ele>
        <time>2025-03-15T14:53:58.863Z</time>
      </trkpt>
      <trkpt lat="43.35469" lon="6.53456">
        <ele>293.26</ele>
        <time>2025-03-15T14:54:01.529Z</time>
      </trkpt>
      <trkpt lat="43.35472" lon="6.53447">
        <ele>292.73</ele>
        <time>2025-03-15T14:54:04.135Z</time>
      </trkpt>
      <trkpt lat="43.35475" lon="6.53438">
        <ele>292.25</ele>
        <time>2025-03-15T14:54:06.742Z</time>
      </trkpt>
      <trkpt lat="43.35478" lon="6.53428">
        <ele>291.8</ele>
        <time>2025-03-15T14:54:09.415Z</time>
      </trkpt>
      <trkpt lat="43.35481" lon="6.53417">
        <ele>291.32</ele>
        <time>2025-03-15T14:54:12.564Z</time>
      </trkpt>
      <trkpt lat="43.35484" lon="6.5341">
        <ele>290.87</ele>
        <time>2025-03-15T14:54:14.775Z</time>
      </trkpt>
      <trkpt lat="43.35493" lon="6.53383">
        <ele>290.4</ele>
        <time>2025-03-15T14:54:23.168Z</time>
      </trkpt>
      <trkpt lat="43.35494" lon="6.53374">
        <ele>290.06</ele>
        <time>2025-03-15T14:54:25.425Z</time>
      </trkpt>
      <trkpt lat="43.35496" lon="6.53365">
        <ele>289.72</ele>
        <time>2025-03-15T14:54:27.912Z</time>
      </trkpt>
      <trkpt lat="43.355" lon="6.53354">
        <ele>289.37</ele>
        <time>2025-03-15T14:54:31.032Z</time>
      </trkpt>
      <trkpt lat="43.35504" lon="6.53343">
        <ele>289.04</ele>
        <time>2025-03-15T14:54:34.500Z</time>
      </trkpt>
      <trkpt lat="43.35509" lon="6.53332">
        <ele>288.77</ele>
        <time>2025-03-15T14:54:37.833Z</time>
      </trkpt>
      <trkpt lat="43.35512" lon="6.53322">
        <ele>288.54</ele>
        <time>2025-03-15T14:54:41.087Z</time>
      </trkpt>
      <trkpt lat="43.35513" lon="6.53312">
        <ele>288.44</ele>
        <time>2025-03-15T14:54:44.017Z</time>
      </trkpt>
      <trkpt lat="43.35515" lon="6.53302">
        <ele>288.31</ele>
        <time>2025-03-15T14:54:46.834Z</time>
      </trkpt>
      <trkpt lat="43.35519" lon="6.53293">
        <ele>288.17</ele>
        <time>2025-03-15T14:54:49.908Z</time>
      </trkpt>
      <trkpt lat="43.35522" lon="6.53285">
        <ele>288.05</ele>
        <time>2025-03-15T14:54:52.301Z</time>
      </trkpt>
      <trkpt lat="43.35528" lon="6.53282">
        <ele>287.89</ele>
        <time>2025-03-15T14:54:54.695Z</time>
      </trkpt>
      <trkpt lat="43.35533" lon="6.5328">
        <ele>287.78</ele>
        <time>2025-03-15T14:54:56.784Z</time>
      </trkpt>
      <trkpt lat="43.35538" lon="6.53276">
        <ele>287.7</ele>
        <time>2025-03-15T14:54:58.842Z</time>
      </trkpt>
      <trkpt lat="43.35547" lon="6.5327">
        <ele>287.62</ele>
        <time>2025-03-15T14:55:02.785Z</time>
      </trkpt>
      <trkpt lat="43.35561" lon="6.53258">
        <ele>287.59</ele>
        <time>2025-03-15T14:55:09.557Z</time>
      </trkpt>
      <trkpt lat="43.3557" lon="6.5325">
        <ele>287.59</ele>
        <time>2025-03-15T14:55:14.198Z</time>
      </trkpt>
      <trkpt lat="43.35575" lon="6.53248">
        <ele>287.56</ele>
        <time>2025-03-15T14:55:15.974Z</time>
      </trkpt>
      <trkpt lat="43.3558" lon="6.53248">
        <ele>287.49</ele>
        <time>2025-03-15T14:55:17.950Z</time>
      </trkpt>
      <trkpt lat="43.35585" lon="6.5325">
        <ele>287.42</ele>
        <time>2025-03-15T14:55:20.078Z</time>
      </trkpt>
      <trkpt lat="43.35588" lon="6.53255">
        <ele>287.33</ele>
        <time>2025-03-15T14:55:21.869Z</time>
      </trkpt>
      <trkpt lat="43.35593" lon="6.53266">
        <ele>287.19</ele>
        <time>2025-03-15T14:55:25.623Z</time>
      </trkpt>
      <trkpt lat="43.35597" lon="6.53271">
        <ele>287.07</ele>
        <time>2025-03-15T14:55:27.500Z</time>
      </trkpt>
      <trkpt lat="43.35605" lon="6.53285">
        <ele>286.9</ele>
        <time>2025-03-15T14:55:32.986Z</time>
      </trkpt>
      <trkpt lat="43.35611" lon="6.53295">
        <ele>286.78</ele>
        <time>2025-03-15T14:55:36.512Z</time>
      </trkpt>
      <trkpt lat="43.35614" lon="6.533">
        <ele>286.64</ele>
        <time>2025-03-15T14:55:38.156Z</time>
      </trkpt>
      <trkpt lat="43.35623" lon="6.53311">
        <ele>286.51</ele>
        <time>2025-03-15T14:55:43.056Z</time>
      </trkpt>
      <trkpt lat="43.3563" lon="6.53316">
        <ele>286.35</ele>
        <time>2025-03-15T14:55:46.009Z</time>
      </trkpt>
      <trkpt lat="43.35636" lon="6.53325">
        <ele>286.12</ele>
        <time>2025-03-15T14:55:49.401Z</time>
      </trkpt>
      <trkpt lat="43.35641" lon="6.53336">
        <ele>285.82</ele>
        <time>2025-03-15T14:55:52.985Z</time>
      </trkpt>
      <trkpt lat="43.35645" lon="6.53359">
        <ele>285.35</ele>
        <time>2025-03-15T14:55:59.533Z</time>
      </trkpt>
      <trkpt lat="43.35652" lon="6.53374">
        <ele>284.92</ele>
        <time>2025-03-15T14:56:04.309Z</time>
      </trkpt>
      <trkpt lat="43.35655" lon="6.53378">
        <ele>284.46</ele>
        <time>2025-03-15T14:56:05.879Z</time>
      </trkpt>
      <trkpt lat="43.3566" lon="6.53388">
        <ele>283.93</ele>
        <time>2025-03-15T14:56:08.912Z</time>
      </trkpt>
      <trkpt lat="43.35665" lon="6.53397">
        <ele>283.36</ele>
        <time>2025-03-15T14:56:12.092Z</time>
      </trkpt>
      <trkpt lat="43.35672" lon="6.53406">
        <ele>282.77</ele>
        <time>2025-03-15T14:56:15.452Z</time>
      </trkpt>
      <trkpt lat="43.35676" lon="6.53411">
        <ele>282.07</ele>
        <time>2025-03-15T14:56:17.344Z</time>
      </trkpt>
      <trkpt lat="43.35682" lon="6.53423">
        <ele>281.29</ele>
        <time>2025-03-15T14:56:21.207Z</time>
      </trkpt>
      <trkpt lat="43.35693" lon="6.53443">
        <ele>280.39</ele>
        <time>2025-03-15T14:56:27.673Z</time>
      </trkpt>
      <trkpt lat="43.35694" lon="6.53451">
        <ele>279.39</ele>
        <time>2025-03-15T14:56:29.886Z</time>
      </trkpt>
      <trkpt lat="43.35695" lon="6.5346">
        <ele>278.31</ele>
        <time>2025-03-15T14:56:32.159Z</time>
      </trkpt>
      <trkpt lat="43.35696" lon="6.53468">
        <ele>277.16</ele>
        <time>2025-03-15T14:56:34.351Z</time>
      </trkpt>
      <trkpt lat="43.35697" lon="6.53475">
        <ele>275.98</ele>
        <time>2025-03-15T14:56:36.054Z</time>
      </trkpt>
      <trkpt lat="43.35698" lon="6.53483">
        <ele>274.71</ele>
        <time>2025-03-15T14:56:38.228Z</time>
      </trkpt>
      <trkpt lat="43.35699" lon="6.53491">
        <ele>273.38</ele>
        <time>2025-03-15T14:56:40.617Z</time>
      </trkpt>
      <trkpt lat="43.35701" lon="6.535">
        <ele>272.01</ele>
        <time>2025-03-15T14:56:42.792Z</time>
      </trkpt>
      <trkpt lat="43.35701" lon="6.53508">
        <ele>270.59</ele>
        <time>2025-03-15T14:56:45.010Z</time>
      </trkpt>
      <trkpt lat="43.35701" lon="6.53516">
        <ele>269.15</ele>
        <time>2025-03-15T14:56:47.138Z</time>
      </trkpt>
      <trkpt lat="43.35701" lon="6.53525">
        <ele>267.7</ele>
        <time>2025-03-15T14:56:49.340Z</time>
      </trkpt>
      <trkpt lat="43.35699" lon="6.53533">
        <ele>266.18</ele>
        <time>2025-03-15T14:56:51.678Z</time>
      </trkpt>
      <trkpt lat="43.35698" lon="6.5354">
        <ele>264.69</ele>
        <time>2025-03-15T14:56:53.587Z</time>
      </trkpt>
      <trkpt lat="43.35698" lon="6.53547">
        <ele>263.21</ele>
        <time>2025-03-15T14:56:55.443Z</time>
      </trkpt>
      <trkpt lat="43.35699" lon="6.53554">
        <ele>261.75</ele>
        <time>2025-03-15T14:56:57.209Z</time>
      </trkpt>
      <trkpt lat="43.35699" lon="6.5356">
        <ele>260.3</ele>
        <time>2025-03-15T14:56:58.897Z</time>
      </trkpt>
      <trkpt lat="43.357" lon="6.53567">
        <ele>258.87</ele>
        <time>2025-03-15T14:57:00.654Z</time>
      </trkpt>
      <trkpt lat="43.35702" lon="6.53574">
        <ele>257.45</ele>
        <time>2025-03-15T14:57:02.567Z</time>
      </trkpt>
      <trkpt lat="43.35703" lon="6.53581">
        <ele>256.06</ele>
        <time>2025-03-15T14:57:04.437Z</time>
      </trkpt>
      <trkpt lat="43.35705" lon="6.53588">
        <ele>254.71</ele>
        <time>2025-03-15T14:57:06.427Z</time>
      </trkpt>
      <trkpt lat="43.35709" lon="6.53591">
        <ele>253.47</ele>
        <time>2025-03-15T14:57:07.982Z</time>
      </trkpt>
      <trkpt lat="43.35713" lon="6.53595">
        <ele>252.25</ele>
        <time>2025-03-15T14:57:09.925Z</time>
      </trkpt>
      <trkpt lat="43.35717" lon="6.536">
        <ele>251.06</ele>
        <time>2025-03-15T14:57:11.828Z</time>
      </trkpt>
      <trkpt lat="43.35722" lon="6.53604">
        <ele>249.9</ele>
        <time>2025-03-15T14:57:13.953Z</time>
      </trkpt>
      <trkpt lat="43.35728" lon="6.53608">
        <ele>248.77</ele>
        <time>2025-03-15T14:57:16.128Z</time>
      </trkpt>
      <trkpt lat="43.35733" lon="6.53611">
        <ele>247.68</ele>
        <time>2025-03-15T14:57:18.268Z</time>
      </trkpt>
      <trkpt lat="43.35738" lon="6.53615">
        <ele>246.63</ele>
        <time>2025-03-15T14:57:20.321Z</time>
      </trkpt>
      <trkpt lat="43.35743" lon="6.5362">
        <ele>245.61</ele>
        <time>2025-03-15T14:57:22.559Z</time>
      </trkpt>
      <trkpt lat="43.35748" lon="6.53626">
        <ele>244.59</ele>
        <time>2025-03-15T14:57:25.036Z</time>
      </trkpt>
      <trkpt lat="43.35754" lon="6.53631">
        <ele>243.6</ele>
        <time>2025-03-15T14:57:27.574Z</time>
      </trkpt>
      <trkpt lat="43.3576" lon="6.53636">
        <ele>242.65</ele>
        <time>2025-03-15T14:57:30.067Z</time>
      </trkpt>
      <trkpt lat="43.35767" lon="6.5364">
        <ele>241.73</ele>
        <time>2025-03-15T14:57:32.600Z</time>
      </trkpt>
      <trkpt lat="43.35773" lon="6.53645">
        <ele>240.83</ele>
        <time>2025-03-15T14:57:35.046Z</time>
      </trkpt>
      <trkpt lat="43.35779" lon="6.53649">
        <ele>239.96</ele>
        <time>2025-03-15T14:57:37.504Z</time>
      </trkpt>
      <trkpt lat="43.35785" lon="6.53653">
        <ele>239.1</ele>
        <time>2025-03-15T14:57:39.889Z</time>
      </trkpt>
      <trkpt lat="43.3579" lon="6.53658">
        <ele>238.27</ele>
        <time>2025-03-15T14:57:42.214Z</time>
      </trkpt>
      <trkpt lat="43.35796" lon="6.5366">
        <ele>237.46</ele>
        <time>2025-03-15T14:57:44.379Z</time>
      </trkpt>
      <trkpt lat="43.358" lon="6.53663">
        <ele>236.66</ele>
        <time>2025-03-15T14:57:45.940Z</time>
      </trkpt>
      <trkpt lat="43.35802" lon="6.53664">
        <ele>235.87</ele>
        <time>2025-03-15T14:57:46.931Z</time>
      </trkpt>
      <trkpt lat="43.35804" lon="6.53666">
        <ele>235.1</ele>
        <time>2025-03-15T14:57:47.742Z</time>
      </trkpt>
      <trkpt lat="43.35806" lon="6.53667">
        <ele>234.32</ele>
        <time>2025-03-15T14:57:48.551Z</time>
      </trkpt>
      <trkpt lat="43.35808" lon="6.53669">
        <ele>233.52</ele>
        <time>2025-03-15T14:57:49.327Z</time>
      </trkpt>
      <trkpt lat="43.35809" lon="6.53671">
        <ele>232.72</ele>
        <time>2025-03-15T14:57:50.102Z</time>
      </trkpt>
      <trkpt lat="43.35812" lon="6.53675">
        <ele>231.9</ele>
        <time>2025-03-15T14:57:51.335Z</time>
      </trkpt>
      <trkpt lat="43.35818" lon="6.53683">
        <ele>231.04</ele>
        <time>2025-03-15T14:57:54.555Z</time>
      </trkpt>
      <trkpt lat="43.35823" lon="6.53688">
        <ele>230.19</ele>
        <time>2025-03-15T14:57:56.486Z</time>
      </trkpt>
      <trkpt lat="43.35826" lon="6.53693">
        <ele>229.33</ele>
        <time>2025-03-15T14:57:58.439Z</time>
      </trkpt>
      <trkpt lat="43.35831" lon="6.53699">
        <ele>228.44</ele>
        <time>2025-03-15T14:58:00.678Z</time>
      </trkpt>
      <trkpt lat="43.35835" lon="6.53705">
        <ele>227.53</ele>
        <time>2025-03-15T14:58:02.920Z</time>
      </trkpt>
      <trkpt lat="43.35839" lon="6.53713">
        <ele>226.59</ele>
        <time>2025-03-15T14:58:05.416Z</time>
      </trkpt>
      <trkpt lat="43.35845" lon="6.53721">
        <ele>225.64</ele>
        <time>2025-03-15T14:58:08.484Z</time>
      </trkpt>
      <trkpt lat="43.35849" lon="6.53729">
        <ele>224.71</ele>
        <time>2025-03-15T14:58:10.960Z</time>
      </trkpt>
      <trkpt lat="43.35853" lon="6.53735">
        <ele>223.8</ele>
        <time>2025-03-15T14:58:13.042Z</time>
      </trkpt>
      <trkpt lat="43.35856" lon="6.5374">
        <ele>222.9</ele>
        <time>2025-03-15T14:58:14.885Z</time>
      </trkpt>
      <trkpt lat="43.3586" lon="6.53746">
        <ele>222</ele>
        <time>2025-03-15T14:58:16.764Z</time>
      </trkpt>
      <trkpt lat="43.35864" lon="6.5375">
        <ele>221.12</ele>
        <time>2025-03-15T14:58:18.644Z</time>
      </trkpt>
      <trkpt lat="43.35868" lon="6.53753">
        <ele>220.26</ele>
        <time>2025-03-15T14:58:20.455Z</time>
      </trkpt>
      <trkpt lat="43.35874" lon="6.53756">
        <ele>219.43</ele>
        <time>2025-03-15T14:58:22.471Z</time>
      </trkpt>
      <trkpt lat="43.35878" lon="6.53759">
        <ele>218.6</ele>
        <time>2025-03-15T14:58:24.338Z</time>
      </trkpt>
      <trkpt lat="43.35883" lon="6.53762">
        <ele>217.78</ele>
        <time>2025-03-15T14:58:26.298Z</time>
      </trkpt>
      <trkpt lat="43.35888" lon="6.53766">
        <ele>216.98</ele>
        <time>2025-03-15T14:58:28.482Z</time>
      </trkpt>
      <trkpt lat="43.35894" lon="6.53771">
        <ele>216.19</ele>
        <time>2025-03-15T14:58:30.918Z</time>
      </trkpt>
      <trkpt lat="43.359" lon="6.53775">
        <ele>215.43</ele>
        <time>2025-03-15T14:58:33.409Z</time>
      </trkpt>
      <trkpt lat="43.35906" lon="6.5378">
        <ele>214.68</ele>
        <time>2025-03-15T14:58:35.846Z</time>
      </trkpt>
      <trkpt lat="43.35912" lon="6.53786">
        <ele>213.93</ele>
        <time>2025-03-15T14:58:38.280Z</time>
      </trkpt>
      <trkpt lat="43.35917" lon="6.53791">
        <ele>213.21</ele>
        <time>2025-03-15T14:58:40.587Z</time>
      </trkpt>
      <trkpt lat="43.35922" lon="6.53795">
        <ele>212.5</ele>
        <time>2025-03-15T14:58:42.763Z</time>
      </trkpt>
      <trkpt lat="43.35927" lon="6.53798">
        <ele>211.83</ele>
        <time>2025-03-15T14:58:44.692Z</time>
      </trkpt>
      <trkpt lat="43.35932" lon="6.53801">
        <ele>211.17</ele>
        <time>2025-03-15T14:58:46.647Z</time>
      </trkpt>
      <trkpt lat="43.35937" lon="6.53804">
        <ele>210.54</ele>
        <time>2025-03-15T14:58:48.728Z</time>
      </trkpt>
      <trkpt lat="43.35943" lon="6.53809">
        <ele>209.91</ele>
        <time>2025-03-15T14:58:51.210Z</time>
      </trkpt>
      <trkpt lat="43.3595" lon="6.53813">
        <ele>209.3</ele>
        <time>2025-03-15T14:58:53.875Z</time>
      </trkpt>
      <trkpt lat="43.35958" lon="6.53815">
        <ele>208.73</ele>
        <time>2025-03-15T14:58:56.609Z</time>
      </trkpt>
      <trkpt lat="43.35965" lon="6.53816">
        <ele>208.19</ele>
        <time>2025-03-15T14:58:59.208Z</time>
      </trkpt>
      <trkpt lat="43.35972" lon="6.53818">
        <ele>207.68</ele>
        <time>2025-03-15T14:59:01.703Z</time>
      </trkpt>
      <trkpt lat="43.35978" lon="6.53822">
        <ele>207.18</ele>
        <time>2025-03-15T14:59:04.147Z</time>
      </trkpt>
      <trkpt lat="43.35984" lon="6.53826">
        <ele>206.71</ele>
        <time>2025-03-15T14:59:06.541Z</time>
      </trkpt>
      <trkpt lat="43.3599" lon="6.53829">
        <ele>206.28</ele>
        <time>2025-03-15T14:59:08.843Z</time>
      </trkpt>
      <trkpt lat="43.35996" lon="6.53831">
        <ele>205.89</ele>
        <time>2025-03-15T14:59:11.174Z</time>
      </trkpt>
      <trkpt lat="43.36002" lon="6.53835">
        <ele>205.53</ele>
        <time>2025-03-15T14:59:13.443Z</time>
      </trkpt>
      <trkpt lat="43.36005" lon="6.5384">
        <ele>205.2</ele>
        <time>2025-03-15T14:59:15.422Z</time>
      </trkpt>
      <trkpt lat="43.36006" lon="6.53846">
        <ele>204.91</ele>
        <time>2025-03-15T14:59:17.066Z</time>
      </trkpt>
      <trkpt lat="43.36006" lon="6.5385">
        <ele>204.68</ele>
        <time>2025-03-15T14:59:18.120Z</time>
      </trkpt>
      <trkpt lat="43.36004" lon="6.53852">
        <ele>204.49</ele>
        <time>2025-03-15T14:59:18.803Z</time>
      </trkpt>
      <trkpt lat="43.36002" lon="6.53851">
        <ele>204.36</ele>
        <time>2025-03-15T14:59:19.672Z</time>
      </trkpt>
      <trkpt lat="43.35999" lon="6.5385">
        <ele>204.25</ele>
        <time>2025-03-15T14:59:20.570Z</time>
      </trkpt>
      <trkpt lat="43.35997" lon="6.53849">
        <ele>204.19</ele>
        <time>2025-03-15T14:59:21.344Z</time>
      </trkpt>
      <trkpt lat="43.35996" lon="6.53848">
        <ele>204.16</ele>
        <time>2025-03-15T14:59:22.133Z</time>
      </trkpt>
      <trkpt lat="43.35989" lon="6.53845">
        <ele>204.17</ele>
        <time>2025-03-15T14:59:24.918Z</time>
      </trkpt>
      <trkpt lat="43.35989" lon="6.53845">
        <ele>204.2</ele>
        <time>2025-03-15T14:59:25.251Z</time>
      </trkpt>
      <trkpt lat="43.35987" lon="6.53845">
        <ele>204.26</ele>
        <time>2025-03-15T14:59:25.942Z</time>
      </trkpt>
      <trkpt lat="43.35986" lon="6.53844">
        <ele>204.35</ele>
        <time>2025-03-15T14:59:26.576Z</time>
      </trkpt>
      <trkpt lat="43.35985" lon="6.53844">
        <ele>204.47</ele>
        <time>2025-03-15T14:59:27.240Z</time>
      </trkpt>
      <trkpt lat="43.35979" lon="6.53846">
        <ele>204.62</ele>
        <time>2025-03-15T14:59:29.754Z</time>
      </trkpt>
      <trkpt lat="43.35972" lon="6.53856">
        <ele>204.8</ele>
        <time>2025-03-15T14:59:34.354Z</time>
      </trkpt>
      <trkpt lat="43.35968" lon="6.5386">
        <ele>205</ele>
        <time>2025-03-15T14:59:36.597Z</time>
      </trkpt>
      <trkpt lat="43.35961" lon="6.53865">
        <ele>205.23</ele>
        <time>2025-03-15T14:59:40.023Z</time>
      </trkpt>
      <trkpt lat="43.35951" lon="6.53865">
        <ele>205.49</ele>
        <time>2025-03-15T14:59:44.540Z</time>
      </trkpt>
      <trkpt lat="43.35946" lon="6.53866">
        <ele>205.77</ele>
        <time>2025-03-15T14:59:46.986Z</time>
      </trkpt>
      <trkpt lat="43.35941" lon="6.53866">
        <ele>206.07</ele>
        <time>2025-03-15T14:59:49.541Z</time>
      </trkpt>
      <trkpt lat="43.35938" lon="6.53866">
        <ele>206.38</ele>
        <time>2025-03-15T14:59:51.135Z</time>
      </trkpt>
      <trkpt lat="43.35933" lon="6.53866">
        <ele>206.71</ele>
        <time>2025-03-15T14:59:53.801Z</time>
      </trkpt>
      <trkpt lat="43.3593" lon="6.53866">
        <ele>207.06</ele>
        <time>2025-03-15T14:59:55.535Z</time>
      </trkpt>
      <trkpt lat="43.35928" lon="6.53866">
        <ele>207.42</ele>
        <time>2025-03-15T14:59:57.235Z</time>
      </trkpt>
      <trkpt lat="43.35925" lon="6.53866">
        <ele>207.8</ele>
        <time>2025-03-15T14:59:58.978Z</time>
      </trkpt>
      <trkpt lat="43.35923" lon="6.53866">
        <ele>208.19</ele>
        <time>2025-03-15T15:00:00.764Z</time>
      </trkpt>
      <trkpt lat="43.35915" lon="6.53864">
        <ele>208.6</ele>
        <time>2025-03-15T15:00:04.606Z</time>
      </trkpt>
      <trkpt lat="43.3591" lon="6.53862">
        <ele>209.03</ele>
        <time>2025-03-15T15:00:07.432Z</time>
      </trkpt>
      <trkpt lat="43.35907" lon="6.5386">
        <ele>209.46</ele>
        <time>2025-03-15T15:00:09.365Z</time>
      </trkpt>
      <trkpt lat="43.35905" lon="6.53858">
        <ele>209.91</ele>
        <time>2025-03-15T15:00:11.396Z</time>
      </trkpt>
      <trkpt lat="43.35902" lon="6.53856">
        <ele>210.37</ele>
        <time>2025-03-15T15:00:13.450Z</time>
      </trkpt>
      <trkpt lat="43.35899" lon="6.53854">
        <ele>210.83</ele>
        <time>2025-03-15T15:00:15.542Z</time>
      </trkpt>
      <trkpt lat="43.35897" lon="6.53852">
        <ele>211.3</ele>
        <time>2025-03-15T15:00:17.624Z</time>
      </trkpt>
      <trkpt lat="43.35887" lon="6.53844">
        <ele>211.8</ele>
        <time>2025-03-15T15:00:23.195Z</time>
      </trkpt>
      <trkpt lat="43.35873" lon="6.53833">
        <ele>212.34</ele>
        <time>2025-03-15T15:00:30.424Z</time>
      </trkpt>
      <trkpt lat="43.35871" lon="6.53831">
        <ele>212.82</ele>
        <time>2025-03-15T15:00:32.471Z</time>
      </trkpt>
      <trkpt lat="43.35868" lon="6.53829">
        <ele>213.3</ele>
        <time>2025-03-15T15:00:34.531Z</time>
      </trkpt>
      <trkpt lat="43.35866" lon="6.53827">
        <ele>213.77</ele>
        <time>2025-03-15T15:00:36.559Z</time>
      </trkpt>
      <trkpt lat="43.35864" lon="6.53824">
        <ele>214.24</ele>
        <time>2025-03-15T15:00:38.561Z</time>
      </trkpt>
      <trkpt lat="43.35859" lon="6.53816">
        <ele>214.73</ele>
        <time>2025-03-15T15:00:42.684Z</time>
      </trkpt>
      <trkpt lat="43.35845" lon="6.53808">
        <ele>215.24</ele>
        <time>2025-03-15T15:00:49.593Z</time>
      </trkpt>
      <trkpt lat="43.35842" lon="6.53807">
        <ele>215.69</ele>
        <time>2025-03-15T15:00:51.575Z</time>
      </trkpt>
      <trkpt lat="43.35839" lon="6.53806">
        <ele>216.14</ele>
        <time>2025-03-15T15:00:53.553Z</time>
      </trkpt>
      <trkpt lat="43.35837" lon="6.53805">
        <ele>216.57</ele>
        <time>2025-03-15T15:00:55.440Z</time>
      </trkpt>
      <trkpt lat="43.35834" lon="6.53804">
        <ele>217</ele>
        <time>2025-03-15T15:00:57.331Z</time>
      </trkpt>
      <trkpt lat="43.35832" lon="6.53804">
        <ele>217.41</ele>
        <time>2025-03-15T15:00:59.128Z</time>
      </trkpt>
      <trkpt lat="43.35829" lon="6.53804">
        <ele>217.81</ele>
        <time>2025-03-15T15:01:00.946Z</time>
      </trkpt>
      <trkpt lat="43.35818" lon="6.53805">
        <ele>218.24</ele>
        <time>2025-03-15T15:01:05.975Z</time>
      </trkpt>
      <trkpt lat="43.35816" lon="6.53805">
        <ele>218.62</ele>
        <time>2025-03-15T15:01:07.634Z</time>
      </trkpt>
      <trkpt lat="43.35814" lon="6.53805">
        <ele>218.98</ele>
        <time>2025-03-15T15:01:09.158Z</time>
      </trkpt>
      <trkpt lat="43.35812" lon="6.53806">
        <ele>219.33</ele>
        <time>2025-03-15T15:01:10.648Z</time>
      </trkpt>
      <trkpt lat="43.3581" lon="6.53808">
        <ele>219.68</ele>
        <time>2025-03-15T15:01:12.233Z</time>
      </trkpt>
      <trkpt lat="43.35806" lon="6.53811">
        <ele>220.02</ele>
        <time>2025-03-15T15:01:14.790Z</time>
      </trkpt>
      <trkpt lat="43.35804" lon="6.53813">
        <ele>220.34</ele>
        <time>2025-03-15T15:01:16.298Z</time>
      </trkpt>
      <trkpt lat="43.35802" lon="6.53813">
        <ele>220.65</ele>
        <time>2025-03-15T15:01:17.656Z</time>
      </trkpt>
      <trkpt lat="43.358" lon="6.53814">
        <ele>220.96</ele>
        <time>2025-03-15T15:01:19.028Z</time>
      </trkpt>
      <trkpt lat="43.35799" lon="6.53815">
        <ele>221.26</ele>
        <time>2025-03-15T15:01:20.345Z</time>
      </trkpt>
      <trkpt lat="43.35797" lon="6.53816">
        <ele>221.56</ele>
        <time>2025-03-15T15:01:21.666Z</time>
      </trkpt>
      <trkpt lat="43.35795" lon="6.53817">
        <ele>221.85</ele>
        <time>2025-03-15T15:01:23.009Z</time>
      </trkpt>
      <trkpt lat="43.35793" lon="6.53818">
        <ele>222.14</ele>
        <time>2025-03-15T15:01:24.303Z</time>
      </trkpt>
      <trkpt lat="43.35792" lon="6.53818">
        <ele>222.43</ele>
        <time>2025-03-15T15:01:25.600Z</time>
      </trkpt>
      <trkpt lat="43.35789" lon="6.53817">
        <ele>222.73</ele>
        <time>2025-03-15T15:01:27.012Z</time>
      </trkpt>
      <trkpt lat="43.35787" lon="6.53816">
        <ele>223.02</ele>
        <time>2025-03-15T15:01:28.404Z</time>
      </trkpt>
      <trkpt lat="43.35786" lon="6.53815">
        <ele>223.32</ele>
        <time>2025-03-15T15:01:29.817Z</time>
      </trkpt>
      <trkpt lat="43.35784" lon="6.53814">
        <ele>223.62</ele>
        <time>2025-03-15T15:01:31.206Z</time>
      </trkpt>
      <trkpt lat="43.35782" lon="6.53812">
        <ele>223.93</ele>
        <time>2025-03-15T15:01:32.658Z</time>
      </trkpt>
      <trkpt lat="43.35772" lon="6.53812">
        <ele>224.31</ele>
        <time>2025-03-15T15:01:37.133Z</time>
      </trkpt>
      <trkpt lat="43.3577" lon="6.53813">
        <ele>224.65</ele>
        <time>2025-03-15T15:01:38.611Z</time>
      </trkpt>
      <trkpt lat="43.35769" lon="6.53814">
        <ele>224.98</ele>
        <time>2025-03-15T15:01:39.976Z</time>
      </trkpt>
      <trkpt lat="43.35768" lon="6.53816">
        <ele>225.32</ele>
        <time>2025-03-15T15:01:41.376Z</time>
      </trkpt>
      <trkpt lat="43.35767" lon="6.53818">
        <ele>225.67</ele>
        <time>2025-03-15T15:01:42.799Z</time>
      </trkpt>
      <trkpt lat="43.35766" lon="6.5382">
        <ele>226.03</ele>
        <time>2025-03-15T15:01:44.282Z</time>
      </trkpt>
      <trkpt lat="43.35766" lon="6.53822">
        <ele>226.4</ele>
        <time>2025-03-15T15:01:45.785Z</time>
      </trkpt>
      <trkpt lat="43.35766" lon="6.53825">
        <ele>226.78</ele>
        <time>2025-03-15T15:01:47.328Z</time>
      </trkpt>
      <trkpt lat="43.35765" lon="6.53827">
        <ele>227.16</ele>
        <time>2025-03-15T15:01:48.864Z</time>
      </trkpt>
      <trkpt lat="43.35765" lon="6.53829">
        <ele>227.56</ele>
        <time>2025-03-15T15:01:50.480Z</time>
      </trkpt>
      <trkpt lat="43.35764" lon="6.53831">
        <ele>227.98</ele>
        <time>2025-03-15T15:01:52.177Z</time>
      </trkpt>
      <trkpt lat="43.35764" lon="6.53834">
        <ele>228.4</ele>
        <time>2025-03-15T15:01:53.877Z</time>
      </trkpt>
      <trkpt lat="43.35763" lon="6.53836">
        <ele>228.84</ele>
        <time>2025-03-15T15:01:55.655Z</time>
      </trkpt>
      <trkpt lat="43.35762" lon="6.53838">
        <ele>229.3</ele>
        <time>2025-03-15T15:01:57.513Z</time>
      </trkpt>
      <trkpt lat="43.35759" lon="6.53847">
        <ele>229.8</ele>
        <time>2025-03-15T15:02:01.104Z</time>
      </trkpt>
      <trkpt lat="43.35758" lon="6.53848">
        <ele>230.28</ele>
        <time>2025-03-15T15:02:03.105Z</time>
      </trkpt>
      <trkpt lat="43.35757" lon="6.5385">
        <ele>230.79</ele>
        <time>2025-03-15T15:02:05.223Z</time>
      </trkpt>
      <trkpt lat="43.35757" lon="6.53853">
        <ele>231.31</ele>
        <time>2025-03-15T15:02:07.328Z</time>
      </trkpt>
      <trkpt lat="43.35756" lon="6.53855">
        <ele>231.83</ele>
        <time>2025-03-15T15:02:09.466Z</time>
      </trkpt>
      <trkpt lat="43.35755" lon="6.5386">
        <ele>232.39</ele>
        <time>2025-03-15T15:02:11.980Z</time>
      </trkpt>
      <trkpt lat="43.35754" lon="6.53862">
        <ele>232.94</ele>
        <time>2025-03-15T15:02:14.247Z</time>
      </trkpt>
      <trkpt lat="43.35753" lon="6.53865">
        <ele>233.5</ele>
        <time>2025-03-15T15:02:16.553Z</time>
      </trkpt>
      <trkpt lat="43.35753" lon="6.53867">
        <ele>234.05</ele>
        <time>2025-03-15T15:02:18.853Z</time>
      </trkpt>
      <trkpt lat="43.35752" lon="6.53869">
        <ele>234.61</ele>
        <time>2025-03-15T15:02:21.196Z</time>
      </trkpt>
      <trkpt lat="43.3575" lon="6.53876">
        <ele>235.19</ele>
        <time>2025-03-15T15:02:24.408Z</time>
      </trkpt>
      <trkpt lat="43.35749" lon="6.53878">
        <ele>235.75</ele>
        <time>2025-03-15T15:02:26.808Z</time>
      </trkpt>
      <trkpt lat="43.35748" lon="6.5388">
        <ele>236.31</ele>
        <time>2025-03-15T15:02:29.148Z</time>
      </trkpt>
      <trkpt lat="43.35748" lon="6.53882">
        <ele>236.88</ele>
        <time>2025-03-15T15:02:31.625Z</time>
      </trkpt>
      <trkpt lat="43.35745" lon="6.53889">
        <ele>237.48</ele>
        <time>2025-03-15T15:02:34.824Z</time>
      </trkpt>
      <trkpt lat="43.35744" lon="6.5389">
        <ele>238.05</ele>
        <time>2025-03-15T15:02:37.424Z</time>
      </trkpt>
      <trkpt lat="43.35743" lon="6.53892">
        <ele>238.63</ele>
        <time>2025-03-15T15:02:39.955Z</time>
      </trkpt>
      <trkpt lat="43.35741" lon="6.53893">
        <ele>239.2</ele>
        <time>2025-03-15T15:02:42.491Z</time>
      </trkpt>
      <trkpt lat="43.3574" lon="6.53895">
        <ele>239.77</ele>
        <time>2025-03-15T15:02:44.953Z</time>
      </trkpt>
      <trkpt lat="43.35738" lon="6.539">
        <ele>240.36</ele>
        <time>2025-03-15T15:02:47.868Z</time>
      </trkpt>
      <trkpt lat="43.35737" lon="6.53902">
        <ele>240.92</ele>
        <time>2025-03-15T15:02:50.229Z</time>
      </trkpt>
      <trkpt lat="43.35736" lon="6.53905">
        <ele>241.47</ele>
        <time>2025-03-15T15:02:52.462Z</time>
      </trkpt>
      <trkpt lat="43.35735" lon="6.53907">
        <ele>242.01</ele>
        <time>2025-03-15T15:02:54.656Z</time>
      </trkpt>
      <trkpt lat="43.35734" lon="6.53909">
        <ele>242.54</ele>
        <time>2025-03-15T15:02:56.822Z</time>
      </trkpt>
      <trkpt lat="43.3573" lon="6.53915">
        <ele>243.09</ele>
        <time>2025-03-15T15:02:59.854Z</time>
      </trkpt>
      <trkpt lat="43.35729" lon="6.53917">
        <ele>243.59</ele>
        <time>2025-03-15T15:03:01.906Z</time>
      </trkpt>
      <trkpt lat="43.35728" lon="6.53918">
        <ele>244.09</ele>
        <time>2025-03-15T15:03:03.981Z</time>
      </trkpt>
      <trkpt lat="43.35728" lon="6.5392">
        <ele>244.58</ele>
        <time>2025-03-15T15:03:05.980Z</time>
      </trkpt>
      <trkpt lat="43.35726" lon="6.53923">
        <ele>245.05</ele>
        <time>2025-03-15T15:03:07.882Z</time>
      </trkpt>
      <trkpt lat="43.35725" lon="6.53925">
        <ele>245.52</ele>
        <time>2025-03-15T15:03:09.782Z</time>
      </trkpt>
      <trkpt lat="43.35723" lon="6.5393">
        <ele>245.99</ele>
        <time>2025-03-15T15:03:12.239Z</time>
      </trkpt>
      <trkpt lat="43.35722" lon="6.53932">
        <ele>246.42</ele>
        <time>2025-03-15T15:03:13.998Z</time>
      </trkpt>
      <trkpt lat="43.35722" lon="6.53935">
        <ele>246.84</ele>
        <time>2025-03-15T15:03:15.719Z</time>
      </trkpt>
      <trkpt lat="43.35721" lon="6.53938">
        <ele>247.24</ele>
        <time>2025-03-15T15:03:17.358Z</time>
      </trkpt>
      <trkpt lat="43.3572" lon="6.53942">
        <ele>247.65</ele>
        <time>2025-03-15T15:03:19.489Z</time>
      </trkpt>
      <trkpt lat="43.35719" lon="6.53944">
        <ele>248.03</ele>
        <time>2025-03-15T15:03:21.045Z</time>
      </trkpt>
      <trkpt lat="43.35719" lon="6.53947">
        <ele>248.41</ele>
        <time>2025-03-15T15:03:22.638Z</time>
      </trkpt>
      <trkpt lat="43.35718" lon="6.5395">
        <ele>248.78</ele>
        <time>2025-03-15T15:03:24.192Z</time>
      </trkpt>
      <trkpt lat="43.35717" lon="6.53952">
        <ele>249.15</ele>
        <time>2025-03-15T15:03:25.710Z</time>
      </trkpt>
      <trkpt lat="43.35717" lon="6.53954">
        <ele>249.51</ele>
        <time>2025-03-15T15:03:27.201Z</time>
      </trkpt>
      <trkpt lat="43.35716" lon="6.53956">
        <ele>249.86</ele>
        <time>2025-03-15T15:03:28.629Z</time>
      </trkpt>
      <trkpt lat="43.35715" lon="6.5396">
        <ele>250.23</ele>
        <time>2025-03-15T15:03:30.596Z</time>
      </trkpt>
      <trkpt lat="43.35714" lon="6.53964">
        <ele>250.58</ele>
        <time>2025-03-15T15:03:32.410Z</time>
      </trkpt>
      <trkpt lat="43.35713" lon="6.53966">
        <ele>250.92</ele>
        <time>2025-03-15T15:03:33.824Z</time>
      </trkpt>
      <trkpt lat="43.35712" lon="6.53969">
        <ele>251.26</ele>
        <time>2025-03-15T15:03:35.237Z</time>
      </trkpt>
      <trkpt lat="43.35712" lon="6.53971">
        <ele>251.58</ele>
        <time>2025-03-15T15:03:36.572Z</time>
      </trkpt>
      <trkpt lat="43.35712" lon="6.53973">
        <ele>251.9</ele>
        <time>2025-03-15T15:03:37.881Z</time>
      </trkpt>
      <trkpt lat="43.35711" lon="6.53975">
        <ele>252.22</ele>
        <time>2025-03-15T15:03:39.203Z</time>
      </trkpt>
      <trkpt lat="43.35711" lon="6.53977">
        <ele>252.55</ele>
        <time>2025-03-15T15:03:40.576Z</time>
      </trkpt>
      <trkpt lat="43.3571" lon="6.53979">
        <ele>252.89</ele>
        <time>2025-03-15T15:03:41.981Z</time>
      </trkpt>
      <trkpt lat="43.3571" lon="6.53982">
        <ele>253.21</ele>
        <time>2025-03-15T15:03:43.328Z</time>
      </trkpt>
      <trkpt lat="43.35709" lon="6.53984">
        <ele>253.54</ele>
        <time>2025-03-15T15:03:44.683Z</time>
      </trkpt>
      <trkpt lat="43.35708" lon="6.53986">
        <ele>253.86</ele>
        <time>2025-03-15T15:03:46.018Z</time>
      </trkpt>
      <trkpt lat="43.35708" lon="6.53988">
        <ele>254.2</ele>
        <time>2025-03-15T15:03:47.451Z</time>
      </trkpt>
      <trkpt lat="43.35707" lon="6.53991">
        <ele>254.53</ele>
        <time>2025-03-15T15:03:48.847Z</time>
      </trkpt>
      <trkpt lat="43.35707" lon="6.53993">
        <ele>254.86</ele>
        <time>2025-03-15T15:03:50.246Z</time>
      </trkpt>
      <trkpt lat="43.35706" lon="6.53995">
        <ele>255.19</ele>
        <time>2025-03-15T15:03:51.637Z</time>
      </trkpt>
      <trkpt lat="43.35706" lon="6.53998">
        <ele>255.51</ele>
        <time>2025-03-15T15:03:53.043Z</time>
      </trkpt>
      <trkpt lat="43.35703" lon="6.54008">
        <ele>255.91</ele>
        <time>2025-03-15T15:03:56.776Z</time>
      </trkpt>
      <trkpt lat="43.35702" lon="6.5401">
        <ele>256.25</ele>
        <time>2025-03-15T15:03:58.261Z</time>
      </trkpt>
      <trkpt lat="43.35702" lon="6.54013">
        <ele>256.6</ele>
        <time>2025-03-15T15:03:59.767Z</time>
      </trkpt>
      <trkpt lat="43.35701" lon="6.54016">
        <ele>256.93</ele>
        <time>2025-03-15T15:04:01.220Z</time>
      </trkpt>
      <trkpt lat="43.357" lon="6.54018">
        <ele>257.25</ele>
        <time>2025-03-15T15:04:02.564Z</time>
      </trkpt>
      <trkpt lat="43.35698" lon="6.54022">
        <ele>257.6</ele>
        <time>2025-03-15T15:04:04.677Z</time>
      </trkpt>
      <trkpt lat="43.35698" lon="6.54025">
        <ele>257.91</ele>
        <time>2025-03-15T15:04:05.977Z</time>
      </trkpt>
      <trkpt lat="43.35698" lon="6.54027">
        <ele>258.22</ele>
        <time>2025-03-15T15:04:07.298Z</time>
      </trkpt>
      <trkpt lat="43.35698" lon="6.5403">
        <ele>258.54</ele>
        <time>2025-03-15T15:04:08.762Z</time>
      </trkpt>
      <trkpt lat="43.35697" lon="6.54032">
        <ele>258.87</ele>
        <time>2025-03-15T15:04:10.237Z</time>
      </trkpt>
      <trkpt lat="43.35696" lon="6.54041">
        <ele>259.21</ele>
        <time>2025-03-15T15:04:13.346Z</time>
      </trkpt>
      <trkpt lat="43.35695" lon="6.54047">
        <ele>259.52</ele>
        <time>2025-03-15T15:04:15.521Z</time>
      </trkpt>
      <trkpt lat="43.35695" lon="6.54049">
        <ele>259.82</ele>
        <time>2025-03-15T15:04:16.893Z</time>
      </trkpt>
      <trkpt lat="43.35696" lon="6.54052">
        <ele>260.12</ele>
        <time>2025-03-15T15:04:18.265Z</time>
      </trkpt>
      <trkpt lat="43.35696" lon="6.54055">
        <ele>260.41</ele>
        <time>2025-03-15T15:04:19.703Z</time>
      </trkpt>
      <trkpt lat="43.35695" lon="6.54058">
        <ele>260.72</ele>
        <time>2025-03-15T15:04:21.175Z</time>
      </trkpt>
      <trkpt lat="43.35695" lon="6.54064">
        <ele>261.04</ele>
        <time>2025-03-15T15:04:23.427Z</time>
      </trkpt>
      <trkpt lat="43.35693" lon="6.54075">
        <ele>261.36</ele>
        <time>2025-03-15T15:04:27.091Z</time>
      </trkpt>
      <trkpt lat="43.35693" lon="6.54077">
        <ele>261.65</ele>
        <time>2025-03-15T15:04:28.419Z</time>
      </trkpt>
      <trkpt lat="43.35692" lon="6.5408">
        <ele>261.95</ele>
        <time>2025-03-15T15:04:29.761Z</time>
      </trkpt>
      <trkpt lat="43.35692" lon="6.54082">
        <ele>262.24</ele>
        <time>2025-03-15T15:04:31.079Z</time>
      </trkpt>
      <trkpt lat="43.35691" lon="6.54085">
        <ele>262.54</ele>
        <time>2025-03-15T15:04:32.407Z</time>
      </trkpt>
      <trkpt lat="43.3569" lon="6.54093">
        <ele>262.85</ele>
        <time>2025-03-15T15:04:35.322Z</time>
      </trkpt>
      <trkpt lat="43.35696" lon="6.54114">
        <ele>263.14</ele>
        <time>2025-03-15T15:04:42.475Z</time>
      </trkpt>
      <trkpt lat="43.35697" lon="6.54117">
        <ele>263.44</ele>
        <time>2025-03-15T15:04:44.073Z</time>
      </trkpt>
      <trkpt lat="43.35698" lon="6.54121">
        <ele>263.74</ele>
        <time>2025-03-15T15:04:45.686Z</time>
      </trkpt>
      <trkpt lat="43.357" lon="6.54123">
        <ele>264.05</ele>
        <time>2025-03-15T15:04:47.218Z</time>
      </trkpt>
      <trkpt lat="43.35701" lon="6.54126">
        <ele>264.36</ele>
        <time>2025-03-15T15:04:48.710Z</time>
      </trkpt>
      <trkpt lat="43.35704" lon="6.54136">
        <ele>264.7</ele>
        <time>2025-03-15T15:04:52.269Z</time>
      </trkpt>
      <trkpt lat="43.35712" lon="6.54159">
        <ele>265.06</ele>
        <time>2025-03-15T15:05:00.341Z</time>
      </trkpt>
      <trkpt lat="43.35712" lon="6.54162">
        <ele>265.4</ele>
        <time>2025-03-15T15:05:01.929Z</time>
      </trkpt>
      <trkpt lat="43.35713" lon="6.54166">
        <ele>265.74</ele>
        <time>2025-03-15T15:05:03.722Z</time>
      </trkpt>
      <trkpt lat="43.35714" lon="6.5417">
        <ele>266.09</ele>
        <time>2025-03-15T15:05:05.495Z</time>
      </trkpt>
      <trkpt lat="43.35714" lon="6.54173">
        <ele>266.45</ele>
        <time>2025-03-15T15:05:07.179Z</time>
      </trkpt>
      <trkpt lat="43.35714" lon="6.54177">
        <ele>266.83</ele>
        <time>2025-03-15T15:05:08.898Z</time>
      </trkpt>
      <trkpt lat="43.35713" lon="6.54197">
        <ele>267.27</ele>
        <time>2025-03-15T15:05:15.545Z</time>
      </trkpt>
      <trkpt lat="43.35712" lon="6.542">
        <ele>267.66</ele>
        <time>2025-03-15T15:05:17.217Z</time>
      </trkpt>
      <trkpt lat="43.35711" lon="6.54202">
        <ele>268.06</ele>
        <time>2025-03-15T15:05:18.905Z</time>
      </trkpt>
      <trkpt lat="43.3571" lon="6.54205">
        <ele>268.47</ele>
        <time>2025-03-15T15:05:20.612Z</time>
      </trkpt>
      <trkpt lat="43.35708" lon="6.54214">
        <ele>268.92</ele>
        <time>2025-03-15T15:05:24.184Z</time>
      </trkpt>
      <trkpt lat="43.35708" lon="6.54217">
        <ele>269.34</ele>
        <time>2025-03-15T15:05:25.929Z</time>
      </trkpt>
      <trkpt lat="43.35708" lon="6.5422">
        <ele>269.77</ele>
        <time>2025-03-15T15:05:27.681Z</time>
      </trkpt>
      <trkpt lat="43.35707" lon="6.54223">
        <ele>270.22</ele>
        <time>2025-03-15T15:05:29.519Z</time>
      </trkpt>
      <trkpt lat="43.35706" lon="6.54225">
        <ele>270.66</ele>
        <time>2025-03-15T15:05:31.307Z</time>
      </trkpt>
      <trkpt lat="43.35706" lon="6.54228">
        <ele>271.11</ele>
        <time>2025-03-15T15:05:33.133Z</time>
      </trkpt>
      <trkpt lat="43.35705" lon="6.54231">
        <ele>271.56</ele>
        <time>2025-03-15T15:05:34.960Z</time>
      </trkpt>
      <trkpt lat="43.35705" lon="6.54233">
        <ele>272.02</ele>
        <time>2025-03-15T15:05:36.823Z</time>
      </trkpt>
      <trkpt lat="43.35704" lon="6.54236">
        <ele>272.49</ele>
        <time>2025-03-15T15:05:38.725Z</time>
      </trkpt>
      <trkpt lat="43.35703" lon="6.54238">
        <ele>272.98</ele>
        <time>2025-03-15T15:05:40.711Z</time>
      </trkpt>
      <trkpt lat="43.35703" lon="6.54241">
        <ele>273.47</ele>
        <time>2025-03-15T15:05:42.690Z</time>
      </trkpt>
      <trkpt lat="43.35701" lon="6.54243">
        <ele>273.97</ele>
        <time>2025-03-15T15:05:44.713Z</time>
      </trkpt>
      <trkpt lat="43.357" lon="6.54245">
        <ele>274.48</ele>
        <time>2025-03-15T15:05:46.822Z</time>
      </trkpt>
      <trkpt lat="43.35699" lon="6.54247">
        <ele>275</ele>
        <time>2025-03-15T15:05:48.926Z</time>
      </trkpt>
      <trkpt lat="43.35698" lon="6.5425">
        <ele>275.52</ele>
        <time>2025-03-15T15:05:51.029Z</time>
      </trkpt>
      <trkpt lat="43.35696" lon="6.54251">
        <ele>276.04</ele>
        <time>2025-03-15T15:05:53.138Z</time>
      </trkpt>
      <trkpt lat="43.35695" lon="6.54253">
        <ele>276.56</ele>
        <time>2025-03-15T15:05:55.253Z</time>
      </trkpt>
      <trkpt lat="43.35693" lon="6.54254">
        <ele>277.08</ele>
        <time>2025-03-15T15:05:57.383Z</time>
      </trkpt>
      <trkpt lat="43.35692" lon="6.54256">
        <ele>277.59</ele>
        <time>2025-03-15T15:05:59.471Z</time>
      </trkpt>
      <trkpt lat="43.35689" lon="6.54259">
        <ele>278.12</ele>
        <time>2025-03-15T15:06:01.904Z</time>
      </trkpt>
      <trkpt lat="43.35688" lon="6.5426">
        <ele>278.64</ele>
        <time>2025-03-15T15:06:04.098Z</time>
      </trkpt>
      <trkpt lat="43.35686" lon="6.54262">
        <ele>279.15</ele>
        <time>2025-03-15T15:06:06.162Z</time>
      </trkpt>
      <trkpt lat="43.35685" lon="6.54264">
        <ele>279.65</ele>
        <time>2025-03-15T15:06:08.202Z</time>
      </trkpt>
      <trkpt lat="43.35683" lon="6.54265">
        <ele>280.15</ele>
        <time>2025-03-15T15:06:10.223Z</time>
      </trkpt>
      <trkpt lat="43.35681" lon="6.54267">
        <ele>280.64</ele>
        <time>2025-03-15T15:06:12.203Z</time>
      </trkpt>
      <trkpt lat="43.35679" lon="6.54267">
        <ele>281.13</ele>
        <time>2025-03-15T15:06:14.184Z</time>
      </trkpt>
      <trkpt lat="43.35678" lon="6.54268">
        <ele>281.6</ele>
        <time>2025-03-15T15:06:16.083Z</time>
      </trkpt>
      <trkpt lat="43.35676" lon="6.5427">
        <ele>282.05</ele>
        <time>2025-03-15T15:06:17.901Z</time>
      </trkpt>
      <trkpt lat="43.35674" lon="6.54272">
        <ele>282.5</ele>
        <time>2025-03-15T15:06:19.855Z</time>
      </trkpt>
      <trkpt lat="43.35673" lon="6.54273">
        <ele>282.93</ele>
        <time>2025-03-15T15:06:21.622Z</time>
      </trkpt>
      <trkpt lat="43.35672" lon="6.54274">
        <ele>283.34</ele>
        <time>2025-03-15T15:06:23.298Z</time>
      </trkpt>
      <trkpt lat="43.3567" lon="6.54276">
        <ele>283.73</ele>
        <time>2025-03-15T15:06:24.874Z</time>
      </trkpt>
      <trkpt lat="43.35669" lon="6.54277">
        <ele>284.11</ele>
        <time>2025-03-15T15:06:26.421Z</time>
      </trkpt>
      <trkpt lat="43.35667" lon="6.54279">
        <ele>284.48</ele>
        <time>2025-03-15T15:06:28.302Z</time>
      </trkpt>
      <trkpt lat="43.35665" lon="6.54281">
        <ele>284.82</ele>
        <time>2025-03-15T15:06:29.714Z</time>
      </trkpt>
      <trkpt lat="43.35664" lon="6.54282">
        <ele>285.13</ele>
        <time>2025-03-15T15:06:31.077Z</time>
      </trkpt>
      <trkpt lat="43.35662" lon="6.54284">
        <ele>285.43</ele>
        <time>2025-03-15T15:06:32.423Z</time>
      </trkpt>
      <trkpt lat="43.35661" lon="6.54286">
        <ele>285.69</ele>
        <time>2025-03-15T15:06:33.634Z</time>
      </trkpt>
      <trkpt lat="43.3566" lon="6.54288">
        <ele>285.94</ele>
        <time>2025-03-15T15:06:34.845Z</time>
      </trkpt>
      <trkpt lat="43.35656" lon="6.54297">
        <ele>286.2</ele>
        <time>2025-03-15T15:06:38.488Z</time>
      </trkpt>
      <trkpt lat="43.35655" lon="6.54299">
        <ele>286.39</ele>
        <time>2025-03-15T15:06:39.477Z</time>
      </trkpt>
      <trkpt lat="43.35655" lon="6.54302">
        <ele>286.56</ele>
        <time>2025-03-15T15:06:40.402Z</time>
      </trkpt>
      <trkpt lat="43.35655" lon="6.54304">
        <ele>286.7</ele>
        <time>2025-03-15T15:06:41.334Z</time>
      </trkpt>
      <trkpt lat="43.35655" lon="6.54306">
        <ele>286.82</ele>
        <time>2025-03-15T15:06:42.180Z</time>
      </trkpt>
      <trkpt lat="43.35655" lon="6.54314">
        <ele>286.92</ele>
        <time>2025-03-15T15:06:44.807Z</time>
      </trkpt>
      <trkpt lat="43.35656" lon="6.54317">
        <ele>287.01</ele>
        <time>2025-03-15T15:06:45.724Z</time>
      </trkpt>
      <trkpt lat="43.35656" lon="6.5432">
        <ele>287.08</ele>
        <time>2025-03-15T15:06:46.673Z</time>
      </trkpt>
      <trkpt lat="43.35656" lon="6.54323">
        <ele>287.13</ele>
        <time>2025-03-15T15:06:47.605Z</time>
      </trkpt>
      <trkpt lat="43.35657" lon="6.54325">
        <ele>287.17</ele>
        <time>2025-03-15T15:06:48.251Z</time>
      </trkpt>
      <trkpt lat="43.35657" lon="6.54327">
        <ele>287.2</ele>
        <time>2025-03-15T15:06:48.906Z</time>
      </trkpt>
      <trkpt lat="43.35656" lon="6.54335">
        <ele>287.22</ele>
        <time>2025-03-15T15:06:51.483Z</time>
      </trkpt>
      <trkpt lat="43.35656" lon="6.54338">
        <ele>287.25</ele>
        <time>2025-03-15T15:06:52.455Z</time>
      </trkpt>
      <trkpt lat="43.35655" lon="6.54341">
        <ele>287.27</ele>
        <time>2025-03-15T15:06:53.433Z</time>
      </trkpt>
      <trkpt lat="43.35655" lon="6.54345">
        <ele>287.29</ele>
        <time>2025-03-15T15:06:54.405Z</time>
      </trkpt>
      <trkpt lat="43.35655" lon="6.54348">
        <ele>287.31</ele>
        <time>2025-03-15T15:06:55.391Z</time>
      </trkpt>
      <trkpt lat="43.35649" lon="6.54369">
        <ele>287.35</ele>
        <time>2025-03-15T15:07:02.337Z</time>
      </trkpt>
      <trkpt lat="43.35642" lon="6.54387">
        <ele>287.36</ele>
        <time>2025-03-15T15:07:08.438Z</time>
      </trkpt>
      <trkpt lat="43.35642" lon="6.54391">
        <ele>287.38</ele>
        <time>2025-03-15T15:07:09.755Z</time>
      </trkpt>
      <trkpt lat="43.35643" lon="6.54393">
        <ele>287.4</ele>
        <time>2025-03-15T15:07:10.336Z</time>
      </trkpt>
      <trkpt lat="43.35643" lon="6.54394">
        <ele>287.44</ele>
        <time>2025-03-15T15:07:10.809Z</time>
      </trkpt>
      <trkpt lat="43.35644" lon="6.54395">
        <ele>287.49</ele>
        <time>2025-03-15T15:07:11.289Z</time>
      </trkpt>
      <trkpt lat="43.35644" lon="6.54396">
        <ele>287.56</ele>
        <time>2025-03-15T15:07:11.717Z</time>
      </trkpt>
      <trkpt lat="43.35646" lon="6.54398">
        <ele>287.63</ele>
        <time>2025-03-15T15:07:12.814Z</time>
      </trkpt>
      <trkpt lat="43.35648" lon="6.54399">
        <ele>287.73</ele>
        <time>2025-03-15T15:07:13.751Z</time>
      </trkpt>
      <trkpt lat="43.35649" lon="6.54401">
        <ele>287.84</ele>
        <time>2025-03-15T15:07:14.558Z</time>
      </trkpt>
      <trkpt lat="43.35651" lon="6.54402">
        <ele>287.97</ele>
        <time>2025-03-15T15:07:15.467Z</time>
      </trkpt>
      <trkpt lat="43.35654" lon="6.54405">
        <ele>288.12</ele>
        <time>2025-03-15T15:07:17.288Z</time>
      </trkpt>
      <trkpt lat="43.35659" lon="6.5441">
        <ele>288.29</ele>
        <time>2025-03-15T15:07:20.070Z</time>
      </trkpt>
      <trkpt lat="43.35663" lon="6.54414">
        <ele>288.49</ele>
        <time>2025-03-15T15:07:22.540Z</time>
      </trkpt>
      <trkpt lat="43.35668" lon="6.5442">
        <ele>288.72</ele>
        <time>2025-03-15T15:07:25.437Z</time>
      </trkpt>
      <trkpt lat="43.35676" lon="6.54428">
        <ele>289</ele>
        <time>2025-03-15T15:07:30.124Z</time>
      </trkpt>
      <trkpt lat="43.35679" lon="6.54432">
        <ele>289.28</ele>
        <time>2025-03-15T15:07:32.082Z</time>
      </trkpt>
      <trkpt lat="43.35681" lon="6.54436">
        <ele>289.58</ele>
        <time>2025-03-15T15:07:34.045Z</time>
      </trkpt>
      <trkpt lat="43.35688" lon="6.54446">
        <ele>289.93</ele>
        <time>2025-03-15T15:07:38.721Z</time>
      </trkpt>
      <trkpt lat="43.3569" lon="6.5445">
        <ele>290.27</ele>
        <time>2025-03-15T15:07:40.732Z</time>
      </trkpt>
      <trkpt lat="43.35696" lon="6.54457">
        <ele>290.65</ele>
        <time>2025-03-15T15:07:44.182Z</time>
      </trkpt>
      <trkpt lat="43.357" lon="6.54464">
        <ele>291.04</ele>
        <time>2025-03-15T15:07:47.667Z</time>
      </trkpt>
      <trkpt lat="43.35703" lon="6.54467">
        <ele>291.43</ele>
        <time>2025-03-15T15:07:49.778Z</time>
      </trkpt>
      <trkpt lat="43.35706" lon="6.54471">
        <ele>291.83</ele>
        <time>2025-03-15T15:07:51.953Z</time>
      </trkpt>
      <trkpt lat="43.35708" lon="6.54475">
        <ele>292.24</ele>
        <time>2025-03-15T15:07:54.076Z</time>
      </trkpt>
      <trkpt lat="43.35709" lon="6.54479">
        <ele>292.66</ele>
        <time>2025-03-15T15:07:56.198Z</time>
      </trkpt>
      <trkpt lat="43.35713" lon="6.54486">
        <ele>293.1</ele>
        <time>2025-03-15T15:07:59.479Z</time>
      </trkpt>
      <trkpt lat="43.35715" lon="6.54489">
        <ele>293.52</ele>
        <time>2025-03-15T15:08:01.593Z</time>
      </trkpt>
      <trkpt lat="43.35717" lon="6.54493">
        <ele>293.94</ele>
        <time>2025-03-15T15:08:03.538Z</time>
      </trkpt>
      <trkpt lat="43.35719" lon="6.54496">
        <ele>294.34</ele>
        <time>2025-03-15T15:08:05.451Z</time>
      </trkpt>
      <trkpt lat="43.35721" lon="6.54499">
        <ele>294.74</ele>
        <time>2025-03-15T15:08:07.359Z</time>
      </trkpt>
      <trkpt lat="43.35723" lon="6.54501">
        <ele>295.12</ele>
        <time>2025-03-15T15:08:09.132Z</time>
      </trkpt>
      <trkpt lat="43.35726" lon="6.54503">
        <ele>295.48</ele>
        <time>2025-03-15T15:08:10.911Z</time>
      </trkpt>
      <trkpt lat="43.35728" lon="6.54505">
        <ele>295.83</ele>
        <time>2025-03-15T15:08:12.770Z</time>
      </trkpt>
      <trkpt lat="43.35731" lon="6.54508">
        <ele>296.16</ele>
        <time>2025-03-15T15:08:14.617Z</time>
      </trkpt>
      <trkpt lat="43.35732" lon="6.54512">
        <ele>296.46</ele>
        <time>2025-03-15T15:08:16.344Z</time>
      </trkpt>
      <trkpt lat="43.35733" lon="6.54515">
        <ele>296.73</ele>
        <time>2025-03-15T15:08:18.011Z</time>
      </trkpt>
      <trkpt lat="43.35735" lon="6.54519">
        <ele>296.97</ele>
        <time>2025-03-15T15:08:19.609Z</time>
      </trkpt>
      <trkpt lat="43.3574" lon="6.54532">
        <ele>297.21</ele>
        <time>2025-03-15T15:08:24.526Z</time>
      </trkpt>
      <trkpt lat="43.35743" lon="6.54535">
        <ele>297.38</ele>
        <time>2025-03-15T15:08:26.082Z</time>
      </trkpt>
      <trkpt lat="43.35745" lon="6.54539">
        <ele>297.52</ele>
        <time>2025-03-15T15:08:27.533Z</time>
      </trkpt>
      <trkpt lat="43.35747" lon="6.54542">
        <ele>297.61</ele>
        <time>2025-03-15T15:08:28.866Z</time>
      </trkpt>
      <trkpt lat="43.35749" lon="6.54544">
        <ele>297.66</ele>
        <time>2025-03-15T15:08:29.995Z</time>
      </trkpt>
      <trkpt lat="43.35753" lon="6.54549">
        <ele>297.68</ele>
        <time>2025-03-15T15:08:32.469Z</time>
      </trkpt>
      <trkpt lat="43.35755" lon="6.54552">
        <ele>297.66</ele>
        <time>2025-03-15T15:08:33.656Z</time>
      </trkpt>
      <trkpt lat="43.35757" lon="6.54555">
        <ele>297.59</ele>
        <time>2025-03-15T15:08:34.850Z</time>
      </trkpt>
      <trkpt lat="43.35758" lon="6.54559">
        <ele>297.48</ele>
        <time>2025-03-15T15:08:35.873Z</time>
      </trkpt>
      <trkpt lat="43.3576" lon="6.54562">
        <ele>297.33</ele>
        <time>2025-03-15T15:08:36.744Z</time>
      </trkpt>
      <trkpt lat="43.35761" lon="6.54564">
        <ele>297.14</ele>
        <time>2025-03-15T15:08:37.554Z</time>
      </trkpt>
      <trkpt lat="43.35766" lon="6.54581">
        <ele>296.91</ele>
        <time>2025-03-15T15:08:42.647Z</time>
      </trkpt>
      <trkpt lat="43.35769" lon="6.54592">
        <ele>296.64</ele>
        <time>2025-03-15T15:08:45.898Z</time>
      </trkpt>
      <trkpt lat="43.35774" lon="6.54605">
        <ele>296.33</ele>
        <time>2025-03-15T15:08:49.959Z</time>
      </trkpt>
      <trkpt lat="43.35776" lon="6.54612">
        <ele>296</ele>
        <time>2025-03-15T15:08:52.078Z</time>
      </trkpt>
      <trkpt lat="43.35778" lon="6.54631">
        <ele>295.61</ele>
        <time>2025-03-15T15:08:57.285Z</time>
      </trkpt>
      <trkpt lat="43.35779" lon="6.54642">
        <ele>295.23</ele>
        <time>2025-03-15T15:09:00.050Z</time>
      </trkpt>
      <trkpt lat="43.3578" lon="6.54652">
        <ele>294.84</ele>
        <time>2025-03-15T15:09:02.667Z</time>
      </trkpt>
      <trkpt lat="43.35782" lon="6.54661">
        <ele>294.44</ele>
        <time>2025-03-15T15:09:05.244Z</time>
      </trkpt>
      <trkpt lat="43.35786" lon="6.54669">
        <ele>294.04</ele>
        <time>2025-03-15T15:09:07.808Z</time>
      </trkpt>
      <trkpt lat="43.3579" lon="6.54677">
        <ele>293.67</ele>
        <time>2025-03-15T15:09:10.414Z</time>
      </trkpt>
      <trkpt lat="43.35794" lon="6.54685">
        <ele>293.3</ele>
        <time>2025-03-15T15:09:12.890Z</time>
      </trkpt>
      <trkpt lat="43.35799" lon="6.54691">
        <ele>292.94</ele>
        <time>2025-03-15T15:09:15.217Z</time>
      </trkpt>
      <trkpt lat="43.35807" lon="6.54705">
        <ele>292.59</ele>
        <time>2025-03-15T15:09:20.083Z</time>
      </trkpt>
      <trkpt lat="43.35816" lon="6.54718">
        <ele>292.26</ele>
        <time>2025-03-15T15:09:24.845Z</time>
      </trkpt>
      <trkpt lat="43.3582" lon="6.54724">
        <ele>291.96</ele>
        <time>2025-03-15T15:09:27.176Z</time>
      </trkpt>
      <trkpt lat="43.35825" lon="6.54731">
        <ele>291.69</ele>
        <time>2025-03-15T15:09:29.657Z</time>
      </trkpt>
      <trkpt lat="43.35829" lon="6.54738">
        <ele>291.43</ele>
        <time>2025-03-15T15:09:32.096Z</time>
      </trkpt>
      <trkpt lat="43.35833" lon="6.54745">
        <ele>291.2</ele>
        <time>2025-03-15T15:09:34.520Z</time>
      </trkpt>
      <trkpt lat="43.35841" lon="6.54759">
        <ele>290.99</ele>
        <time>2025-03-15T15:09:39.554Z</time>
      </trkpt>
      <trkpt lat="43.35844" lon="6.54765">
        <ele>290.83</ele>
        <time>2025-03-15T15:09:41.768Z</time>
      </trkpt>
      <trkpt lat="43.35847" lon="6.54772">
        <ele>290.69</ele>
        <time>2025-03-15T15:09:43.892Z</time>
      </trkpt>
      <trkpt lat="43.3585" lon="6.54778">
        <ele>290.59</ele>
        <time>2025-03-15T15:09:45.943Z</time>
      </trkpt>
      <trkpt lat="43.35853" lon="6.54785">
        <ele>290.52</ele>
        <time>2025-03-15T15:09:48.059Z</time>
      </trkpt>
      <trkpt lat="43.35856" lon="6.54794">
        <ele>290.48</ele>
        <time>2025-03-15T15:09:51.140Z</time>
      </trkpt>
      <trkpt lat="43.35856" lon="6.54796">
        <ele>290.46</ele>
        <time>2025-03-15T15:09:51.790Z</time>
      </trkpt>
      <trkpt lat="43.35856" lon="6.54796">
        <ele>290.46</ele>
        <time>2025-03-15T15:09:51.795Z</time>
      </trkpt>
      <trkpt lat="43.35864" lon="6.5482">
        <ele>290.51</ele>
        <time>2025-03-15T15:09:59.485Z</time>
      </trkpt>
      <trkpt lat="43.35867" lon="6.54834">
        <ele>290.57</ele>
        <time>2025-03-15T15:10:04.091Z</time>
      </trkpt>
      <trkpt lat="43.35869" lon="6.54858">
        <ele>290.63</ele>
        <time>2025-03-15T15:10:11.205Z</time>
      </trkpt>
      <trkpt lat="43.35879" lon="6.54916">
        <ele>290.72</ele>
        <time>2025-03-15T15:10:29.428Z</time>
      </trkpt>
      <trkpt lat="43.35882" lon="6.5493">
        <ele>290.81</ele>
        <time>2025-03-15T15:10:33.944Z</time>
      </trkpt>
      <trkpt lat="43.35887" lon="6.54943">
        <ele>290.91</ele>
        <time>2025-03-15T15:10:38.369Z</time>
      </trkpt>
      <trkpt lat="43.35892" lon="6.54956">
        <ele>291</ele>
        <time>2025-03-15T15:10:42.861Z</time>
      </trkpt>
      <trkpt lat="43.35895" lon="6.54962">
        <ele>291.06</ele>
        <time>2025-03-15T15:10:44.986Z</time>
      </trkpt>
      <trkpt lat="43.35898" lon="6.54968">
        <ele>291.12</ele>
        <time>2025-03-15T15:10:47.156Z</time>
      </trkpt>
      <trkpt lat="43.35901" lon="6.54974">
        <ele>291.17</ele>
        <time>2025-03-15T15:10:49.546Z</time>
      </trkpt>
      <trkpt lat="43.35904" lon="6.54981">
        <ele>291.19</ele>
        <time>2025-03-15T15:10:52.015Z</time>
      </trkpt>
      <trkpt lat="43.35907" lon="6.54988">
        <ele>291.2</ele>
        <time>2025-03-15T15:10:54.502Z</time>
      </trkpt>
      <trkpt lat="43.3593" lon="6.55035">
        <ele>291.14</ele>
        <time>2025-03-15T15:11:11.553Z</time>
      </trkpt>
      <trkpt lat="43.35952" lon="6.55069">
        <ele>291.03</ele>
        <time>2025-03-15T15:11:24.842Z</time>
      </trkpt>
      <trkpt lat="43.35956" lon="6.55074">
        <ele>290.96</ele>
        <time>2025-03-15T15:11:27.080Z</time>
      </trkpt>
      <trkpt lat="43.35967" lon="6.55082">
        <ele>290.87</ele>
        <time>2025-03-15T15:11:31.849Z</time>
      </trkpt>
      <trkpt lat="43.35972" lon="6.55085">
        <ele>290.76</ele>
        <time>2025-03-15T15:11:34.196Z</time>
      </trkpt>
      <trkpt lat="43.35978" lon="6.55088">
        <ele>290.63</ele>
        <time>2025-03-15T15:11:36.629Z</time>
      </trkpt>
      <trkpt lat="43.35984" lon="6.5509">
        <ele>290.47</ele>
        <time>2025-03-15T15:11:38.852Z</time>
      </trkpt>
      <trkpt lat="43.35989" lon="6.55093">
        <ele>290.29</ele>
        <time>2025-03-15T15:11:40.993Z</time>
      </trkpt>
      <trkpt lat="43.35999" lon="6.55099">
        <ele>290.07</ele>
        <time>2025-03-15T15:11:45.245Z</time>
      </trkpt>
      <trkpt lat="43.36008" lon="6.5511">
        <ele>289.8</ele>
        <time>2025-03-15T15:11:49.784Z</time>
      </trkpt>
      <trkpt lat="43.36016" lon="6.55139">
        <ele>289.5</ele>
        <time>2025-03-15T15:11:58.698Z</time>
      </trkpt>
      <trkpt lat="43.36019" lon="6.55146">
        <ele>289.21</ele>
        <time>2025-03-15T15:12:00.707Z</time>
      </trkpt>
      <trkpt lat="43.36029" lon="6.55163">
        <ele>288.88</ele>
        <time>2025-03-15T15:12:07.024Z</time>
      </trkpt>
      <trkpt lat="43.36033" lon="6.55169">
        <ele>288.53</ele>
        <time>2025-03-15T15:12:09.064Z</time>
      </trkpt>
      <trkpt lat="43.36056" lon="6.55206">
        <ele>288.14</ele>
        <time>2025-03-15T15:12:23.029Z</time>
      </trkpt>
      <trkpt lat="43.36071" lon="6.55244">
        <ele>287.76</ele>
        <time>2025-03-15T15:12:35.561Z</time>
      </trkpt>
      <trkpt lat="43.36081" lon="6.55271">
        <ele>287.27</ele>
        <time>2025-03-15T15:12:44.100Z</time>
      </trkpt>
      <trkpt lat="43.36087" lon="6.55286">
        <ele>286.76</ele>
        <time>2025-03-15T15:12:48.720Z</time>
      </trkpt>
      <trkpt lat="43.3609" lon="6.55295">
        <ele>286.26</ele>
        <time>2025-03-15T15:12:51.189Z</time>
      </trkpt>
      <trkpt lat="43.36093" lon="6.55303">
        <ele>285.73</ele>
        <time>2025-03-15T15:12:53.544Z</time>
      </trkpt>
      <trkpt lat="43.36097" lon="6.5531">
        <ele>285.19</ele>
        <time>2025-03-15T15:12:55.885Z</time>
      </trkpt>
      <trkpt lat="43.361" lon="6.55318">
        <ele>284.64</ele>
        <time>2025-03-15T15:12:58.206Z</time>
      </trkpt>
      <trkpt lat="43.36104" lon="6.55326">
        <ele>284.06</ele>
        <time>2025-03-15T15:13:00.653Z</time>
      </trkpt>
      <trkpt lat="43.36107" lon="6.55335">
        <ele>283.48</ele>
        <time>2025-03-15T15:13:03.238Z</time>
      </trkpt>
      <trkpt lat="43.36109" lon="6.55343">
        <ele>282.89</ele>
        <time>2025-03-15T15:13:05.671Z</time>
      </trkpt>
      <trkpt lat="43.36112" lon="6.55352">
        <ele>282.3</ele>
        <time>2025-03-15T15:13:08.102Z</time>
      </trkpt>
      <trkpt lat="43.36114" lon="6.55361">
        <ele>281.7</ele>
        <time>2025-03-15T15:13:10.520Z</time>
      </trkpt>
      <trkpt lat="43.36115" lon="6.55369">
        <ele>281.11</ele>
        <time>2025-03-15T15:13:12.569Z</time>
      </trkpt>
      <trkpt lat="43.36115" lon="6.55376">
        <ele>280.51</ele>
        <time>2025-03-15T15:13:14.489Z</time>
      </trkpt>
      <trkpt lat="43.36115" lon="6.55383">
        <ele>279.9</ele>
        <time>2025-03-15T15:13:16.381Z</time>
      </trkpt>
      <trkpt lat="43.36114" lon="6.55391">
        <ele>279.29</ele>
        <time>2025-03-15T15:13:18.398Z</time>
      </trkpt>
      <trkpt lat="43.36113" lon="6.55399">
        <ele>278.66</ele>
        <time>2025-03-15T15:13:20.530Z</time>
      </trkpt>
      <trkpt lat="43.36111" lon="6.55407">
        <ele>278.02</ele>
        <time>2025-03-15T15:13:22.759Z</time>
      </trkpt>
      <trkpt lat="43.3611" lon="6.55415">
        <ele>277.38</ele>
        <time>2025-03-15T15:13:24.988Z</time>
      </trkpt>
      <trkpt lat="43.36108" lon="6.55423">
        <ele>276.73</ele>
        <time>2025-03-15T15:13:27.037Z</time>
      </trkpt>
      <trkpt lat="43.36107" lon="6.5543">
        <ele>276.09</ele>
        <time>2025-03-15T15:13:29.000Z</time>
      </trkpt>
      <trkpt lat="43.36106" lon="6.55437">
        <ele>275.44</ele>
        <time>2025-03-15T15:13:30.945Z</time>
      </trkpt>
      <trkpt lat="43.36104" lon="6.55444">
        <ele>274.79</ele>
        <time>2025-03-15T15:13:32.847Z</time>
      </trkpt>
      <trkpt lat="43.36104" lon="6.55451">
        <ele>274.13</ele>
        <time>2025-03-15T15:13:34.671Z</time>
      </trkpt>
      <trkpt lat="43.36102" lon="6.55465">
        <ele>273.45</ele>
        <time>2025-03-15T15:13:38.294Z</time>
      </trkpt>
      <trkpt lat="43.36092" lon="6.55498">
        <ele>272.75</ele>
        <time>2025-03-15T15:13:47.986Z</time>
      </trkpt>
      <trkpt lat="43.36089" lon="6.55507">
        <ele>272.09</ele>
        <time>2025-03-15T15:13:50.686Z</time>
      </trkpt>
      <trkpt lat="43.36085" lon="6.55516">
        <ele>271.44</ele>
        <time>2025-03-15T15:13:53.469Z</time>
      </trkpt>
      <trkpt lat="43.3608" lon="6.55524">
        <ele>270.78</ele>
        <time>2025-03-15T15:13:56.325Z</time>
      </trkpt>
      <trkpt lat="43.36074" lon="6.55532">
        <ele>270.12</ele>
        <time>2025-03-15T15:13:59.347Z</time>
      </trkpt>
      <trkpt lat="43.36067" lon="6.5554">
        <ele>269.46</ele>
        <time>2025-03-15T15:14:02.343Z</time>
      </trkpt>
      <trkpt lat="43.36061" lon="6.55548">
        <ele>268.8</ele>
        <time>2025-03-15T15:14:05.393Z</time>
      </trkpt>
      <trkpt lat="43.36055" lon="6.55556">
        <ele>268.14</ele>
        <time>2025-03-15T15:14:08.501Z</time>
      </trkpt>
      <trkpt lat="43.36049" lon="6.55564">
        <ele>267.49</ele>
        <time>2025-03-15T15:14:11.599Z</time>
      </trkpt>
      <trkpt lat="43.36044" lon="6.55573">
        <ele>266.84</ele>
        <time>2025-03-15T15:14:14.558Z</time>
      </trkpt>
      <trkpt lat="43.36041" lon="6.55583">
        <ele>266.2</ele>
        <time>2025-03-15T15:14:17.424Z</time>
      </trkpt>
      <trkpt lat="43.3604" lon="6.55595">
        <ele>265.57</ele>
        <time>2025-03-15T15:14:20.394Z</time>
      </trkpt>
      <trkpt lat="43.36042" lon="6.55606">
        <ele>264.95</ele>
        <time>2025-03-15T15:14:23.490Z</time>
      </trkpt>
      <trkpt lat="43.36045" lon="6.55617">
        <ele>264.36</ele>
        <time>2025-03-15T15:14:26.535Z</time>
      </trkpt>
      <trkpt lat="43.36049" lon="6.55628">
        <ele>263.8</ele>
        <time>2025-03-15T15:14:29.697Z</time>
      </trkpt>
      <trkpt lat="43.36052" lon="6.5564">
        <ele>263.26</ele>
        <time>2025-03-15T15:14:33.016Z</time>
      </trkpt>
      <trkpt lat="43.36056" lon="6.55652">
        <ele>262.76</ele>
        <time>2025-03-15T15:14:36.393Z</time>
      </trkpt>
      <trkpt lat="43.36059" lon="6.55664">
        <ele>262.28</ele>
        <time>2025-03-15T15:14:39.841Z</time>
      </trkpt>
      <trkpt lat="43.36062" lon="6.55676">
        <ele>261.83</ele>
        <time>2025-03-15T15:14:43.046Z</time>
      </trkpt>
      <trkpt lat="43.36065" lon="6.55687">
        <ele>261.4</ele>
        <time>2025-03-15T15:14:46.163Z</time>
      </trkpt>
      <trkpt lat="43.36067" lon="6.55699">
        <ele>261</ele>
        <time>2025-03-15T15:14:49.361Z</time>
      </trkpt>
      <trkpt lat="43.3607" lon="6.55709">
        <ele>260.62</ele>
        <time>2025-03-15T15:14:52.389Z</time>
      </trkpt>
      <trkpt lat="43.36074" lon="6.55719">
        <ele>260.27</ele>
        <time>2025-03-15T15:14:55.364Z</time>
      </trkpt>
      <trkpt lat="43.36081" lon="6.5574">
        <ele>259.93</ele>
        <time>2025-03-15T15:15:01.705Z</time>
      </trkpt>
      <trkpt lat="43.36082" lon="6.55762">
        <ele>259.61</ele>
        <time>2025-03-15T15:15:07.982Z</time>
      </trkpt>
      <trkpt lat="43.36082" lon="6.55774">
        <ele>259.36</ele>
        <time>2025-03-15T15:15:11.070Z</time>
      </trkpt>
      <trkpt lat="43.36082" lon="6.55784">
        <ele>259.16</ele>
        <time>2025-03-15T15:15:13.938Z</time>
      </trkpt>
      <trkpt lat="43.36083" lon="6.55793">
        <ele>259</ele>
        <time>2025-03-15T15:15:16.547Z</time>
      </trkpt>
      <trkpt lat="43.36084" lon="6.55801">
        <ele>258.88</ele>
        <time>2025-03-15T15:15:18.809Z</time>
      </trkpt>
      <trkpt lat="43.36086" lon="6.55808">
        <ele>258.8</ele>
        <time>2025-03-15T15:15:21.036Z</time>
      </trkpt>
      <trkpt lat="43.36091" lon="6.55824">
        <ele>258.76</ele>
        <time>2025-03-15T15:15:25.971Z</time>
      </trkpt>
      <trkpt lat="43.36096" lon="6.55851">
        <ele>258.72</ele>
        <time>2025-03-15T15:15:34.381Z</time>
      </trkpt>
      <trkpt lat="43.36101" lon="6.55893">
        <ele>258.75</ele>
        <time>2025-03-15T15:15:47.062Z</time>
      </trkpt>
      <trkpt lat="43.36104" lon="6.55904">
        <ele>258.8</ele>
        <time>2025-03-15T15:15:50.442Z</time>
      </trkpt>
      <trkpt lat="43.36109" lon="6.55935">
        <ele>258.87</ele>
        <time>2025-03-15T15:16:00.229Z</time>
      </trkpt>
      <trkpt lat="43.36111" lon="6.55955">
        <ele>258.96</ele>
        <time>2025-03-15T15:16:06.484Z</time>
      </trkpt>
      <trkpt lat="43.36113" lon="6.55974">
        <ele>259.11</ele>
        <time>2025-03-15T15:16:12.305Z</time>
      </trkpt>
      <trkpt lat="43.36113" lon="6.55992">
        <ele>259.26</ele>
        <time>2025-03-15T15:16:17.931Z</time>
      </trkpt>
      <trkpt lat="43.36114" lon="6.56002">
        <ele>259.43</ele>
        <time>2025-03-15T15:16:21.099Z</time>
      </trkpt>
      <trkpt lat="43.36123" lon="6.56028">
        <ele>259.58</ele>
        <time>2025-03-15T15:16:29.876Z</time>
      </trkpt>
      <trkpt lat="43.36129" lon="6.56044">
        <ele>259.76</ele>
        <time>2025-03-15T15:16:35.394Z</time>
      </trkpt>
      <trkpt lat="43.36129" lon="6.56061">
        <ele>259.96</ele>
        <time>2025-03-15T15:16:40.783Z</time>
      </trkpt>
      <trkpt lat="43.36127" lon="6.56083">
        <ele>260.19</ele>
        <time>2025-03-15T15:16:47.836Z</time>
      </trkpt>
      <trkpt lat="43.36128" lon="6.56098">
        <ele>260.41</ele>
        <time>2025-03-15T15:16:52.491Z</time>
      </trkpt>
      <trkpt lat="43.36129" lon="6.56106">
        <ele>260.64</ele>
        <time>2025-03-15T15:16:55.272Z</time>
      </trkpt>
      <trkpt lat="43.36131" lon="6.56114">
        <ele>260.87</ele>
        <time>2025-03-15T15:16:58.205Z</time>
      </trkpt>
      <trkpt lat="43.36132" lon="6.56123">
        <ele>261.11</ele>
        <time>2025-03-15T15:17:01.149Z</time>
      </trkpt>
      <trkpt lat="43.36133" lon="6.56132">
        <ele>261.34</ele>
        <time>2025-03-15T15:17:04.115Z</time>
      </trkpt>
      <trkpt lat="43.36134" lon="6.56141">
        <ele>261.57</ele>
        <time>2025-03-15T15:17:07.256Z</time>
      </trkpt>
      <trkpt lat="43.36135" lon="6.56159">
        <ele>261.77</ele>
        <time>2025-03-15T15:17:12.818Z</time>
      </trkpt>
      <trkpt lat="43.36133" lon="6.56176">
        <ele>261.94</ele>
        <time>2025-03-15T15:17:18.339Z</time>
      </trkpt>
      <trkpt lat="43.3613" lon="6.56193">
        <ele>262.1</ele>
        <time>2025-03-15T15:17:23.728Z</time>
      </trkpt>
      <trkpt lat="43.36132" lon="6.56219">
        <ele>262.22</ele>
        <time>2025-03-15T15:17:31.643Z</time>
      </trkpt>
      <trkpt lat="43.36132" lon="6.56237">
        <ele>262.34</ele>
        <time>2025-03-15T15:17:37.169Z</time>
      </trkpt>
      <trkpt lat="43.3613" lon="6.56264">
        <ele>262.44</ele>
        <time>2025-03-15T15:17:45.424Z</time>
      </trkpt>
      <trkpt lat="43.36123" lon="6.56307">
        <ele>262.53</ele>
        <time>2025-03-15T15:17:58.827Z</time>
      </trkpt>
      <trkpt lat="43.3612" lon="6.56315">
        <ele>262.61</ele>
        <time>2025-03-15T15:18:01.489Z</time>
      </trkpt>
      <trkpt lat="43.36116" lon="6.5633">
        <ele>262.67</ele>
        <time>2025-03-15T15:18:06.321Z</time>
      </trkpt>
      <trkpt lat="43.36109" lon="6.56359">
        <ele>262.72</ele>
        <time>2025-03-15T15:18:15.489Z</time>
      </trkpt>
      <trkpt lat="43.36098" lon="6.56401">
        <ele>262.7</ele>
        <time>2025-03-15T15:18:28.884Z</time>
      </trkpt>
      <trkpt lat="43.36086" lon="6.56453">
        <ele>262.71</ele>
        <time>2025-03-15T15:18:45.268Z</time>
      </trkpt>
      <trkpt lat="43.36083" lon="6.56461">
        <ele>262.64</ele>
        <time>2025-03-15T15:18:47.893Z</time>
      </trkpt>
      <trkpt lat="43.36079" lon="6.56468">
        <ele>262.52</ele>
        <time>2025-03-15T15:18:50.380Z</time>
      </trkpt>
      <trkpt lat="43.36067" lon="6.56489">
        <ele>262.36</ele>
        <time>2025-03-15T15:18:57.887Z</time>
      </trkpt>
      <trkpt lat="43.36035" lon="6.56533">
        <ele>262.21</ele>
        <time>2025-03-15T15:19:16.431Z</time>
      </trkpt>
      <trkpt lat="43.36026" lon="6.56544">
        <ele>261.95</ele>
        <time>2025-03-15T15:19:21.192Z</time>
      </trkpt>
      <trkpt lat="43.3601" lon="6.56557">
        <ele>261.6</ele>
        <time>2025-03-15T15:19:28.103Z</time>
      </trkpt>
      <trkpt lat="43.36005" lon="6.56559">
        <ele>261.22</ele>
        <time>2025-03-15T15:19:30.097Z</time>
      </trkpt>
      <trkpt lat="43.36" lon="6.5656">
        <ele>260.8</ele>
        <time>2025-03-15T15:19:32.031Z</time>
      </trkpt>
      <trkpt lat="43.35995" lon="6.56562">
        <ele>260.33</ele>
        <time>2025-03-15T15:19:33.953Z</time>
      </trkpt>
      <trkpt lat="43.3599" lon="6.56563">
        <ele>259.82</ele>
        <time>2025-03-15T15:19:35.800Z</time>
      </trkpt>
      <trkpt lat="43.35985" lon="6.56566">
        <ele>259.26</ele>
        <time>2025-03-15T15:19:37.711Z</time>
      </trkpt>
      <trkpt lat="43.35976" lon="6.5658">
        <ele>258.67</ele>
        <time>2025-03-15T15:19:42.332Z</time>
      </trkpt>
      <trkpt lat="43.3597" lon="6.56613">
        <ele>258.06</ele>
        <time>2025-03-15T15:19:51.859Z</time>
      </trkpt>
      <trkpt lat="43.35968" lon="6.56626">
        <ele>257.43</ele>
        <time>2025-03-15T15:19:55.292Z</time>
      </trkpt>
      <trkpt lat="43.35966" lon="6.5664">
        <ele>256.76</ele>
        <time>2025-03-15T15:19:59.023Z</time>
      </trkpt>
      <trkpt lat="43.35963" lon="6.56654">
        <ele>256.06</ele>
        <time>2025-03-15T15:20:02.911Z</time>
      </trkpt>
      <trkpt lat="43.3596" lon="6.56668">
        <ele>255.37</ele>
        <time>2025-03-15T15:20:06.886Z</time>
      </trkpt>
      <trkpt lat="43.35956" lon="6.56683">
        <ele>254.65</ele>
        <time>2025-03-15T15:20:10.954Z</time>
      </trkpt>
      <trkpt lat="43.35952" lon="6.56697">
        <ele>253.95</ele>
        <time>2025-03-15T15:20:14.980Z</time>
      </trkpt>
      <trkpt lat="43.35948" lon="6.56712">
        <ele>253.22</ele>
        <time>2025-03-15T15:20:19.186Z</time>
      </trkpt>
      <trkpt lat="43.35944" lon="6.56727">
        <ele>252.51</ele>
        <time>2025-03-15T15:20:23.160Z</time>
      </trkpt>
      <trkpt lat="43.35939" lon="6.5674">
        <ele>251.81</ele>
        <time>2025-03-15T15:20:27.066Z</time>
      </trkpt>
      <trkpt lat="43.35935" lon="6.56754">
        <ele>251.13</ele>
        <time>2025-03-15T15:20:30.931Z</time>
      </trkpt>
      <trkpt lat="43.35931" lon="6.56767">
        <ele>250.46</ele>
        <time>2025-03-15T15:20:34.702Z</time>
      </trkpt>
      <trkpt lat="43.35928" lon="6.5678">
        <ele>249.85</ele>
        <time>2025-03-15T15:20:38.363Z</time>
      </trkpt>
      <trkpt lat="43.35925" lon="6.56793">
        <ele>249.26</ele>
        <time>2025-03-15T15:20:41.921Z</time>
      </trkpt>
      <trkpt lat="43.35921" lon="6.56821">
        <ele>248.74</ele>
        <time>2025-03-15T15:20:49.580Z</time>
      </trkpt>
      <trkpt lat="43.35919" lon="6.56834">
        <ele>248.24</ele>
        <time>2025-03-15T15:20:53.104Z</time>
      </trkpt>
      <trkpt lat="43.35915" lon="6.56846">
        <ele>247.75</ele>
        <time>2025-03-15T15:20:56.568Z</time>
      </trkpt>
      <trkpt lat="43.3591" lon="6.56857">
        <ele>247.25</ele>
        <time>2025-03-15T15:20:59.945Z</time>
      </trkpt>
      <trkpt lat="43.35906" lon="6.56866">
        <ele>246.75</ele>
        <time>2025-03-15T15:21:02.885Z</time>
      </trkpt>
      <trkpt lat="43.35901" lon="6.56873">
        <ele>246.27</ele>
        <time>2025-03-15T15:21:05.366Z</time>
      </trkpt>
      <trkpt lat="43.35897" lon="6.56877">
        <ele>245.82</ele>
        <time>2025-03-15T15:21:07.160Z</time>
      </trkpt>
      <trkpt lat="43.35893" lon="6.56877">
        <ele>245.41</ele>
        <time>2025-03-15T15:21:08.480Z</time>
      </trkpt>
      <trkpt lat="43.35891" lon="6.56875">
        <ele>245.02</ele>
        <time>2025-03-15T15:21:09.461Z</time>
      </trkpt>
      <trkpt lat="43.35889" lon="6.56874">
        <ele>244.65</ele>
        <time>2025-03-15T15:21:10.162Z</time>
      </trkpt>
      <trkpt lat="43.35889" lon="6.56872">
        <ele>244.31</ele>
        <time>2025-03-15T15:21:10.608Z</time>
      </trkpt>
      <trkpt lat="43.35888" lon="6.56872">
        <ele>243.98</ele>
        <time>2025-03-15T15:21:10.709Z</time>
      </trkpt>
      <trkpt lat="43.35888" lon="6.56872">
        <ele>243.66</ele>
        <time>2025-03-15T15:21:10.922Z</time>
      </trkpt>
      <trkpt lat="43.35887" lon="6.56871">
        <ele>243.37</ele>
        <time>2025-03-15T15:21:11.315Z</time>
      </trkpt>
      <trkpt lat="43.35885" lon="6.56872">
        <ele>243.08</ele>
        <time>2025-03-15T15:21:11.810Z</time>
      </trkpt>
      <trkpt lat="43.35883" lon="6.56872">
        <ele>242.81</ele>
        <time>2025-03-15T15:21:12.619Z</time>
      </trkpt>
      <trkpt lat="43.35882" lon="6.56881">
        <ele>242.52</ele>
        <time>2025-03-15T15:21:14.779Z</time>
      </trkpt>
      <trkpt lat="43.35882" lon="6.5689">
        <ele>242.27</ele>
        <time>2025-03-15T15:21:17.223Z</time>
      </trkpt>
      <trkpt lat="43.35879" lon="6.56893">
        <ele>242.04</ele>
        <time>2025-03-15T15:21:18.419Z</time>
      </trkpt>
      <trkpt lat="43.35868" lon="6.56908">
        <ele>241.78</ele>
        <time>2025-03-15T15:21:24.797Z</time>
      </trkpt>
      <trkpt lat="43.35864" lon="6.56914">
        <ele>241.59</ele>
        <time>2025-03-15T15:21:27.013Z</time>
      </trkpt>
      <trkpt lat="43.3586" lon="6.56921">
        <ele>241.4</ele>
        <time>2025-03-15T15:21:29.287Z</time>
      </trkpt>
      <trkpt lat="43.35856" lon="6.56927">
        <ele>241.24</ele>
        <time>2025-03-15T15:21:31.560Z</time>
      </trkpt>
      <trkpt lat="43.35852" lon="6.56934">
        <ele>241.09</ele>
        <time>2025-03-15T15:21:33.881Z</time>
      </trkpt>
      <trkpt lat="43.35849" lon="6.5694">
        <ele>240.97</ele>
        <time>2025-03-15T15:21:36.185Z</time>
      </trkpt>
      <trkpt lat="43.35846" lon="6.56947">
        <ele>240.87</ele>
        <time>2025-03-15T15:21:38.402Z</time>
      </trkpt>
      <trkpt lat="43.35839" lon="6.56967">
        <ele>240.75</ele>
        <time>2025-03-15T15:21:44.839Z</time>
      </trkpt>
      <trkpt lat="43.35837" lon="6.56979">
        <ele>240.69</ele>
        <time>2025-03-15T15:21:48.410Z</time>
      </trkpt>
      <trkpt lat="43.35835" lon="6.5699">
        <ele>240.7</ele>
        <time>2025-03-15T15:21:51.927Z</time>
      </trkpt>
      <trkpt lat="43.35832" lon="6.57012">
        <ele>240.75</ele>
        <time>2025-03-15T15:21:58.544Z</time>
      </trkpt>
      <trkpt lat="43.35826" lon="6.5703">
        <ele>240.83</ele>
        <time>2025-03-15T15:22:04.698Z</time>
      </trkpt>
      <trkpt lat="43.35823" lon="6.57034">
        <ele>240.88</ele>
        <time>2025-03-15T15:22:06.306Z</time>
      </trkpt>
      <trkpt lat="43.35817" lon="6.57039">
        <ele>240.96</ele>
        <time>2025-03-15T15:22:09.422Z</time>
      </trkpt>
      <trkpt lat="43.35811" lon="6.57047">
        <ele>241.06</ele>
        <time>2025-03-15T15:22:12.903Z</time>
      </trkpt>
      <trkpt lat="43.35808" lon="6.57052">
        <ele>241.15</ele>
        <time>2025-03-15T15:22:15.102Z</time>
      </trkpt>
      <trkpt lat="43.35799" lon="6.57068">
        <ele>241.26</ele>
        <time>2025-03-15T15:22:21.156Z</time>
      </trkpt>
      <trkpt lat="43.35792" lon="6.57078">
        <ele>241.32</ele>
        <time>2025-03-15T15:22:25.260Z</time>
      </trkpt>
      <trkpt lat="43.35789" lon="6.57082">
        <ele>241.37</ele>
        <time>2025-03-15T15:22:27.277Z</time>
      </trkpt>
      <trkpt lat="43.35774" lon="6.57104">
        <ele>241.43</ele>
        <time>2025-03-15T15:22:36.248Z</time>
      </trkpt>
      <trkpt lat="43.35768" lon="6.5712">
        <ele>241.43</ele>
        <time>2025-03-15T15:22:41.594Z</time>
      </trkpt>
      <trkpt lat="43.35763" lon="6.57133">
        <ele>241.41</ele>
        <time>2025-03-15T15:22:45.961Z</time>
      </trkpt>
      <trkpt lat="43.35756" lon="6.5715">
        <ele>241.42</ele>
        <time>2025-03-15T15:22:51.877Z</time>
      </trkpt>
      <trkpt lat="43.35753" lon="6.57162">
        <ele>241.37</ele>
        <time>2025-03-15T15:22:55.719Z</time>
      </trkpt>
      <trkpt lat="43.3575" lon="6.57169">
        <ele>241.3</ele>
        <time>2025-03-15T15:22:57.923Z</time>
      </trkpt>
      <trkpt lat="43.35741" lon="6.57186">
        <ele>241.19</ele>
        <time>2025-03-15T15:23:04.217Z</time>
      </trkpt>
      <trkpt lat="43.35737" lon="6.57192">
        <ele>241.08</ele>
        <time>2025-03-15T15:23:06.260Z</time>
      </trkpt>
      <trkpt lat="43.35732" lon="6.57203">
        <ele>240.93</ele>
        <time>2025-03-15T15:23:10.210Z</time>
      </trkpt>
      <trkpt lat="43.3573" lon="6.57209">
        <ele>240.75</ele>
        <time>2025-03-15T15:23:11.986Z</time>
      </trkpt>
      <trkpt lat="43.3573" lon="6.57216">
        <ele>240.55</ele>
        <time>2025-03-15T15:23:13.801Z</time>
      </trkpt>
      <trkpt lat="43.3573" lon="6.57222">
        <ele>240.32</ele>
        <time>2025-03-15T15:23:15.312Z</time>
      </trkpt>
      <trkpt lat="43.3573" lon="6.57227">
        <ele>240.05</ele>
        <time>2025-03-15T15:23:16.656Z</time>
      </trkpt>
      <trkpt lat="43.35727" lon="6.57246">
        <ele>239.71</ele>
        <time>2025-03-15T15:23:21.983Z</time>
      </trkpt>
      <trkpt lat="43.35724" lon="6.57269">
        <ele>239.3</ele>
        <time>2025-03-15T15:23:28.321Z</time>
      </trkpt>
      <trkpt lat="43.35723" lon="6.57274">
        <ele>238.92</ele>
        <time>2025-03-15T15:23:29.781Z</time>
      </trkpt>
      <trkpt lat="43.35721" lon="6.57279">
        <ele>238.51</ele>
        <time>2025-03-15T15:23:31.340Z</time>
      </trkpt>
      <trkpt lat="43.35721" lon="6.57285">
        <ele>238.06</ele>
        <time>2025-03-15T15:23:32.811Z</time>
      </trkpt>
      <trkpt lat="43.3572" lon="6.57291">
        <ele>237.61</ele>
        <time>2025-03-15T15:23:34.310Z</time>
      </trkpt>
      <trkpt lat="43.35719" lon="6.57297">
        <ele>237.12</ele>
        <time>2025-03-15T15:23:36.013Z</time>
      </trkpt>
      <trkpt lat="43.35718" lon="6.57304">
        <ele>236.6</ele>
        <time>2025-03-15T15:23:37.760Z</time>
      </trkpt>
      <trkpt lat="43.35717" lon="6.57311">
        <ele>236.04</ele>
        <time>2025-03-15T15:23:39.694Z</time>
      </trkpt>
      <trkpt lat="43.35715" lon="6.57317">
        <ele>235.45</ele>
        <time>2025-03-15T15:23:41.490Z</time>
      </trkpt>
      <trkpt lat="43.35713" lon="6.57322">
        <ele>234.83</ele>
        <time>2025-03-15T15:23:43.084Z</time>
      </trkpt>
      <trkpt lat="43.35711" lon="6.57328">
        <ele>234.19</ele>
        <time>2025-03-15T15:23:44.695Z</time>
      </trkpt>
      <trkpt lat="43.35709" lon="6.57334">
        <ele>233.53</ele>
        <time>2025-03-15T15:23:46.371Z</time>
      </trkpt>
      <trkpt lat="43.35707" lon="6.5734">
        <ele>232.83</ele>
        <time>2025-03-15T15:23:48.095Z</time>
      </trkpt>
      <trkpt lat="43.35705" lon="6.57346">
        <ele>232.09</ele>
        <time>2025-03-15T15:23:49.823Z</time>
      </trkpt>
      <trkpt lat="43.35703" lon="6.57352">
        <ele>231.33</ele>
        <time>2025-03-15T15:23:51.571Z</time>
      </trkpt>
      <trkpt lat="43.35699" lon="6.57357">
        <ele>230.58</ele>
        <time>2025-03-15T15:23:53.523Z</time>
      </trkpt>
      <trkpt lat="43.35694" lon="6.5736">
        <ele>229.81</ele>
        <time>2025-03-15T15:23:55.583Z</time>
      </trkpt>
      <trkpt lat="43.35688" lon="6.57364">
        <ele>229</ele>
        <time>2025-03-15T15:23:57.680Z</time>
      </trkpt>
      <trkpt lat="43.35683" lon="6.57366">
        <ele>228.16</ele>
        <time>2025-03-15T15:23:59.783Z</time>
      </trkpt>
      <trkpt lat="43.35677" lon="6.57368">
        <ele>227.3</ele>
        <time>2025-03-15T15:24:02.003Z</time>
      </trkpt>
      <trkpt lat="43.35671" lon="6.57371">
        <ele>226.4</ele>
        <time>2025-03-15T15:24:04.173Z</time>
      </trkpt>
      <trkpt lat="43.35666" lon="6.57373">
        <ele>225.5</ele>
        <time>2025-03-15T15:24:06.287Z</time>
      </trkpt>
      <trkpt lat="43.35654" lon="6.57377">
        <ele>224.52</ele>
        <time>2025-03-15T15:24:10.657Z</time>
      </trkpt>
      <trkpt lat="43.35648" lon="6.57381">
        <ele>223.54</ele>
        <time>2025-03-15T15:24:12.926Z</time>
      </trkpt>
      <trkpt lat="43.35642" lon="6.57386">
        <ele>222.54</ele>
        <time>2025-03-15T15:24:15.408Z</time>
      </trkpt>
      <trkpt lat="43.35637" lon="6.57392">
        <ele>221.51</ele>
        <time>2025-03-15T15:24:17.734Z</time>
      </trkpt>
      <trkpt lat="43.35634" lon="6.57399">
        <ele>220.43</ele>
        <time>2025-03-15T15:24:19.909Z</time>
      </trkpt>
      <trkpt lat="43.35632" lon="6.57406">
        <ele>219.32</ele>
        <time>2025-03-15T15:24:21.907Z</time>
      </trkpt>
      <trkpt lat="43.35629" lon="6.57412">
        <ele>218.18</ele>
        <time>2025-03-15T15:24:23.959Z</time>
      </trkpt>
      <trkpt lat="43.35624" lon="6.57416">
        <ele>217.03</ele>
        <time>2025-03-15T15:24:25.971Z</time>
      </trkpt>
      <trkpt lat="43.35618" lon="6.57419">
        <ele>215.84</ele>
        <time>2025-03-15T15:24:28.301Z</time>
      </trkpt>
      <trkpt lat="43.35612" lon="6.57423">
        <ele>214.63</ele>
        <time>2025-03-15T15:24:30.538Z</time>
      </trkpt>
      <trkpt lat="43.35607" lon="6.57427">
        <ele>213.42</ele>
        <time>2025-03-15T15:24:32.800Z</time>
      </trkpt>
      <trkpt lat="43.35601" lon="6.57431">
        <ele>212.17</ele>
        <time>2025-03-15T15:24:35.290Z</time>
      </trkpt>
      <trkpt lat="43.35596" lon="6.57438">
        <ele>210.91</ele>
        <time>2025-03-15T15:24:37.631Z</time>
      </trkpt>
      <trkpt lat="43.35592" lon="6.57445">
        <ele>209.64</ele>
        <time>2025-03-15T15:24:40.067Z</time>
      </trkpt>
      <trkpt lat="43.35589" lon="6.57453">
        <ele>208.38</ele>
        <time>2025-03-15T15:24:42.260Z</time>
      </trkpt>
      <trkpt lat="43.35587" lon="6.5746">
        <ele>207.13</ele>
        <time>2025-03-15T15:24:44.364Z</time>
      </trkpt>
      <trkpt lat="43.35586" lon="6.57468">
        <ele>205.89</ele>
        <time>2025-03-15T15:24:46.304Z</time>
      </trkpt>
      <trkpt lat="43.35584" lon="6.57474">
        <ele>204.65</ele>
        <time>2025-03-15T15:24:48.141Z</time>
      </trkpt>
      <trkpt lat="43.35583" lon="6.57479">
        <ele>203.41</ele>
        <time>2025-03-15T15:24:49.554Z</time>
      </trkpt>
      <trkpt lat="43.35582" lon="6.57484">
        <ele>202.21</ele>
        <time>2025-03-15T15:24:50.858Z</time>
      </trkpt>
      <trkpt lat="43.35581" lon="6.57487">
        <ele>201.02</ele>
        <time>2025-03-15T15:24:51.773Z</time>
      </trkpt>
      <trkpt lat="43.35581" lon="6.57491">
        <ele>199.83</ele>
        <time>2025-03-15T15:24:52.748Z</time>
      </trkpt>
      <trkpt lat="43.35579" lon="6.57493">
        <ele>198.65</ele>
        <time>2025-03-15T15:24:53.465Z</time>
      </trkpt>
      <trkpt lat="43.35578" lon="6.57495">
        <ele>197.45</ele>
        <time>2025-03-15T15:24:54.216Z</time>
      </trkpt>
      <trkpt lat="43.35576" lon="6.57498">
        <ele>196.25</ele>
        <time>2025-03-15T15:24:55.361Z</time>
      </trkpt>
      <trkpt lat="43.35573" lon="6.57504">
        <ele>195.03</ele>
        <time>2025-03-15T15:24:57.075Z</time>
      </trkpt>
      <trkpt lat="43.35569" lon="6.5751">
        <ele>193.8</ele>
        <time>2025-03-15T15:24:59.212Z</time>
      </trkpt>
      <trkpt lat="43.35564" lon="6.57516">
        <ele>192.56</ele>
        <time>2025-03-15T15:25:01.647Z</time>
      </trkpt>
      <trkpt lat="43.35558" lon="6.57524">
        <ele>191.4</ele>
        <time>2025-03-15T15:25:04.569Z</time>
      </trkpt>
      <trkpt lat="43.35554" lon="6.57531">
        <ele>190.24</ele>
        <time>2025-03-15T15:25:07.178Z</time>
      </trkpt>
      <trkpt lat="43.35549" lon="6.57539">
        <ele>189.05</ele>
        <time>2025-03-15T15:25:09.820Z</time>
      </trkpt>
      <trkpt lat="43.35545" lon="6.57548">
        <ele>187.85</ele>
        <time>2025-03-15T15:25:12.586Z</time>
      </trkpt>
      <trkpt lat="43.35542" lon="6.57558">
        <ele>186.69</ele>
        <time>2025-03-15T15:25:15.426Z</time>
      </trkpt>
      <trkpt lat="43.35538" lon="6.5757">
        <ele>185.49</ele>
        <time>2025-03-15T15:25:18.779Z</time>
      </trkpt>
      <trkpt lat="43.35536" lon="6.57584">
        <ele>184.37</ele>
        <time>2025-03-15T15:25:22.432Z</time>
      </trkpt>
      <trkpt lat="43.35535" lon="6.57596">
        <ele>183.22</ele>
        <time>2025-03-15T15:25:25.715Z</time>
      </trkpt>
      <trkpt lat="43.35534" lon="6.57608">
        <ele>182.11</ele>
        <time>2025-03-15T15:25:28.759Z</time>
      </trkpt>
      <trkpt lat="43.35533" lon="6.57618">
        <ele>181.01</ele>
        <time>2025-03-15T15:25:31.411Z</time>
      </trkpt>
      <trkpt lat="43.35532" lon="6.57627">
        <ele>179.95</ele>
        <time>2025-03-15T15:25:33.737Z</time>
      </trkpt>
      <trkpt lat="43.35531" lon="6.57635">
        <ele>178.95</ele>
        <time>2025-03-15T15:25:35.940Z</time>
      </trkpt>
      <trkpt lat="43.35528" lon="6.57642">
        <ele>177.97</ele>
        <time>2025-03-15T15:25:38.057Z</time>
      </trkpt>
      <trkpt lat="43.35524" lon="6.57647">
        <ele>177.02</ele>
        <time>2025-03-15T15:25:40.009Z</time>
      </trkpt>
      <trkpt lat="43.35519" lon="6.57653">
        <ele>176.07</ele>
        <time>2025-03-15T15:25:42.426Z</time>
      </trkpt>
      <trkpt lat="43.35514" lon="6.57661">
        <ele>175.13</ele>
        <time>2025-03-15T15:25:45.124Z</time>
      </trkpt>
      <trkpt lat="43.35511" lon="6.57671">
        <ele>174.27</ele>
        <time>2025-03-15T15:25:48.104Z</time>
      </trkpt>
      <trkpt lat="43.35509" lon="6.57682">
        <ele>173.44</ele>
        <time>2025-03-15T15:25:50.907Z</time>
      </trkpt>
      <trkpt lat="43.35507" lon="6.57692">
        <ele>172.67</ele>
        <time>2025-03-15T15:25:53.566Z</time>
      </trkpt>
      <trkpt lat="43.35504" lon="6.57699">
        <ele>171.93</ele>
        <time>2025-03-15T15:25:55.858Z</time>
      </trkpt>
      <trkpt lat="43.35501" lon="6.57705">
        <ele>171.23</ele>
        <time>2025-03-15T15:25:57.749Z</time>
      </trkpt>
      <trkpt lat="43.35497" lon="6.5771">
        <ele>170.58</ele>
        <time>2025-03-15T15:25:59.681Z</time>
      </trkpt>
      <trkpt lat="43.35494" lon="6.57714">
        <ele>169.96</ele>
        <time>2025-03-15T15:26:01.367Z</time>
      </trkpt>
      <trkpt lat="43.35491" lon="6.57719">
        <ele>169.38</ele>
        <time>2025-03-15T15:26:02.879Z</time>
      </trkpt>
      <trkpt lat="43.35489" lon="6.57721">
        <ele>168.86</ele>
        <time>2025-03-15T15:26:03.903Z</time>
      </trkpt>
      <trkpt lat="43.35485" lon="6.57726">
        <ele>168.38</ele>
        <time>2025-03-15T15:26:05.790Z</time>
      </trkpt>
      <trkpt lat="43.35484" lon="6.57727">
        <ele>167.94</ele>
        <time>2025-03-15T15:26:06.200Z</time>
      </trkpt>
      <trkpt lat="43.35483" lon="6.57728">
        <ele>167.54</ele>
        <time>2025-03-15T15:26:06.491Z</time>
      </trkpt>
      <trkpt lat="43.35483" lon="6.57728">
        <ele>167.18</ele>
        <time>2025-03-15T15:26:06.636Z</time>
      </trkpt>
      <trkpt lat="43.35483" lon="6.57728">
        <ele>166.86</ele>
        <time>2025-03-15T15:26:06.820Z</time>
      </trkpt>
      <trkpt lat="43.35481" lon="6.5773">
        <ele>166.56</ele>
        <time>2025-03-15T15:26:07.731Z</time>
      </trkpt>
      <trkpt lat="43.35472" lon="6.57736">
        <ele>166.29</ele>
        <time>2025-03-15T15:26:11.264Z</time>
      </trkpt>
      <trkpt lat="43.3547" lon="6.57738">
        <ele>166.07</ele>
        <time>2025-03-15T15:26:12.413Z</time>
      </trkpt>
      <trkpt lat="43.35467" lon="6.5774">
        <ele>165.87</ele>
        <time>2025-03-15T15:26:13.600Z</time>
      </trkpt>
      <trkpt lat="43.35461" lon="6.57745">
        <ele>165.69</ele>
        <time>2025-03-15T15:26:16.153Z</time>
      </trkpt>
      <trkpt lat="43.35454" lon="6.57753">
        <ele>165.58</ele>
        <time>2025-03-15T15:26:19.686Z</time>
      </trkpt>
      <trkpt lat="43.35446" lon="6.57766">
        <ele>165.45</ele>
        <time>2025-03-15T15:26:24.669Z</time>
      </trkpt>
      <trkpt lat="43.35438" lon="6.57777">
        <ele>165.38</ele>
        <time>2025-03-15T15:26:29.151Z</time>
      </trkpt>
      <trkpt lat="43.35423" lon="6.57785">
        <ele>165.33</ele>
        <time>2025-03-15T15:26:35.823Z</time>
      </trkpt>
      <trkpt lat="43.35417" lon="6.57788">
        <ele>165.32</ele>
        <time>2025-03-15T15:26:38.192Z</time>
      </trkpt>
      <trkpt lat="43.35411" lon="6.57791">
        <ele>165.35</ele>
        <time>2025-03-15T15:26:40.942Z</time>
      </trkpt>
      <trkpt lat="43.35404" lon="6.57793">
        <ele>165.39</ele>
        <time>2025-03-15T15:26:44.049Z</time>
      </trkpt>
      <trkpt lat="43.35398" lon="6.57793">
        <ele>165.47</ele>
        <time>2025-03-15T15:26:46.698Z</time>
      </trkpt>
      <trkpt lat="43.35392" lon="6.57794">
        <ele>165.58</ele>
        <time>2025-03-15T15:26:49.377Z</time>
      </trkpt>
      <trkpt lat="43.35386" lon="6.57796">
        <ele>165.72</ele>
        <time>2025-03-15T15:26:51.789Z</time>
      </trkpt>
      <trkpt lat="43.35382" lon="6.57799">
        <ele>165.89</ele>
        <time>2025-03-15T15:26:54.174Z</time>
      </trkpt>
      <trkpt lat="43.35377" lon="6.57801">
        <ele>166.08</ele>
        <time>2025-03-15T15:26:56.354Z</time>
      </trkpt>
      <trkpt lat="43.35367" lon="6.57807">
        <ele>166.35</ele>
        <time>2025-03-15T15:27:01.173Z</time>
      </trkpt>
      <trkpt lat="43.35364" lon="6.5781">
        <ele>166.59</ele>
        <time>2025-03-15T15:27:03.138Z</time>
      </trkpt>
      <trkpt lat="43.3536" lon="6.57811">
        <ele>166.86</ele>
        <time>2025-03-15T15:27:04.994Z</time>
      </trkpt>
      <trkpt lat="43.35357" lon="6.57812">
        <ele>167.16</ele>
        <time>2025-03-15T15:27:07.065Z</time>
      </trkpt>
      <trkpt lat="43.35353" lon="6.57814">
        <ele>167.47</ele>
        <time>2025-03-15T15:27:09.200Z</time>
      </trkpt>
      <trkpt lat="43.35345" lon="6.57814">
        <ele>167.81</ele>
        <time>2025-03-15T15:27:12.978Z</time>
      </trkpt>
      <trkpt lat="43.35341" lon="6.57813">
        <ele>168.15</ele>
        <time>2025-03-15T15:27:15.142Z</time>
      </trkpt>
      <trkpt lat="43.35337" lon="6.57812">
        <ele>168.51</ele>
        <time>2025-03-15T15:27:17.474Z</time>
      </trkpt>
      <trkpt lat="43.35333" lon="6.5781">
        <ele>168.87</ele>
        <time>2025-03-15T15:27:19.668Z</time>
      </trkpt>
      <trkpt lat="43.35329" lon="6.57808">
        <ele>169.23</ele>
        <time>2025-03-15T15:27:22.005Z</time>
      </trkpt>
      <trkpt lat="43.35317" lon="6.57809">
        <ele>169.62</ele>
        <time>2025-03-15T15:27:27.417Z</time>
      </trkpt>
      <trkpt lat="43.35311" lon="6.57823">
        <ele>169.97</ele>
        <time>2025-03-15T15:27:32.736Z</time>
      </trkpt>
      <trkpt lat="43.35309" lon="6.57834">
        <ele>170.33</ele>
        <time>2025-03-15T15:27:36.536Z</time>
      </trkpt>
      <trkpt lat="43.35306" lon="6.57855">
        <ele>170.68</ele>
        <time>2025-03-15T15:27:43.450Z</time>
      </trkpt>
      <trkpt lat="43.35305" lon="6.57866">
        <ele>171.02</ele>
        <time>2025-03-15T15:27:47.251Z</time>
      </trkpt>
      <trkpt lat="43.35305" lon="6.57872">
        <ele>171.36</ele>
        <time>2025-03-15T15:27:49.492Z</time>
      </trkpt>
      <trkpt lat="43.35303" lon="6.57876">
        <ele>171.7</ele>
        <time>2025-03-15T15:27:51.488Z</time>
      </trkpt>
      <trkpt lat="43.35303" lon="6.57881">
        <ele>172.04</ele>
        <time>2025-03-15T15:27:53.383Z</time>
      </trkpt>
      <trkpt lat="43.35301" lon="6.57886">
        <ele>172.38</ele>
        <time>2025-03-15T15:27:55.432Z</time>
      </trkpt>
      <trkpt lat="43.35296" lon="6.57916">
        <ele>172.72</ele>
        <time>2025-03-15T15:28:05.250Z</time>
      </trkpt>
      <trkpt lat="43.35286" lon="6.5792">
        <ele>173.02</ele>
        <time>2025-03-15T15:28:09.898Z</time>
      </trkpt>
      <trkpt lat="43.35283" lon="6.57918">
        <ele>173.35</ele>
        <time>2025-03-15T15:28:11.723Z</time>
      </trkpt>
      <trkpt lat="43.35281" lon="6.57917">
        <ele>173.67</ele>
        <time>2025-03-15T15:28:13.405Z</time>
      </trkpt>
      <trkpt lat="43.35279" lon="6.57914">
        <ele>174</ele>
        <time>2025-03-15T15:28:15.071Z</time>
      </trkpt>
      <trkpt lat="43.35277" lon="6.5791">
        <ele>174.33</ele>
        <time>2025-03-15T15:28:16.871Z</time>
      </trkpt>
      <trkpt lat="43.35278" lon="6.57907">
        <ele>174.65</ele>
        <time>2025-03-15T15:28:18.460Z</time>
      </trkpt>
      <trkpt lat="43.35278" lon="6.57903">
        <ele>174.97</ele>
        <time>2025-03-15T15:28:20.101Z</time>
      </trkpt>
      <trkpt lat="43.35278" lon="6.57899">
        <ele>175.28</ele>
        <time>2025-03-15T15:28:21.896Z</time>
      </trkpt>
      <trkpt lat="43.35279" lon="6.57896">
        <ele>175.57</ele>
        <time>2025-03-15T15:28:23.350Z</time>
      </trkpt>
      <trkpt lat="43.35279" lon="6.57893">
        <ele>175.82</ele>
        <time>2025-03-15T15:28:24.679Z</time>
      </trkpt>
      <trkpt lat="43.35278" lon="6.57889">
        <ele>176.08</ele>
        <time>2025-03-15T15:28:26.293Z</time>
      </trkpt>
      <trkpt lat="43.35276" lon="6.57885">
        <ele>176.33</ele>
        <time>2025-03-15T15:28:28.111Z</time>
      </trkpt>
      <trkpt lat="43.35266" lon="6.57874">
        <ele>176.57</ele>
        <time>2025-03-15T15:28:33.622Z</time>
      </trkpt>
      <trkpt lat="43.35264" lon="6.57874">
        <ele>176.78</ele>
        <time>2025-03-15T15:28:34.964Z</time>
      </trkpt>
      <trkpt lat="43.35261" lon="6.57875">
        <ele>176.98</ele>
        <time>2025-03-15T15:28:36.203Z</time>
      </trkpt>
      <trkpt lat="43.35259" lon="6.57875">
        <ele>177.17</ele>
        <time>2025-03-15T15:28:37.452Z</time>
      </trkpt>
      <trkpt lat="43.35257" lon="6.57875">
        <ele>177.33</ele>
        <time>2025-03-15T15:28:38.619Z</time>
      </trkpt>
      <trkpt lat="43.3525" lon="6.57874">
        <ele>177.45</ele>
        <time>2025-03-15T15:28:41.744Z</time>
      </trkpt>
      <trkpt lat="43.35237" lon="6.57863">
        <ele>177.57</ele>
        <time>2025-03-15T15:28:48.110Z</time>
      </trkpt>
      <trkpt lat="43.35234" lon="6.57859">
        <ele>177.69</ele>
        <time>2025-03-15T15:28:49.805Z</time>
      </trkpt>
      <trkpt lat="43.35232" lon="6.57857">
        <ele>177.79</ele>
        <time>2025-03-15T15:28:51.135Z</time>
      </trkpt>
      <trkpt lat="43.3523" lon="6.57853">
        <ele>177.88</ele>
        <time>2025-03-15T15:28:52.667Z</time>
      </trkpt>
      <trkpt lat="43.35228" lon="6.57849">
        <ele>177.95</ele>
        <time>2025-03-15T15:28:53.997Z</time>
      </trkpt>
      <trkpt lat="43.35228" lon="6.57848">
        <ele>178.01</ele>
        <time>2025-03-15T15:28:54.484Z</time>
      </trkpt>
      <trkpt lat="43.35229" lon="6.57845">
        <ele>178.06</ele>
        <time>2025-03-15T15:28:55.501Z</time>
      </trkpt>
      <trkpt lat="43.35229" lon="6.57844">
        <ele>178.07</ele>
        <time>2025-03-15T15:28:55.962Z</time>
      </trkpt>
      <trkpt lat="43.35228" lon="6.5784">
        <ele>178.06</ele>
        <time>2025-03-15T15:28:57.270Z</time>
      </trkpt>
      <trkpt lat="43.35228" lon="6.57839">
        <ele>178.02</ele>
        <time>2025-03-15T15:28:57.461Z</time>
      </trkpt>
      <trkpt lat="43.35228" lon="6.57839">
        <ele>177.95</ele>
        <time>2025-03-15T15:28:57.499Z</time>
      </trkpt>
      <trkpt lat="43.35227" lon="6.57838">
        <ele>177.86</ele>
        <time>2025-03-15T15:28:57.738Z</time>
      </trkpt>
      <trkpt lat="43.35225" lon="6.57832">
        <ele>177.73</ele>
        <time>2025-03-15T15:28:59.796Z</time>
      </trkpt>
      <trkpt lat="43.35216" lon="6.57815">
        <ele>177.55</ele>
        <time>2025-03-15T15:29:05.611Z</time>
      </trkpt>
      <trkpt lat="43.35213" lon="6.5781">
        <ele>177.34</ele>
        <time>2025-03-15T15:29:07.401Z</time>
      </trkpt>
      <trkpt lat="43.35212" lon="6.57805">
        <ele>177.1</ele>
        <time>2025-03-15T15:29:08.699Z</time>
      </trkpt>
      <trkpt lat="43.35209" lon="6.57802">
        <ele>176.81</ele>
        <time>2025-03-15T15:29:10.018Z</time>
      </trkpt>
      <trkpt lat="43.35207" lon="6.57801">
        <ele>176.48</ele>
        <time>2025-03-15T15:29:10.927Z</time>
      </trkpt>
      <trkpt lat="43.35205" lon="6.57802">
        <ele>176.11</ele>
        <time>2025-03-15T15:29:11.565Z</time>
      </trkpt>
      <trkpt lat="43.35204" lon="6.57804">
        <ele>175.69</ele>
        <time>2025-03-15T15:29:12.399Z</time>
      </trkpt>
      <trkpt lat="43.35204" lon="6.57809">
        <ele>175.23</ele>
        <time>2025-03-15T15:29:13.528Z</time>
      </trkpt>
      <trkpt lat="43.35204" lon="6.57815">
        <ele>174.71</ele>
        <time>2025-03-15T15:29:15.119Z</time>
      </trkpt>
      <trkpt lat="43.35204" lon="6.57822">
        <ele>174.14</ele>
        <time>2025-03-15T15:29:16.894Z</time>
      </trkpt>
      <trkpt lat="43.35202" lon="6.57829">
        <ele>173.49</ele>
        <time>2025-03-15T15:29:18.851Z</time>
      </trkpt>
      <trkpt lat="43.35202" lon="6.57837">
        <ele>172.8</ele>
        <time>2025-03-15T15:29:21.117Z</time>
      </trkpt>
      <trkpt lat="43.35203" lon="6.57847">
        <ele>172.06</ele>
        <time>2025-03-15T15:29:23.548Z</time>
      </trkpt>
      <trkpt lat="43.35203" lon="6.57857">
        <ele>171.24</ele>
        <time>2025-03-15T15:29:26.226Z</time>
      </trkpt>
      <trkpt lat="43.35203" lon="6.57867">
        <ele>170.37</ele>
        <time>2025-03-15T15:29:28.764Z</time>
      </trkpt>
      <trkpt lat="43.35203" lon="6.57876">
        <ele>169.46</ele>
        <time>2025-03-15T15:29:31.137Z</time>
      </trkpt>
      <trkpt lat="43.35203" lon="6.57884">
        <ele>168.49</ele>
        <time>2025-03-15T15:29:33.305Z</time>
      </trkpt>
      <trkpt lat="43.35204" lon="6.57891">
        <ele>167.49</ele>
        <time>2025-03-15T15:29:35.190Z</time>
      </trkpt>
      <trkpt lat="43.35204" lon="6.57898">
        <ele>166.45</ele>
        <time>2025-03-15T15:29:37.093Z</time>
      </trkpt>
      <trkpt lat="43.35205" lon="6.57906">
        <ele>165.38</ele>
        <time>2025-03-15T15:29:39.221Z</time>
      </trkpt>
      <trkpt lat="43.35206" lon="6.57915">
        <ele>164.26</ele>
        <time>2025-03-15T15:29:41.570Z</time>
      </trkpt>
      <trkpt lat="43.35209" lon="6.57925">
        <ele>163.11</ele>
        <time>2025-03-15T15:29:44.202Z</time>
      </trkpt>
      <trkpt lat="43.35209" lon="6.57933">
        <ele>161.9</ele>
        <time>2025-03-15T15:29:46.446Z</time>
      </trkpt>
      <trkpt lat="43.35209" lon="6.57944">
        <ele>160.63</ele>
        <time>2025-03-15T15:29:49.257Z</time>
      </trkpt>
      <trkpt lat="43.35208" lon="6.57954">
        <ele>159.34</ele>
        <time>2025-03-15T15:29:51.834Z</time>
      </trkpt>
      <trkpt lat="43.35206" lon="6.57964">
        <ele>158.01</ele>
        <time>2025-03-15T15:29:54.588Z</time>
      </trkpt>
      <trkpt lat="43.35205" lon="6.57974">
        <ele>156.64</ele>
        <time>2025-03-15T15:29:57.297Z</time>
      </trkpt>
      <trkpt lat="43.35204" lon="6.57984">
        <ele>155.25</ele>
        <time>2025-03-15T15:29:59.907Z</time>
      </trkpt>
      <trkpt lat="43.35204" lon="6.57995">
        <ele>153.87</ele>
        <time>2025-03-15T15:30:02.771Z</time>
      </trkpt>
      <trkpt lat="43.35204" lon="6.58007">
        <ele>152.49</ele>
        <time>2025-03-15T15:30:05.830Z</time>
      </trkpt>
      <trkpt lat="43.35201" lon="6.5802">
        <ele>151.08</ele>
        <time>2025-03-15T15:30:09.327Z</time>
      </trkpt>
      <trkpt lat="43.35198" lon="6.58031">
        <ele>149.7</ele>
        <time>2025-03-15T15:30:12.544Z</time>
      </trkpt>
      <trkpt lat="43.35195" lon="6.58044">
        <ele>148.32</ele>
        <time>2025-03-15T15:30:16.034Z</time>
      </trkpt>
      <trkpt lat="43.3519" lon="6.58056">
        <ele>146.94</ele>
        <time>2025-03-15T15:30:19.642Z</time>
      </trkpt>
      <trkpt lat="43.35186" lon="6.58069">
        <ele>145.58</ele>
        <time>2025-03-15T15:30:23.406Z</time>
      </trkpt>
      <trkpt lat="43.35183" lon="6.58083">
        <ele>144.27</ele>
        <time>2025-03-15T15:30:27.038Z</time>
      </trkpt>
      <trkpt lat="43.35181" lon="6.58095">
        <ele>143.06</ele>
        <time>2025-03-15T15:30:30.431Z</time>
      </trkpt>
      <trkpt lat="43.3518" lon="6.58108">
        <ele>141.89</ele>
        <time>2025-03-15T15:30:33.873Z</time>
      </trkpt>
      <trkpt lat="43.35182" lon="6.58121">
        <ele>140.8</ele>
        <time>2025-03-15T15:30:37.361Z</time>
      </trkpt>
      <trkpt lat="43.35188" lon="6.58132">
        <ele>139.76</ele>
        <time>2025-03-15T15:30:40.759Z</time>
      </trkpt>
      <trkpt lat="43.35194" lon="6.58142">
        <ele>138.74</ele>
        <time>2025-03-15T15:30:44.180Z</time>
      </trkpt>
      <trkpt lat="43.35198" lon="6.58153">
        <ele>137.73</ele>
        <time>2025-03-15T15:30:47.360Z</time>
      </trkpt>
      <trkpt lat="43.352" lon="6.58163">
        <ele>136.77</ele>
        <time>2025-03-15T15:30:50.164Z</time>
      </trkpt>
      <trkpt lat="43.352" lon="6.58172">
        <ele>135.86</ele>
        <time>2025-03-15T15:30:52.511Z</time>
      </trkpt>
      <trkpt lat="43.35197" lon="6.58179">
        <ele>134.99</ele>
        <time>2025-03-15T15:30:54.600Z</time>
      </trkpt>
      <trkpt lat="43.35191" lon="6.58191">
        <ele>134.17</ele>
        <time>2025-03-15T15:30:58.502Z</time>
      </trkpt>
      <trkpt lat="43.35186" lon="6.58196">
        <ele>133.35</ele>
        <time>2025-03-15T15:31:00.541Z</time>
      </trkpt>
      <trkpt lat="43.35182" lon="6.58202">
        <ele>132.55</ele>
        <time>2025-03-15T15:31:02.845Z</time>
      </trkpt>
      <trkpt lat="43.35177" lon="6.58209">
        <ele>131.77</ele>
        <time>2025-03-15T15:31:05.409Z</time>
      </trkpt>
      <trkpt lat="43.35172" lon="6.58217">
        <ele>131.03</ele>
        <time>2025-03-15T15:31:07.975Z</time>
      </trkpt>
      <trkpt lat="43.35168" lon="6.58226">
        <ele>130.33</ele>
        <time>2025-03-15T15:31:10.671Z</time>
      </trkpt>
      <trkpt lat="43.35165" lon="6.58234">
        <ele>129.66</ele>
        <time>2025-03-15T15:31:13.233Z</time>
      </trkpt>
      <trkpt lat="43.35159" lon="6.58242">
        <ele>129.01</ele>
        <time>2025-03-15T15:31:16.062Z</time>
      </trkpt>
      <trkpt lat="43.35154" lon="6.58249">
        <ele>128.39</ele>
        <time>2025-03-15T15:31:18.793Z</time>
      </trkpt>
      <trkpt lat="43.35147" lon="6.58254">
        <ele>127.81</ele>
        <time>2025-03-15T15:31:21.625Z</time>
      </trkpt>
      <trkpt lat="43.35139" lon="6.58258">
        <ele>127.24</ele>
        <time>2025-03-15T15:31:24.536Z</time>
      </trkpt>
      <trkpt lat="43.35133" lon="6.58262">
        <ele>126.73</ele>
        <time>2025-03-15T15:31:27.113Z</time>
      </trkpt>
      <trkpt lat="43.35128" lon="6.58269">
        <ele>126.22</ele>
        <time>2025-03-15T15:31:29.586Z</time>
      </trkpt>
      <trkpt lat="43.35122" lon="6.58274">
        <ele>125.76</ele>
        <time>2025-03-15T15:31:31.980Z</time>
      </trkpt>
      <trkpt lat="43.35116" lon="6.58278">
        <ele>125.36</ele>
        <time>2025-03-15T15:31:34.464Z</time>
      </trkpt>
      <trkpt lat="43.3511" lon="6.58283">
        <ele>124.98</ele>
        <time>2025-03-15T15:31:37.069Z</time>
      </trkpt>
      <trkpt lat="43.35104" lon="6.58287">
        <ele>124.66</ele>
        <time>2025-03-15T15:31:39.573Z</time>
      </trkpt>
      <trkpt lat="43.35098" lon="6.58293">
        <ele>124.36</ele>
        <time>2025-03-15T15:31:42.079Z</time>
      </trkpt>
      <trkpt lat="43.35094" lon="6.58302">
        <ele>124.12</ele>
        <time>2025-03-15T15:31:45.028Z</time>
      </trkpt>
      <trkpt lat="43.3509" lon="6.58311">
        <ele>123.93</ele>
        <time>2025-03-15T15:31:47.880Z</time>
      </trkpt>
      <trkpt lat="43.35085" lon="6.58319">
        <ele>123.77</ele>
        <time>2025-03-15T15:31:50.691Z</time>
      </trkpt>
      <trkpt lat="43.35081" lon="6.58328">
        <ele>123.68</ele>
        <time>2025-03-15T15:31:53.718Z</time>
      </trkpt>
      <trkpt lat="43.35076" lon="6.58336">
        <ele>123.6</ele>
        <time>2025-03-15T15:31:57.015Z</time>
      </trkpt>
      <trkpt lat="43.35068" lon="6.58344">
        <ele>123.53</ele>
        <time>2025-03-15T15:32:00.678Z</time>
      </trkpt>
      <trkpt lat="43.35061" lon="6.58354">
        <ele>123.49</ele>
        <time>2025-03-15T15:32:04.716Z</time>
      </trkpt>
      <trkpt lat="43.35055" lon="6.58362">
        <ele>123.49</ele>
        <time>2025-03-15T15:32:08.532Z</time>
      </trkpt>
      <trkpt lat="43.35048" lon="6.58369">
        <ele>123.49</ele>
        <time>2025-03-15T15:32:12.064Z</time>
      </trkpt>
      <trkpt lat="43.35042" lon="6.58376">
        <ele>123.5</ele>
        <time>2025-03-15T15:32:15.183Z</time>
      </trkpt>
      <trkpt lat="43.35037" lon="6.58383">
        <ele>123.54</ele>
        <time>2025-03-15T15:32:18.175Z</time>
      </trkpt>
      <trkpt lat="43.35032" lon="6.5839">
        <ele>123.6</ele>
        <time>2025-03-15T15:32:21.212Z</time>
      </trkpt>
      <trkpt lat="43.35023" lon="6.58405">
        <ele>123.63</ele>
        <time>2025-03-15T15:32:26.967Z</time>
      </trkpt>
      <trkpt lat="43.35019" lon="6.58412">
        <ele>123.62</ele>
        <time>2025-03-15T15:32:29.528Z</time>
      </trkpt>
      <trkpt lat="43.35009" lon="6.58429">
        <ele>123.62</ele>
        <time>2025-03-15T15:32:36.173Z</time>
      </trkpt>
      <trkpt lat="43.35006" lon="6.58434">
        <ele>123.59</ele>
        <time>2025-03-15T15:32:38.040Z</time>
      </trkpt>
      <trkpt lat="43.35001" lon="6.58443">
        <ele>123.54</ele>
        <time>2025-03-15T15:32:41.409Z</time>
      </trkpt>
      <trkpt lat="43.35" lon="6.58448">
        <ele>123.44</ele>
        <time>2025-03-15T15:32:42.916Z</time>
      </trkpt>
      <trkpt lat="43.34998" lon="6.58453">
        <ele>123.29</ele>
        <time>2025-03-15T15:32:44.287Z</time>
      </trkpt>
      <trkpt lat="43.34996" lon="6.58457">
        <ele>123.1</ele>
        <time>2025-03-15T15:32:45.566Z</time>
      </trkpt>
      <trkpt lat="43.34995" lon="6.58461">
        <ele>122.85</ele>
        <time>2025-03-15T15:32:46.774Z</time>
      </trkpt>
      <trkpt lat="43.34993" lon="6.58478">
        <ele>122.56</ele>
        <time>2025-03-15T15:32:51.495Z</time>
      </trkpt>
      <trkpt lat="43.34986" lon="6.58499">
        <ele>122.21</ele>
        <time>2025-03-15T15:32:58.008Z</time>
      </trkpt>
      <trkpt lat="43.34968" lon="6.58508">
        <ele>121.74</ele>
        <time>2025-03-15T15:33:05.090Z</time>
      </trkpt>
      <trkpt lat="43.34962" lon="6.58509">
        <ele>121.21</ele>
        <time>2025-03-15T15:33:07.489Z</time>
      </trkpt>
      <trkpt lat="43.34955" lon="6.58506">
        <ele>120.6</ele>
        <time>2025-03-15T15:33:09.964Z</time>
      </trkpt>
      <trkpt lat="43.34948" lon="6.58503">
        <ele>119.91</ele>
        <time>2025-03-15T15:33:12.625Z</time>
      </trkpt>
      <trkpt lat="43.34941" lon="6.58498">
        <ele>119.14</ele>
        <time>2025-03-15T15:33:15.609Z</time>
      </trkpt>
      <trkpt lat="43.34932" lon="6.58494">
        <ele>118.25</ele>
        <time>2025-03-15T15:33:18.774Z</time>
      </trkpt>
      <trkpt lat="43.34923" lon="6.58491">
        <ele>117.31</ele>
        <time>2025-03-15T15:33:22.212Z</time>
      </trkpt>
      <trkpt lat="43.34912" lon="6.5849">
        <ele>116.3</ele>
        <time>2025-03-15T15:33:26.036Z</time>
      </trkpt>
      <trkpt lat="43.34902" lon="6.58488">
        <ele>115.22</ele>
        <time>2025-03-15T15:33:29.781Z</time>
      </trkpt>
      <trkpt lat="43.34892" lon="6.58484">
        <ele>114.07</ele>
        <time>2025-03-15T15:33:33.705Z</time>
      </trkpt>
      <trkpt lat="43.34881" lon="6.58479">
        <ele>112.88</ele>
        <time>2025-03-15T15:33:37.785Z</time>
      </trkpt>
      <trkpt lat="43.3487" lon="6.58473">
        <ele>111.67</ele>
        <time>2025-03-15T15:33:41.840Z</time>
      </trkpt>
      <trkpt lat="43.3486" lon="6.58471">
        <ele>110.45</ele>
        <time>2025-03-15T15:33:45.801Z</time>
      </trkpt>
      <trkpt lat="43.34848" lon="6.58469">
        <ele>109.19</ele>
        <time>2025-03-15T15:33:49.925Z</time>
      </trkpt>
      <trkpt lat="43.34838" lon="6.58468">
        <ele>107.91</ele>
        <time>2025-03-15T15:33:53.629Z</time>
      </trkpt>
      <trkpt lat="43.34829" lon="6.5847">
        <ele>106.64</ele>
        <time>2025-03-15T15:33:56.909Z</time>
      </trkpt>
      <trkpt lat="43.3482" lon="6.58472">
        <ele>105.34</ele>
        <time>2025-03-15T15:33:59.982Z</time>
      </trkpt>
      <trkpt lat="43.34812" lon="6.58475">
        <ele>104.03</ele>
        <time>2025-03-15T15:34:03.075Z</time>
      </trkpt>
      <trkpt lat="43.34804" lon="6.58478">
        <ele>102.7</ele>
        <time>2025-03-15T15:34:06.109Z</time>
      </trkpt>
      <trkpt lat="43.34797" lon="6.58478">
        <ele>101.35</ele>
        <time>2025-03-15T15:34:08.771Z</time>
      </trkpt>
      <trkpt lat="43.3479" lon="6.58475">
        <ele>99.99</ele>
        <time>2025-03-15T15:34:11.391Z</time>
      </trkpt>
      <trkpt lat="43.34785" lon="6.58468">
        <ele>98.58</ele>
        <time>2025-03-15T15:34:13.754Z</time>
      </trkpt>
      <trkpt lat="43.34784" lon="6.58457">
        <ele>97.15</ele>
        <time>2025-03-15T15:34:16.647Z</time>
      </trkpt>
      <trkpt lat="43.34785" lon="6.58447">
        <ele>95.76</ele>
        <time>2025-03-15T15:34:19.320Z</time>
      </trkpt>
      <trkpt lat="43.34785" lon="6.58438">
        <ele>94.38</ele>
        <time>2025-03-15T15:34:21.727Z</time>
      </trkpt>
      <trkpt lat="43.34781" lon="6.5843">
        <ele>93.02</ele>
        <time>2025-03-15T15:34:24.193Z</time>
      </trkpt>
      <trkpt lat="43.34775" lon="6.58425">
        <ele>91.68</ele>
        <time>2025-03-15T15:34:26.867Z</time>
      </trkpt>
      <trkpt lat="43.34768" lon="6.58421">
        <ele>90.42</ele>
        <time>2025-03-15T15:34:29.549Z</time>
      </trkpt>
      <trkpt lat="43.3476" lon="6.58419">
        <ele>89.2</ele>
        <time>2025-03-15T15:34:32.487Z</time>
      </trkpt>
      <trkpt lat="43.34752" lon="6.58413">
        <ele>88.02</ele>
        <time>2025-03-15T15:34:35.569Z</time>
      </trkpt>
      <trkpt lat="43.34745" lon="6.58407">
        <ele>86.86</ele>
        <time>2025-03-15T15:34:38.832Z</time>
      </trkpt>
      <trkpt lat="43.34737" lon="6.58398">
        <ele>85.73</ele>
        <time>2025-03-15T15:34:42.331Z</time>
      </trkpt>
      <trkpt lat="43.3473" lon="6.58388">
        <ele>84.63</ele>
        <time>2025-03-15T15:34:45.967Z</time>
      </trkpt>
      <trkpt lat="43.34725" lon="6.58376">
        <ele>83.56</ele>
        <time>2025-03-15T15:34:49.917Z</time>
      </trkpt>
      <trkpt lat="43.34719" lon="6.58363">
        <ele>82.54</ele>
        <time>2025-03-15T15:34:53.653Z</time>
      </trkpt>
      <trkpt lat="43.34715" lon="6.58351">
        <ele>81.56</ele>
        <time>2025-03-15T15:34:57.268Z</time>
      </trkpt>
      <trkpt lat="43.3471" lon="6.58337">
        <ele>80.62</ele>
        <time>2025-03-15T15:35:01.227Z</time>
      </trkpt>
      <trkpt lat="43.34707" lon="6.58324">
        <ele>79.76</ele>
        <time>2025-03-15T15:35:04.905Z</time>
      </trkpt>
      <trkpt lat="43.34704" lon="6.5831">
        <ele>78.94</ele>
        <time>2025-03-15T15:35:08.677Z</time>
      </trkpt>
      <trkpt lat="43.34698" lon="6.58301">
        <ele>78.18</ele>
        <time>2025-03-15T15:35:11.856Z</time>
      </trkpt>
      <trkpt lat="43.34691" lon="6.58293">
        <ele>77.48</ele>
        <time>2025-03-15T15:35:15.131Z</time>
      </trkpt>
      <trkpt lat="43.34683" lon="6.58288">
        <ele>76.82</ele>
        <time>2025-03-15T15:35:18.211Z</time>
      </trkpt>
      <trkpt lat="43.34676" lon="6.58283">
        <ele>76.21</ele>
        <time>2025-03-15T15:35:21.210Z</time>
      </trkpt>
      <trkpt lat="43.34668" lon="6.58279">
        <ele>75.64</ele>
        <time>2025-03-15T15:35:24.356Z</time>
      </trkpt>
      <trkpt lat="43.3466" lon="6.58276">
        <ele>75.13</ele>
        <time>2025-03-15T15:35:27.290Z</time>
      </trkpt>
      <trkpt lat="43.34653" lon="6.58272">
        <ele>74.68</ele>
        <time>2025-03-15T15:35:29.872Z</time>
      </trkpt>
      <trkpt lat="43.34645" lon="6.58268">
        <ele>74.27</ele>
        <time>2025-03-15T15:35:32.887Z</time>
      </trkpt>
      <trkpt lat="43.34637" lon="6.58265">
        <ele>73.9</ele>
        <time>2025-03-15T15:35:36.043Z</time>
      </trkpt>
      <trkpt lat="43.34628" lon="6.58261">
        <ele>73.57</ele>
        <time>2025-03-15T15:35:39.309Z</time>
      </trkpt>
      <trkpt lat="43.3462" lon="6.58257">
        <ele>73.27</ele>
        <time>2025-03-15T15:35:42.585Z</time>
      </trkpt>
      <trkpt lat="43.34612" lon="6.58257">
        <ele>73.01</ele>
        <time>2025-03-15T15:35:45.582Z</time>
      </trkpt>
      <trkpt lat="43.34605" lon="6.58261">
        <ele>72.77</ele>
        <time>2025-03-15T15:35:48.416Z</time>
      </trkpt>
      <trkpt lat="43.34599" lon="6.58266">
        <ele>72.56</ele>
        <time>2025-03-15T15:35:51.230Z</time>
      </trkpt>
      <trkpt lat="43.34592" lon="6.58272">
        <ele>72.38</ele>
        <time>2025-03-15T15:35:54.263Z</time>
      </trkpt>
      <trkpt lat="43.34585" lon="6.58276">
        <ele>72.22</ele>
        <time>2025-03-15T15:35:57.171Z</time>
      </trkpt>
      <trkpt lat="43.34578" lon="6.58279">
        <ele>72.09</ele>
        <time>2025-03-15T15:35:59.974Z</time>
      </trkpt>
      <trkpt lat="43.34571" lon="6.58281">
        <ele>72</ele>
        <time>2025-03-15T15:36:03.071Z</time>
      </trkpt>
      <trkpt lat="43.34549" lon="6.58292">
        <ele>71.92</ele>
        <time>2025-03-15T15:36:12.180Z</time>
      </trkpt>
      <trkpt lat="43.3454" lon="6.58306">
        <ele>71.89</ele>
        <time>2025-03-15T15:36:17.883Z</time>
      </trkpt>
      <trkpt lat="43.34536" lon="6.58312">
        <ele>71.89</ele>
        <time>2025-03-15T15:36:20.299Z</time>
      </trkpt>
      <trkpt lat="43.34533" lon="6.58317">
        <ele>71.9</ele>
        <time>2025-03-15T15:36:22.248Z</time>
      </trkpt>
      <trkpt lat="43.3453" lon="6.5832">
        <ele>71.93</ele>
        <time>2025-03-15T15:36:23.859Z</time>
      </trkpt>
      <trkpt lat="43.34526" lon="6.58321">
        <ele>71.96</ele>
        <time>2025-03-15T15:36:25.405Z</time>
      </trkpt>
      <trkpt lat="43.3452" lon="6.58324">
        <ele>72</ele>
        <time>2025-03-15T15:36:28.012Z</time>
      </trkpt>
      <trkpt lat="43.34517" lon="6.58326">
        <ele>72.05</ele>
        <time>2025-03-15T15:36:29.539Z</time>
      </trkpt>
      <trkpt lat="43.34517" lon="6.58326">
        <ele>72.08</ele>
        <time>2025-03-15T15:36:29.746Z</time>
      </trkpt>
      <trkpt lat="43.34517" lon="6.58326">
        <ele>72.12</ele>
        <time>2025-03-15T15:36:29.913Z</time>
      </trkpt>
      <trkpt lat="43.34517" lon="6.58326">
        <ele>72.15</ele>
        <time>2025-03-15T15:36:30.084Z</time>
      </trkpt>
      <trkpt lat="43.34517" lon="6.58327">
        <ele>72.17</ele>
        <time>2025-03-15T15:36:30.177Z</time>
      </trkpt>
      <trkpt lat="43.34517" lon="6.58326">
        <ele>72.17</ele>
        <time>2025-03-15T15:36:30.279Z</time>
      </trkpt>
      <trkpt lat="43.34516" lon="6.58326">
        <ele>72.16</ele>
        <time>2025-03-15T15:36:30.744Z</time>
      </trkpt>
      <trkpt lat="43.34514" lon="6.58328">
        <ele>72.14</ele>
        <time>2025-03-15T15:36:31.482Z</time>
      </trkpt>
      <trkpt lat="43.34513" lon="6.5833">
        <ele>72.09</ele>
        <time>2025-03-15T15:36:32.216Z</time>
      </trkpt>
      <trkpt lat="43.34511" lon="6.58333">
        <ele>72.01</ele>
        <time>2025-03-15T15:36:33.289Z</time>
      </trkpt>
      <trkpt lat="43.34508" lon="6.5834">
        <ele>71.91</ele>
        <time>2025-03-15T15:36:35.647Z</time>
      </trkpt>
      <trkpt lat="43.34506" lon="6.58344">
        <ele>71.79</ele>
        <time>2025-03-15T15:36:36.895Z</time>
      </trkpt>
      <trkpt lat="43.34501" lon="6.58352">
        <ele>71.64</ele>
        <time>2025-03-15T15:36:39.972Z</time>
      </trkpt>
      <trkpt lat="43.34498" lon="6.58357">
        <ele>71.47</ele>
        <time>2025-03-15T15:36:41.547Z</time>
      </trkpt>
      <trkpt lat="43.3449" lon="6.58372">
        <ele>71.27</ele>
        <time>2025-03-15T15:36:46.832Z</time>
      </trkpt>
      <trkpt lat="43.34485" lon="6.58381">
        <ele>71.04</ele>
        <time>2025-03-15T15:36:49.938Z</time>
      </trkpt>
      <trkpt lat="43.3448" lon="6.58391">
        <ele>70.75</ele>
        <time>2025-03-15T15:36:53.322Z</time>
      </trkpt>
      <trkpt lat="43.34477" lon="6.58396">
        <ele>70.44</ele>
        <time>2025-03-15T15:36:54.991Z</time>
      </trkpt>
      <trkpt lat="43.34475" lon="6.58401">
        <ele>70.1</ele>
        <time>2025-03-15T15:36:56.610Z</time>
      </trkpt>
      <trkpt lat="43.34468" lon="6.58418">
        <ele>69.69</ele>
        <time>2025-03-15T15:37:01.895Z</time>
      </trkpt>
      <trkpt lat="43.34464" lon="6.58431">
        <ele>69.29</ele>
        <time>2025-03-15T15:37:05.565Z</time>
      </trkpt>
      <trkpt lat="43.34461" lon="6.58449">
        <ele>68.85</ele>
        <time>2025-03-15T15:37:10.615Z</time>
      </trkpt>
      <trkpt lat="43.34459" lon="6.58478">
        <ele>68.44</ele>
        <time>2025-03-15T15:37:18.782Z</time>
      </trkpt>
      <trkpt lat="43.34457" lon="6.58484">
        <ele>67.98</ele>
        <time>2025-03-15T15:37:20.425Z</time>
      </trkpt>
      <trkpt lat="43.34456" lon="6.5849">
        <ele>67.5</ele>
        <time>2025-03-15T15:37:22.112Z</time>
      </trkpt>
      <trkpt lat="43.34456" lon="6.58497">
        <ele>66.99</ele>
        <time>2025-03-15T15:37:23.907Z</time>
      </trkpt>
      <trkpt lat="43.34455" lon="6.58504">
        <ele>66.47</ele>
        <time>2025-03-15T15:37:25.730Z</time>
      </trkpt>
      <trkpt lat="43.34453" lon="6.58511">
        <ele>65.94</ele>
        <time>2025-03-15T15:37:27.644Z</time>
      </trkpt>
      <trkpt lat="43.34451" lon="6.58533">
        <ele>65.38</ele>
        <time>2025-03-15T15:37:33.622Z</time>
      </trkpt>
      <trkpt lat="43.34449" lon="6.5854">
        <ele>64.83</ele>
        <time>2025-03-15T15:37:35.624Z</time>
      </trkpt>
      <trkpt lat="43.34445" lon="6.58562">
        <ele>64.26</ele>
        <time>2025-03-15T15:37:41.584Z</time>
      </trkpt>
      <trkpt lat="43.34443" lon="6.58569">
        <ele>63.73</ele>
        <time>2025-03-15T15:37:43.700Z</time>
      </trkpt>
      <trkpt lat="43.34441" lon="6.58577">
        <ele>63.21</ele>
        <time>2025-03-15T15:37:45.915Z</time>
      </trkpt>
      <trkpt lat="43.34439" lon="6.58586">
        <ele>62.72</ele>
        <time>2025-03-15T15:37:48.240Z</time>
      </trkpt>
      <trkpt lat="43.34437" lon="6.58593">
        <ele>62.25</ele>
        <time>2025-03-15T15:37:50.435Z</time>
      </trkpt>
      <trkpt lat="43.34428" lon="6.58614">
        <ele>61.78</ele>
        <time>2025-03-15T15:37:56.963Z</time>
      </trkpt>
      <trkpt lat="43.34418" lon="6.58633">
        <ele>61.31</ele>
        <time>2025-03-15T15:38:03.328Z</time>
      </trkpt>
      <trkpt lat="43.34407" lon="6.58655">
        <ele>60.87</ele>
        <time>2025-03-15T15:38:10.998Z</time>
      </trkpt>
      <trkpt lat="43.34405" lon="6.58661">
        <ele>60.56</ele>
        <time>2025-03-15T15:38:12.644Z</time>
      </trkpt>
      <trkpt lat="43.34396" lon="6.58687">
        <ele>60.25</ele>
        <time>2025-03-15T15:38:20.991Z</time>
      </trkpt>
      <trkpt lat="43.34384" lon="6.58733">
        <ele>60.1</ele>
        <time>2025-03-15T15:38:35.316Z</time>
      </trkpt>
      <trkpt lat="43.34374" lon="6.58762">
        <ele>60.06</ele>
        <time>2025-03-15T15:38:45.030Z</time>
      </trkpt>
      <trkpt lat="43.34373" lon="6.58765">
        <ele>60.03</ele>
        <time>2025-03-15T15:38:45.686Z</time>
      </trkpt>
      <trkpt lat="43.34362" lon="6.58787">
        <ele>60.04</ele>
        <time>2025-03-15T15:38:53.814Z</time>
      </trkpt>
      <trkpt lat="43.3435" lon="6.58819">
        <ele>60.14</ele>
        <time>2025-03-15T15:39:04.740Z</time>
      </trkpt>
      <trkpt lat="43.34338" lon="6.58851">
        <ele>60.34</ele>
        <time>2025-03-15T15:39:15.761Z</time>
      </trkpt>
      <trkpt lat="43.34332" lon="6.58876">
        <ele>60.66</ele>
        <time>2025-03-15T15:39:24.036Z</time>
      </trkpt>
      <trkpt lat="43.34325" lon="6.58901">
        <ele>61.08</ele>
        <time>2025-03-15T15:39:32.420Z</time>
      </trkpt>
      <trkpt lat="43.34328" lon="6.58871">
        <ele>61.66</ele>
        <time>2025-03-15T15:39:42.249Z</time>
      </trkpt>
      <trkpt lat="43.3433" lon="6.58841">
        <ele>62.34</ele>
        <time>2025-03-15T15:39:52.176Z</time>
      </trkpt>
      <trkpt lat="43.34304" lon="6.58832">
        <ele>63.13</ele>
        <time>2025-03-15T15:40:04.139Z</time>
      </trkpt>
      <trkpt lat="43.3429" lon="6.58845">
        <ele>64.06</ele>
        <time>2025-03-15T15:40:12.379Z</time>
      </trkpt>
      <trkpt lat="43.34276" lon="6.58858">
        <ele>65.1</ele>
        <time>2025-03-15T15:40:20.803Z</time>
      </trkpt>
      <trkpt lat="43.34251" lon="6.58861">
        <ele>66.35</ele>
        <time>2025-03-15T15:40:32.757Z</time>
      </trkpt>
      <trkpt lat="43.34227" lon="6.58864">
        <ele>67.73</ele>
        <time>2025-03-15T15:40:44.940Z</time>
      </trkpt>
      <trkpt lat="43.34203" lon="6.58871">
        <ele>69.26</ele>
        <time>2025-03-15T15:40:57.065Z</time>
      </trkpt>
      <trkpt lat="43.34179" lon="6.58877">
        <ele>70.85</ele>
        <time>2025-03-15T15:41:09.304Z</time>
      </trkpt>
      <trkpt lat="43.34164" lon="6.58892">
        <ele>72.37</ele>
        <time>2025-03-15T15:41:19.262Z</time>
      </trkpt>
      <trkpt lat="43.34158" lon="6.58892">
        <ele>74.02</ele>
        <time>2025-03-15T15:41:25.935Z</time>
      </trkpt>
      <trkpt lat="43.34149" lon="6.58866">
        <ele>75.98</ele>
        <time>2025-03-15T15:41:37.497Z</time>
      </trkpt>
      <trkpt lat="43.34152" lon="6.58849">
        <ele>77.81</ele>
        <time>2025-03-15T15:41:45.977Z</time>
      </trkpt>
      <trkpt lat="43.34162" lon="6.58816">
        <ele>79.76</ele>
        <time>2025-03-15T15:41:59.704Z</time>
      </trkpt>
      <trkpt lat="43.34173" lon="6.58783">
        <ele>81.68</ele>
        <time>2025-03-15T15:42:13.376Z</time>
      </trkpt>
      <trkpt lat="43.34184" lon="6.58751">
        <ele>83.69</ele>
        <time>2025-03-15T15:42:27.154Z</time>
      </trkpt>
      <trkpt lat="43.34188" lon="6.58727">
        <ele>85.64</ele>
        <time>2025-03-15T15:42:37.622Z</time>
      </trkpt>
      <trkpt lat="43.34188" lon="6.58695">
        <ele>87.66</ele>
        <time>2025-03-15T15:42:50.365Z</time>
      </trkpt>
      <trkpt lat="43.34184" lon="6.58691">
        <ele>89.67</ele>
        <time>2025-03-15T15:42:59.473Z</time>
      </trkpt>
      <trkpt lat="43.34179" lon="6.58695">
        <ele>91.69</ele>
        <time>2025-03-15T15:43:08.648Z</time>
      </trkpt>
      <trkpt lat="43.34171" lon="6.58716">
        <ele>93.72</ele>
        <time>2025-03-15T15:43:19.326Z</time>
      </trkpt>
      <trkpt lat="43.34149" lon="6.58744">
        <ele>95.8</ele>
        <time>2025-03-15T15:43:34.559Z</time>
      </trkpt>
      <trkpt lat="43.34141" lon="6.58748">
        <ele>97.85</ele>
        <time>2025-03-15T15:43:42.878Z</time>
      </trkpt>
      <trkpt lat="43.34137" lon="6.58746">
        <ele>99.92</ele>
        <time>2025-03-15T15:43:52.737Z</time>
      </trkpt>
      <trkpt lat="43.34134" lon="6.5874">
        <ele>102.04</ele>
        <time>2025-03-15T15:44:02.733Z</time>
      </trkpt>
      <trkpt lat="43.34139" lon="6.58731">
        <ele>104.14</ele>
        <time>2025-03-15T15:44:11.294Z</time>
      </trkpt>
      <trkpt lat="43.34145" lon="6.58725">
        <ele>106.2</ele>
        <time>2025-03-15T15:44:19.630Z</time>
      </trkpt>
      <trkpt lat="43.3415" lon="6.58704">
        <ele>108.31</ele>
        <time>2025-03-15T15:44:29.792Z</time>
      </trkpt>
      <trkpt lat="43.34156" lon="6.58684">
        <ele>110.46</ele>
        <time>2025-03-15T15:44:40.028Z</time>
      </trkpt>
      <trkpt lat="43.34145" lon="6.58675">
        <ele>112.75</ele>
        <time>2025-03-15T15:44:49.690Z</time>
      </trkpt>
      <trkpt lat="43.34137" lon="6.58691">
        <ele>114.98</ele>
        <time>2025-03-15T15:44:59.562Z</time>
      </trkpt>
      <trkpt lat="43.3413" lon="6.58695">
        <ele>117.25</ele>
        <time>2025-03-15T15:45:09.117Z</time>
      </trkpt>
      <trkpt lat="43.34126" lon="6.58688">
        <ele>119.57</ele>
        <time>2025-03-15T15:45:19.451Z</time>
      </trkpt>
      <trkpt lat="43.34117" lon="6.58652">
        <ele>122.07</ele>
        <time>2025-03-15T15:45:34.807Z</time>
      </trkpt>
      <trkpt lat="43.34102" lon="6.58633">
        <ele>124.58</ele>
        <time>2025-03-15T15:45:47.497Z</time>
      </trkpt>
      <trkpt lat="43.34089" lon="6.58605">
        <ele>127.13</ele>
        <time>2025-03-15T15:46:01.510Z</time>
      </trkpt>
      <trkpt lat="43.34098" lon="6.58568">
        <ele>129.63</ele>
        <time>2025-03-15T15:46:16.866Z</time>
      </trkpt>
      <trkpt lat="43.34098" lon="6.58535">
        <ele>132.16</ele>
        <time>2025-03-15T15:46:30.919Z</time>
      </trkpt>
      <trkpt lat="43.34098" lon="6.58502">
        <ele>134.78</ele>
        <time>2025-03-15T15:46:45.112Z</time>
      </trkpt>
      <trkpt lat="43.34091" lon="6.58495">
        <ele>137.38</ele>
        <time>2025-03-15T15:46:56.166Z</time>
      </trkpt>
      <trkpt lat="43.34085" lon="6.58495">
        <ele>139.94</ele>
        <time>2025-03-15T15:47:08.042Z</time>
      </trkpt>
      <trkpt lat="43.34074" lon="6.58506">
        <ele>142.5</ele>
        <time>2025-03-15T15:47:18.713Z</time>
      </trkpt>
      <trkpt lat="43.34057" lon="6.58515">
        <ele>145.15</ele>
        <time>2025-03-15T15:47:30.969Z</time>
      </trkpt>
      <trkpt lat="43.34051" lon="6.58502">
        <ele>147.83</ele>
        <time>2025-03-15T15:47:41.805Z</time>
      </trkpt>
      <trkpt lat="43.34056" lon="6.5847">
        <ele>150.43</ele>
        <time>2025-03-15T15:47:55.661Z</time>
      </trkpt>
      <trkpt lat="43.34061" lon="6.58439">
        <ele>152.87</ele>
        <time>2025-03-15T15:48:09.146Z</time>
      </trkpt>
      <trkpt lat="43.34055" lon="6.58435">
        <ele>155.4</ele>
        <time>2025-03-15T15:48:20.251Z</time>
      </trkpt>
      <trkpt lat="43.34049" lon="6.58433">
        <ele>157.9</ele>
        <time>2025-03-15T15:48:31.559Z</time>
      </trkpt>
      <trkpt lat="43.34034" lon="6.58461">
        <ele>160.37</ele>
        <time>2025-03-15T15:48:45.860Z</time>
      </trkpt>
      <trkpt lat="43.34025" lon="6.58465">
        <ele>162.76</ele>
        <time>2025-03-15T15:48:55.539Z</time>
      </trkpt>
      <trkpt lat="43.34021" lon="6.58459">
        <ele>165.11</ele>
        <time>2025-03-15T15:49:06.069Z</time>
      </trkpt>
      <trkpt lat="43.34022" lon="6.5843">
        <ele>167.44</ele>
        <time>2025-03-15T15:49:18.580Z</time>
      </trkpt>
      <trkpt lat="43.34023" lon="6.58401">
        <ele>169.67</ele>
        <time>2025-03-15T15:49:30.845Z</time>
      </trkpt>
      <trkpt lat="43.3401" lon="6.58386">
        <ele>171.97</ele>
        <time>2025-03-15T15:49:41.812Z</time>
      </trkpt>
      <trkpt lat="43.34003" lon="6.58386">
        <ele>174.07</ele>
        <time>2025-03-15T15:49:50.736Z</time>
      </trkpt>
      <trkpt lat="43.33993" lon="6.58416">
        <ele>175.99</ele>
        <time>2025-03-15T15:50:03.655Z</time>
      </trkpt>
      <trkpt lat="43.33984" lon="6.58416">
        <ele>177.92</ele>
        <time>2025-03-15T15:50:11.486Z</time>
      </trkpt>
      <trkpt lat="43.3398" lon="6.58412">
        <ele>179.73</ele>
        <time>2025-03-15T15:50:19.310Z</time>
      </trkpt>
      <trkpt lat="43.33981" lon="6.58387">
        <ele>181.49</ele>
        <time>2025-03-15T15:50:29.515Z</time>
      </trkpt>
      <trkpt lat="43.33982" lon="6.58362">
        <ele>183.09</ele>
        <time>2025-03-15T15:50:39.375Z</time>
      </trkpt>
      <trkpt lat="43.33979" lon="6.58345">
        <ele>184.55</ele>
        <time>2025-03-15T15:50:47.049Z</time>
      </trkpt>
      <trkpt lat="43.33975" lon="6.58321">
        <ele>185.9</ele>
        <time>2025-03-15T15:50:56.346Z</time>
      </trkpt>
      <trkpt lat="43.33971" lon="6.58298">
        <ele>187.09</ele>
        <time>2025-03-15T15:51:05.331Z</time>
      </trkpt>
      <trkpt lat="43.33972" lon="6.58261">
        <ele>188.09</ele>
        <time>2025-03-15T15:51:17.654Z</time>
      </trkpt>
      <trkpt lat="43.33973" lon="6.58225">
        <ele>188.81</ele>
        <time>2025-03-15T15:51:29.513Z</time>
      </trkpt>
      <trkpt lat="43.33961" lon="6.58212">
        <ele>189.46</ele>
        <time>2025-03-15T15:51:36.961Z</time>
      </trkpt>
      <trkpt lat="43.33963" lon="6.58201">
        <ele>189.85</ele>
        <time>2025-03-15T15:51:40.839Z</time>
      </trkpt>
      <trkpt lat="43.3395" lon="6.58188">
        <ele>190.11</ele>
        <time>2025-03-15T15:51:47.724Z</time>
      </trkpt>
      <trkpt lat="43.3395" lon="6.58188">
        <ele>190.12</ele>
        <time>2025-03-15T15:51:47.742Z</time>
      </trkpt>
      <trkpt lat="43.33964" lon="6.58171">
        <ele>189.97</ele>
        <time>2025-03-15T15:51:55.255Z</time>
      </trkpt>
      <trkpt lat="43.33978" lon="6.58154">
        <ele>189.59</ele>
        <time>2025-03-15T15:52:02.490Z</time>
      </trkpt>
      <trkpt lat="43.33993" lon="6.58141">
        <ele>189.02</ele>
        <time>2025-03-15T15:52:09.095Z</time>
      </trkpt>
      <trkpt lat="43.34006" lon="6.58133">
        <ele>188.17</ele>
        <time>2025-03-15T15:52:14.244Z</time>
      </trkpt>
      <trkpt lat="43.34023" lon="6.58113">
        <ele>187.21</ele>
        <time>2025-03-15T15:52:22.255Z</time>
      </trkpt>
      <trkpt lat="43.34046" lon="6.58098">
        <ele>186.01</ele>
        <time>2025-03-15T15:52:31.376Z</time>
      </trkpt>
      <trkpt lat="43.34069" lon="6.58083">
        <ele>184.73</ele>
        <time>2025-03-15T15:52:40.497Z</time>
      </trkpt>
      <trkpt lat="43.34091" lon="6.58068">
        <ele>183.22</ele>
        <time>2025-03-15T15:52:49.633Z</time>
      </trkpt>
      <trkpt lat="43.34117" lon="6.58055">
        <ele>181.54</ele>
        <time>2025-03-15T15:52:59.492Z</time>
      </trkpt>
      <trkpt lat="43.34134" lon="6.58059">
        <ele>179.8</ele>
        <time>2025-03-15T15:53:05.716Z</time>
      </trkpt>
      <trkpt lat="43.34152" lon="6.58062">
        <ele>177.86</ele>
        <time>2025-03-15T15:53:11.960Z</time>
      </trkpt>
      <trkpt lat="43.34167" lon="6.58058">
        <ele>175.79</ele>
        <time>2025-03-15T15:53:17.480Z</time>
      </trkpt>
      <trkpt lat="43.34188" lon="6.58042">
        <ele>173.48</ele>
        <time>2025-03-15T15:53:26.144Z</time>
      </trkpt>
      <trkpt lat="43.34192" lon="6.58032">
        <ele>171.28</ele>
        <time>2025-03-15T15:53:29.348Z</time>
      </trkpt>
      <trkpt lat="43.34202" lon="6.58002">
        <ele>168.96</ele>
        <time>2025-03-15T15:53:37.841Z</time>
      </trkpt>
      <trkpt lat="43.34212" lon="6.57973">
        <ele>166.63</ele>
        <time>2025-03-15T15:53:46.334Z</time>
      </trkpt>
      <trkpt lat="43.34222" lon="6.57944">
        <ele>164.14</ele>
        <time>2025-03-15T15:53:54.783Z</time>
      </trkpt>
      <trkpt lat="43.34227" lon="6.57942">
        <ele>161.75</ele>
        <time>2025-03-15T15:53:56.426Z</time>
      </trkpt>
      <trkpt lat="43.34233" lon="6.57944">
        <ele>159.36</ele>
        <time>2025-03-15T15:53:58.809Z</time>
      </trkpt>
      <trkpt lat="43.34237" lon="6.57957">
        <ele>157</ele>
        <time>2025-03-15T15:54:02.516Z</time>
      </trkpt>
      <trkpt lat="43.34242" lon="6.57961">
        <ele>154.6</ele>
        <time>2025-03-15T15:54:04.425Z</time>
      </trkpt>
      <trkpt lat="43.34244" lon="6.57959">
        <ele>152.18</ele>
        <time>2025-03-15T15:54:05.380Z</time>
      </trkpt>
      <trkpt lat="43.3425" lon="6.57918">
        <ele>149.46</ele>
        <time>2025-03-15T15:54:16.297Z</time>
      </trkpt>
      <trkpt lat="43.34248" lon="6.57897">
        <ele>146.98</ele>
        <time>2025-03-15T15:54:21.965Z</time>
      </trkpt>
      <trkpt lat="43.3425" lon="6.57892">
        <ele>144.62</ele>
        <time>2025-03-15T15:54:23.328Z</time>
      </trkpt>
      <trkpt lat="43.34265" lon="6.57892">
        <ele>142.22</ele>
        <time>2025-03-15T15:54:28.733Z</time>
      </trkpt>
      <trkpt lat="43.34274" lon="6.57899">
        <ele>139.97</ele>
        <time>2025-03-15T15:54:32.251Z</time>
      </trkpt>
      <trkpt lat="43.34282" lon="6.57916">
        <ele>137.82</ele>
        <time>2025-03-15T15:54:37.703Z</time>
      </trkpt>
      <trkpt lat="43.34287" lon="6.57912">
        <ele>135.68</ele>
        <time>2025-03-15T15:54:39.612Z</time>
      </trkpt>
      <trkpt lat="43.34282" lon="6.57877">
        <ele>133.55</ele>
        <time>2025-03-15T15:54:48.728Z</time>
      </trkpt>
      <trkpt lat="43.3427" lon="6.57851">
        <ele>131.56</ele>
        <time>2025-03-15T15:54:56.916Z</time>
      </trkpt>
      <trkpt lat="43.34257" lon="6.57826">
        <ele>129.65</ele>
        <time>2025-03-15T15:55:05.083Z</time>
      </trkpt>
      <trkpt lat="43.34257" lon="6.57789">
        <ele>127.77</ele>
        <time>2025-03-15T15:55:14.629Z</time>
      </trkpt>
      <trkpt lat="43.34267" lon="6.57763">
        <ele>126.03</ele>
        <time>2025-03-15T15:55:22.282Z</time>
      </trkpt>
      <trkpt lat="43.34277" lon="6.57738">
        <ele>124.42</ele>
        <time>2025-03-15T15:55:29.936Z</time>
      </trkpt>
      <trkpt lat="43.34287" lon="6.57712">
        <ele>122.96</ele>
        <time>2025-03-15T15:55:37.552Z</time>
      </trkpt>
      <trkpt lat="43.34302" lon="6.57706">
        <ele>121.68</ele>
        <time>2025-03-15T15:55:43.214Z</time>
      </trkpt>
      <trkpt lat="43.34319" lon="6.57691">
        <ele>120.47</ele>
        <time>2025-03-15T15:55:50.535Z</time>
      </trkpt>
      <trkpt lat="43.34336" lon="6.57673">
        <ele>119.46</ele>
        <time>2025-03-15T15:55:58.174Z</time>
      </trkpt>
      <trkpt lat="43.34353" lon="6.57656">
        <ele>118.6</ele>
        <time>2025-03-15T15:56:05.902Z</time>
      </trkpt>
      <trkpt lat="43.3437" lon="6.5763">
        <ele>117.88</ele>
        <time>2025-03-15T15:56:15.471Z</time>
      </trkpt>
      <trkpt lat="43.34387" lon="6.57604">
        <ele>117.26</ele>
        <time>2025-03-15T15:56:25.156Z</time>
      </trkpt>
      <trkpt lat="43.34403" lon="6.57577">
        <ele>116.75</ele>
        <time>2025-03-15T15:56:34.967Z</time>
      </trkpt>
      <trkpt lat="43.3442" lon="6.57551">
        <ele>116.4</ele>
        <time>2025-03-15T15:56:44.928Z</time>
      </trkpt>
      <trkpt lat="43.34433" lon="6.57516">
        <ele>116.2</ele>
        <time>2025-03-15T15:56:56.494Z</time>
      </trkpt>
      <trkpt lat="43.34447" lon="6.57481">
        <ele>116.07</ele>
        <time>2025-03-15T15:57:08.148Z</time>
      </trkpt>
      <trkpt lat="43.3446" lon="6.57446">
        <ele>116.03</ele>
        <time>2025-03-15T15:57:19.913Z</time>
      </trkpt>
      <trkpt lat="43.34473" lon="6.57412">
        <ele>115.99</ele>
        <time>2025-03-15T15:57:31.601Z</time>
      </trkpt>
      <trkpt lat="43.34491" lon="6.57383">
        <ele>116.06</ele>
        <time>2025-03-15T15:57:42.878Z</time>
      </trkpt>
      <trkpt lat="43.34508" lon="6.57354">
        <ele>116.19</ele>
        <time>2025-03-15T15:57:54.207Z</time>
      </trkpt>
      <trkpt lat="43.34517" lon="6.57325">
        <ele>116.35</ele>
        <time>2025-03-15T15:58:03.961Z</time>
      </trkpt>
      <trkpt lat="43.34527" lon="6.57296">
        <ele>116.46</ele>
        <time>2025-03-15T15:58:13.613Z</time>
      </trkpt>
      <trkpt lat="43.34538" lon="6.57272">
        <ele>116.62</ele>
        <time>2025-03-15T15:58:22.144Z</time>
      </trkpt>
      <trkpt lat="43.34566" lon="6.57253">
        <ele>116.83</ele>
        <time>2025-03-15T15:58:35.257Z</time>
      </trkpt>
      <trkpt lat="43.34576" lon="6.57238">
        <ele>116.97</ele>
        <time>2025-03-15T15:58:41.734Z</time>
      </trkpt>
      <trkpt lat="43.34596" lon="6.5721">
        <ele>117.06</ele>
        <time>2025-03-15T15:58:53.578Z</time>
      </trkpt>
      <trkpt lat="43.34616" lon="6.57182">
        <ele>117.17</ele>
        <time>2025-03-15T15:59:05.449Z</time>
      </trkpt>
      <trkpt lat="43.34636" lon="6.57154">
        <ele>117.34</ele>
        <time>2025-03-15T15:59:17.375Z</time>
      </trkpt>
      <trkpt lat="43.34637" lon="6.57154">
        <ele>117.55</ele>
        <time>2025-03-15T15:59:17.393Z</time>
      </trkpt>
      <trkpt lat="43.34649" lon="6.57135">
        <ele>117.74</ele>
        <time>2025-03-15T15:59:25.478Z</time>
      </trkpt>
      <trkpt lat="43.34662" lon="6.57116">
        <ele>118.01</ele>
        <time>2025-03-15T15:59:33.659Z</time>
      </trkpt>
      <trkpt lat="43.34674" lon="6.57092">
        <ele>118.21</ele>
        <time>2025-03-15T15:59:42.494Z</time>
      </trkpt>
      <trkpt lat="43.34686" lon="6.57068">
        <ele>118.53</ele>
        <time>2025-03-15T15:59:51.469Z</time>
      </trkpt>
      <trkpt lat="43.3469" lon="6.57028">
        <ele>118.85</ele>
        <time>2025-03-15T16:00:04.203Z</time>
      </trkpt>
      <trkpt lat="43.34696" lon="6.57006">
        <ele>119.11</ele>
        <time>2025-03-15T16:00:11.345Z</time>
      </trkpt>
      <trkpt lat="43.34701" lon="6.56985">
        <ele>119.42</ele>
        <time>2025-03-15T16:00:18.524Z</time>
      </trkpt>
      <trkpt lat="43.34715" lon="6.56947">
        <ele>119.68</ele>
        <time>2025-03-15T16:00:31.490Z</time>
      </trkpt>
      <trkpt lat="43.34729" lon="6.5691">
        <ele>119.99</ele>
        <time>2025-03-15T16:00:44.480Z</time>
      </trkpt>
      <trkpt lat="43.34742" lon="6.56881">
        <ele>120.45</ele>
        <time>2025-03-15T16:00:55.164Z</time>
      </trkpt>
      <trkpt lat="43.34755" lon="6.56852">
        <ele>120.97</ele>
        <time>2025-03-15T16:01:05.929Z</time>
      </trkpt>
      <trkpt lat="43.34767" lon="6.56824">
        <ele>121.59</ele>
        <time>2025-03-15T16:01:16.791Z</time>
      </trkpt>
      <trkpt lat="43.34789" lon="6.56794">
        <ele>122.26</ele>
        <time>2025-03-15T16:01:30.274Z</time>
      </trkpt>
      <trkpt lat="43.34809" lon="6.56787">
        <ele>123.03</ele>
        <time>2025-03-15T16:01:39.922Z</time>
      </trkpt>
      <trkpt lat="43.3483" lon="6.56781">
        <ele>123.91</ele>
        <time>2025-03-15T16:01:49.757Z</time>
      </trkpt>
      <trkpt lat="43.34836" lon="6.5677">
        <ele>124.79</ele>
        <time>2025-03-15T16:01:55.276Z</time>
      </trkpt>
      <trkpt lat="43.3485" lon="6.56741">
        <ele>125.79</ele>
        <time>2025-03-15T16:02:07.062Z</time>
      </trkpt>
      <trkpt lat="43.34864" lon="6.56712">
        <ele>126.84</ele>
        <time>2025-03-15T16:02:18.895Z</time>
      </trkpt>
      <trkpt lat="43.34875" lon="6.56696">
        <ele>127.9</ele>
        <time>2025-03-15T16:02:26.991Z</time>
      </trkpt>
      <trkpt lat="43.34885" lon="6.5668">
        <ele>129.02</ele>
        <time>2025-03-15T16:02:35.180Z</time>
      </trkpt>
      <trkpt lat="43.349" lon="6.56658">
        <ele>130.15</ele>
        <time>2025-03-15T16:02:45.692Z</time>
      </trkpt>
      <trkpt lat="43.34912" lon="6.56637">
        <ele>131.38</ele>
        <time>2025-03-15T16:02:55.540Z</time>
      </trkpt>
      <trkpt lat="43.34924" lon="6.56616">
        <ele>132.68</ele>
        <time>2025-03-15T16:03:05.490Z</time>
      </trkpt>
      <trkpt lat="43.34938" lon="6.56585">
        <ele>134.05</ele>
        <time>2025-03-15T16:03:18.115Z</time>
      </trkpt>
      <trkpt lat="43.34952" lon="6.56555">
        <ele>135.22</ele>
        <time>2025-03-15T16:03:30.397Z</time>
      </trkpt>
      <trkpt lat="43.34956" lon="6.56536">
        <ele>136.25</ele>
        <time>2025-03-15T16:03:37.964Z</time>
      </trkpt>
      <trkpt lat="43.34959" lon="6.56494">
        <ele>137.25</ele>
        <time>2025-03-15T16:03:51.937Z</time>
      </trkpt>
      <trkpt lat="43.34963" lon="6.56452">
        <ele>138.32</ele>
        <time>2025-03-15T16:04:05.954Z</time>
      </trkpt>
      <trkpt lat="43.34964" lon="6.56416">
        <ele>139.34</ele>
        <time>2025-03-15T16:04:18.304Z</time>
      </trkpt>
      <trkpt lat="43.34965" lon="6.5638">
        <ele>140.22</ele>
        <time>2025-03-15T16:04:30.393Z</time>
      </trkpt>
      <trkpt lat="43.3497" lon="6.56343">
        <ele>141.01</ele>
        <time>2025-03-15T16:04:42.458Z</time>
      </trkpt>
      <trkpt lat="43.34976" lon="6.56307">
        <ele>141.77</ele>
        <time>2025-03-15T16:04:54.479Z</time>
      </trkpt>
      <trkpt lat="43.34981" lon="6.56271">
        <ele>142.43</ele>
        <time>2025-03-15T16:05:06.359Z</time>
      </trkpt>
      <trkpt lat="43.34986" lon="6.56236">
        <ele>142.97</ele>
        <time>2025-03-15T16:05:17.970Z</time>
      </trkpt>
      <trkpt lat="43.34987" lon="6.56208">
        <ele>143.43</ele>
        <time>2025-03-15T16:05:26.958Z</time>
      </trkpt>
      <trkpt lat="43.34988" lon="6.5618">
        <ele>143.8</ele>
        <time>2025-03-15T16:05:35.776Z</time>
      </trkpt>
      <trkpt lat="43.34988" lon="6.5618">
        <ele>144.13</ele>
        <time>2025-03-15T16:05:35.794Z</time>
      </trkpt>
      <trkpt lat="43.34993" lon="6.5615">
        <ele>144.37</ele>
        <time>2025-03-15T16:05:45.259Z</time>
      </trkpt>
      <trkpt lat="43.34998" lon="6.56125">
        <ele>144.55</ele>
        <time>2025-03-15T16:05:53.212Z</time>
      </trkpt>
      <trkpt lat="43.35003" lon="6.56101">
        <ele>144.65</ele>
        <time>2025-03-15T16:06:01.024Z</time>
      </trkpt>
      <trkpt lat="43.34997" lon="6.56073">
        <ele>144.73</ele>
        <time>2025-03-15T16:06:09.877Z</time>
      </trkpt>
      <trkpt lat="43.34995" lon="6.56053">
        <ele>144.68</ele>
        <time>2025-03-15T16:06:15.656Z</time>
      </trkpt>
      <trkpt lat="43.34999" lon="6.5602">
        <ele>144.56</ele>
        <time>2025-03-15T16:06:25.633Z</time>
      </trkpt>
      <trkpt lat="43.35003" lon="6.55987">
        <ele>144.39</ele>
        <time>2025-03-15T16:06:35.497Z</time>
      </trkpt>
      <trkpt lat="43.35013" lon="6.55954">
        <ele>144.23</ele>
        <time>2025-03-15T16:06:46.027Z</time>
      </trkpt>
      <trkpt lat="43.35023" lon="6.5592">
        <ele>143.98</ele>
        <time>2025-03-15T16:06:56.405Z</time>
      </trkpt>
      <trkpt lat="43.35037" lon="6.55888">
        <ele>143.76</ele>
        <time>2025-03-15T16:07:07.352Z</time>
      </trkpt>
      <trkpt lat="43.35051" lon="6.55856">
        <ele>143.59</ele>
        <time>2025-03-15T16:07:18.328Z</time>
      </trkpt>
      <trkpt lat="43.35055" lon="6.55824">
        <ele>143.48</ele>
        <time>2025-03-15T16:07:27.998Z</time>
      </trkpt>
      <trkpt lat="43.35059" lon="6.55792">
        <ele>143.36</ele>
        <time>2025-03-15T16:07:37.611Z</time>
      </trkpt>
      <trkpt lat="43.3506" lon="6.55749">
        <ele>143.24</ele>
        <time>2025-03-15T16:07:50.334Z</time>
      </trkpt>
      <trkpt lat="43.35061" lon="6.55706">
        <ele>143.03</ele>
        <time>2025-03-15T16:08:02.880Z</time>
      </trkpt>
      <trkpt lat="43.35066" lon="6.55681">
        <ele>142.89</ele>
        <time>2025-03-15T16:08:10.311Z</time>
      </trkpt>
      <trkpt lat="43.3507" lon="6.55656">
        <ele>142.8</ele>
        <time>2025-03-15T16:08:17.767Z</time>
      </trkpt>
      <trkpt lat="43.35071" lon="6.55624">
        <ele>142.66</ele>
        <time>2025-03-15T16:08:27.413Z</time>
      </trkpt>
      <trkpt lat="43.35072" lon="6.55591">
        <ele>142.5</ele>
        <time>2025-03-15T16:08:37.031Z</time>
      </trkpt>
      <trkpt lat="43.35073" lon="6.55558">
        <ele>142.35</ele>
        <time>2025-03-15T16:08:46.664Z</time>
      </trkpt>
      <trkpt lat="43.35074" lon="6.55525">
        <ele>142.29</ele>
        <time>2025-03-15T16:08:56.311Z</time>
      </trkpt>
      <trkpt lat="43.35076" lon="6.55485">
        <ele>142.36</ele>
        <time>2025-03-15T16:09:08.653Z</time>
      </trkpt>
      <trkpt lat="43.35079" lon="6.55444">
        <ele>142.4</ele>
        <time>2025-03-15T16:09:20.958Z</time>
      </trkpt>
      <trkpt lat="43.35081" lon="6.55403">
        <ele>142.39</ele>
        <time>2025-03-15T16:09:33.199Z</time>
      </trkpt>
      <trkpt lat="43.35083" lon="6.55362">
        <ele>142.25</ele>
        <time>2025-03-15T16:09:45.275Z</time>
      </trkpt>
      <trkpt lat="43.35085" lon="6.55321">
        <ele>142.04</ele>
        <time>2025-03-15T16:09:57.267Z</time>
      </trkpt>
      <trkpt lat="43.35087" lon="6.55281">
        <ele>141.8</ele>
        <time>2025-03-15T16:10:09.043Z</time>
      </trkpt>
      <trkpt lat="43.35089" lon="6.55257">
        <ele>141.55</ele>
        <time>2025-03-15T16:10:15.867Z</time>
      </trkpt>
      <trkpt lat="43.35091" lon="6.55234">
        <ele>141.26</ele>
        <time>2025-03-15T16:10:22.608Z</time>
      </trkpt>
      <trkpt lat="43.35098" lon="6.55206">
        <ele>141.04</ele>
        <time>2025-03-15T16:10:31.105Z</time>
      </trkpt>
      <trkpt lat="43.35104" lon="6.55178">
        <ele>140.82</ele>
        <time>2025-03-15T16:10:39.567Z</time>
      </trkpt>
      <trkpt lat="43.35104" lon="6.55159">
        <ele>140.57</ele>
        <time>2025-03-15T16:10:45.037Z</time>
      </trkpt>
      <trkpt lat="43.35104" lon="6.55159">
        <ele>140.36</ele>
        <time>2025-03-15T16:10:45.040Z</time>
      </trkpt>
      <trkpt lat="43.35103" lon="6.55141">
        <ele>140.12</ele>
        <time>2025-03-15T16:10:50.089Z</time>
      </trkpt>
      <trkpt lat="43.35103" lon="6.55138">
        <ele>139.93</ele>
        <time>2025-03-15T16:10:50.719Z</time>
      </trkpt>
      <trkpt lat="43.35102" lon="6.55126">
        <ele>139.76</ele>
        <time>2025-03-15T16:10:54.117Z</time>
      </trkpt>
      <trkpt lat="43.35091" lon="6.55109">
        <ele>139.56</ele>
        <time>2025-03-15T16:11:00.641Z</time>
      </trkpt>
      <trkpt lat="43.35091" lon="6.55109">
        <ele>139.45</ele>
        <time>2025-03-15T16:11:00.644Z</time>
      </trkpt>
      <trkpt lat="43.35071" lon="6.55077">
        <ele>139.29</ele>
        <time>2025-03-15T16:11:13.222Z</time>
      </trkpt>
      <trkpt lat="43.35051" lon="6.55045">
        <ele>139.26</ele>
        <time>2025-03-15T16:11:25.936Z</time>
      </trkpt>
      <trkpt lat="43.35031" lon="6.55024">
        <ele>139.28</ele>
        <time>2025-03-15T16:11:36.249Z</time>
      </trkpt>
      <trkpt lat="43.35011" lon="6.55003">
        <ele>139.3</ele>
        <time>2025-03-15T16:11:46.559Z</time>
      </trkpt>
      <trkpt lat="43.34991" lon="6.54982">
        <ele>139.32</ele>
        <time>2025-03-15T16:11:56.873Z</time>
      </trkpt>
      <trkpt lat="43.34971" lon="6.54961">
        <ele>139.35</ele>
        <time>2025-03-15T16:12:07.187Z</time>
      </trkpt>
      <trkpt lat="43.34973" lon="6.54948">
        <ele>139.74</ele>
        <time>2025-03-15T16:12:11.677Z</time>
      </trkpt>
      <trkpt lat="43.34965" lon="6.54925">
        <ele>140.1</ele>
        <time>2025-03-15T16:12:20.043Z</time>
      </trkpt>
      <trkpt lat="43.34965" lon="6.54905">
        <ele>140.59</ele>
        <time>2025-03-15T16:12:26.489Z</time>
      </trkpt>
      <trkpt lat="43.34966" lon="6.54896">
        <ele>141.11</ele>
        <time>2025-03-15T16:12:30.062Z</time>
      </trkpt>
      <trkpt lat="43.34966" lon="6.54894">
        <ele>141.67</ele>
        <time>2025-03-15T16:12:32.418Z</time>
      </trkpt>
      <trkpt lat="43.34969" lon="6.54861">
        <ele>142.33</ele>
        <time>2025-03-15T16:12:43.198Z</time>
      </trkpt>
      <trkpt lat="43.34971" lon="6.54828">
        <ele>143.07</ele>
        <time>2025-03-15T16:12:54.043Z</time>
      </trkpt>
      <trkpt lat="43.34977" lon="6.54803">
        <ele>143.83</ele>
        <time>2025-03-15T16:13:02.816Z</time>
      </trkpt>
      <trkpt lat="43.34982" lon="6.54779">
        <ele>144.59</ele>
        <time>2025-03-15T16:13:11.554Z</time>
      </trkpt>
      <trkpt lat="43.34986" lon="6.54755">
        <ele>145.39</ele>
        <time>2025-03-15T16:13:19.950Z</time>
      </trkpt>
      <trkpt lat="43.34999" lon="6.54729">
        <ele>146.34</ele>
        <time>2025-03-15T16:13:30.614Z</time>
      </trkpt>
      <trkpt lat="43.34999" lon="6.54729">
        <ele>147.19</ele>
        <time>2025-03-15T16:13:30.632Z</time>
      </trkpt>
      <trkpt lat="43.35008" lon="6.54714">
        <ele>148.09</ele>
        <time>2025-03-15T16:13:37.664Z</time>
      </trkpt>
      <trkpt lat="43.35018" lon="6.54695">
        <ele>148.99</ele>
        <time>2025-03-15T16:13:46.210Z</time>
      </trkpt>
      <trkpt lat="43.35033" lon="6.54659">
        <ele>149.92</ele>
        <time>2025-03-15T16:14:00.003Z</time>
      </trkpt>
      <trkpt lat="43.3504" lon="6.5465">
        <ele>150.82</ele>
        <time>2025-03-15T16:14:05.130Z</time>
      </trkpt>
      <trkpt lat="43.35046" lon="6.54644">
        <ele>151.71</ele>
        <time>2025-03-15T16:14:09.866Z</time>
      </trkpt>
      <trkpt lat="43.35053" lon="6.54639">
        <ele>152.57</ele>
        <time>2025-03-15T16:14:14.252Z</time>
      </trkpt>
      <trkpt lat="43.35053" lon="6.54639">
        <ele>153.35</ele>
        <time>2025-03-15T16:14:14.270Z</time>
      </trkpt>
      <trkpt lat="43.35068" lon="6.54617">
        <ele>154.11</ele>
        <time>2025-03-15T16:14:24.456Z</time>
      </trkpt>
      <trkpt lat="43.35083" lon="6.54594">
        <ele>154.93</ele>
        <time>2025-03-15T16:14:34.715Z</time>
      </trkpt>
      <trkpt lat="43.3509" lon="6.54559">
        <ele>155.61</ele>
        <time>2025-03-15T16:14:46.679Z</time>
      </trkpt>
      <trkpt lat="43.35098" lon="6.54523">
        <ele>156.29</ele>
        <time>2025-03-15T16:14:58.593Z</time>
      </trkpt>
      <trkpt lat="43.35099" lon="6.54507">
        <ele>156.75</ele>
        <time>2025-03-15T16:15:04.312Z</time>
      </trkpt>
      <trkpt lat="43.351" lon="6.54504">
        <ele>156.98</ele>
        <time>2025-03-15T16:15:05.434Z</time>
      </trkpt>
      <trkpt lat="43.35102" lon="6.54476">
        <ele>157.24</ele>
        <time>2025-03-15T16:15:14.186Z</time>
      </trkpt>
      <trkpt lat="43.35088" lon="6.5445">
        <ele>157.08</ele>
        <time>2025-03-15T16:15:23.600Z</time>
      </trkpt>
      <trkpt lat="43.35074" lon="6.54425">
        <ele>156.8</ele>
        <time>2025-03-15T16:15:32.844Z</time>
      </trkpt>
      <trkpt lat="43.35066" lon="6.54399">
        <ele>156.44</ele>
        <time>2025-03-15T16:15:40.875Z</time>
      </trkpt>
      <trkpt lat="43.35064" lon="6.54384">
        <ele>156.01</ele>
        <time>2025-03-15T16:15:44.951Z</time>
      </trkpt>
      <trkpt lat="43.3507" lon="6.54351">
        <ele>155.5</ele>
        <time>2025-03-15T16:15:54.658Z</time>
      </trkpt>
      <trkpt lat="43.35076" lon="6.5432">
        <ele>154.72</ele>
        <time>2025-03-15T16:16:03.296Z</time>
      </trkpt>
      <trkpt lat="43.35077" lon="6.54318">
        <ele>153.96</ele>
        <time>2025-03-15T16:16:03.925Z</time>
      </trkpt>
      <trkpt lat="43.35079" lon="6.54309">
        <ele>153.04</ele>
        <time>2025-03-15T16:16:06.279Z</time>
      </trkpt>
      <trkpt lat="43.35059" lon="6.5433">
        <ele>151.92</ele>
        <time>2025-03-15T16:16:15.213Z</time>
      </trkpt>
      <trkpt lat="43.35055" lon="6.5433">
        <ele>150.79</ele>
        <time>2025-03-15T16:16:16.757Z</time>
      </trkpt>
      <trkpt lat="43.35066" lon="6.54294">
        <ele>149.54</ele>
        <time>2025-03-15T16:16:27.080Z</time>
      </trkpt>
      <trkpt lat="43.35061" lon="6.5429">
        <ele>148.24</ele>
        <time>2025-03-15T16:16:28.989Z</time>
      </trkpt>
      <trkpt lat="43.35044" lon="6.54315">
        <ele>146.9</ele>
        <time>2025-03-15T16:16:38.130Z</time>
      </trkpt>
      <trkpt lat="43.35025" lon="6.5433">
        <ele>145.42</ele>
        <time>2025-03-15T16:16:46.110Z</time>
      </trkpt>
      <trkpt lat="43.34999" lon="6.54354">
        <ele>143.76</ele>
        <time>2025-03-15T16:16:57.248Z</time>
      </trkpt>
      <trkpt lat="43.34995" lon="6.5436">
        <ele>142.37</ele>
        <time>2025-03-15T16:16:59.533Z</time>
      </trkpt>
      <trkpt lat="43.34995" lon="6.5439">
        <ele>141.03</ele>
        <time>2025-03-15T16:17:07.394Z</time>
      </trkpt>
      <trkpt lat="43.34996" lon="6.54415">
        <ele>139.64</ele>
        <time>2025-03-15T16:17:13.877Z</time>
      </trkpt>
      <trkpt lat="43.34997" lon="6.5444">
        <ele>138.2</ele>
        <time>2025-03-15T16:17:20.330Z</time>
      </trkpt>
      <trkpt lat="43.35003" lon="6.54476">
        <ele>136.77</ele>
        <time>2025-03-15T16:17:30.172Z</time>
      </trkpt>
      <trkpt lat="43.3501" lon="6.54513">
        <ele>135.38</ele>
        <time>2025-03-15T16:17:40.017Z</time>
      </trkpt>
      <trkpt lat="43.35016" lon="6.54549">
        <ele>134.04</ele>
        <time>2025-03-15T16:17:49.796Z</time>
      </trkpt>
      <trkpt lat="43.35016" lon="6.54566">
        <ele>132.74</ele>
        <time>2025-03-15T16:17:54.288Z</time>
      </trkpt>
      <trkpt lat="43.3501" lon="6.54586">
        <ele>131.39</ele>
        <time>2025-03-15T16:17:59.846Z</time>
      </trkpt>
      <trkpt lat="43.34984" lon="6.54603">
        <ele>129.89</ele>
        <time>2025-03-15T16:18:10.143Z</time>
      </trkpt>
      <trkpt lat="43.34984" lon="6.54603">
        <ele>128.58</ele>
        <time>2025-03-15T16:18:10.146Z</time>
      </trkpt>
      <trkpt lat="43.34963" lon="6.54629">
        <ele>127.19</ele>
        <time>2025-03-15T16:18:20.396Z</time>
      </trkpt>
      <trkpt lat="43.34948" lon="6.54663">
        <ele>125.98</ele>
        <time>2025-03-15T16:18:30.974Z</time>
      </trkpt>
      <trkpt lat="43.34933" lon="6.54684">
        <ele>124.62</ele>
        <time>2025-03-15T16:18:38.767Z</time>
      </trkpt>
      <trkpt lat="43.34913" lon="6.54693">
        <ele>123.17</ele>
        <time>2025-03-15T16:18:46.070Z</time>
      </trkpt>
      <trkpt lat="43.34903" lon="6.54717">
        <ele>121.99</ele>
        <time>2025-03-15T16:18:53.354Z</time>
      </trkpt>
      <trkpt lat="43.34896" lon="6.54747">
        <ele>120.76</ele>
        <time>2025-03-15T16:19:01.547Z</time>
      </trkpt>
      <trkpt lat="43.34881" lon="6.54747">
        <ele>119.35</ele>
        <time>2025-03-15T16:19:06.952Z</time>
      </trkpt>
      <trkpt lat="43.3487" lon="6.54757">
        <ele>118.07</ele>
        <time>2025-03-15T16:19:11.728Z</time>
      </trkpt>
      <trkpt lat="43.34857" lon="6.54785">
        <ele>116.79</ele>
        <time>2025-03-15T16:19:20.386Z</time>
      </trkpt>
      <trkpt lat="43.34845" lon="6.54813">
        <ele>115.5</ele>
        <time>2025-03-15T16:19:29.019Z</time>
      </trkpt>
      <trkpt lat="43.34841" lon="6.54837">
        <ele>114.28</ele>
        <time>2025-03-15T16:19:35.316Z</time>
      </trkpt>
      <trkpt lat="43.34838" lon="6.5486">
        <ele>113.04</ele>
        <time>2025-03-15T16:19:41.586Z</time>
      </trkpt>
      <trkpt lat="43.34834" lon="6.54869">
        <ele>111.75</ele>
        <time>2025-03-15T16:19:44.312Z</time>
      </trkpt>
      <trkpt lat="43.34819" lon="6.54882">
        <ele>110.39</ele>
        <time>2025-03-15T16:19:50.678Z</time>
      </trkpt>
      <trkpt lat="43.34808" lon="6.54875">
        <ele>109.05</ele>
        <time>2025-03-15T16:19:54.893Z</time>
      </trkpt>
      <trkpt lat="43.34789" lon="6.54854">
        <ele>107.63</ele>
        <time>2025-03-15T16:20:03.831Z</time>
      </trkpt>
      <trkpt lat="43.3477" lon="6.54832">
        <ele>106.19</ele>
        <time>2025-03-15T16:20:12.761Z</time>
      </trkpt>
      <trkpt lat="43.34757" lon="6.54822">
        <ele>104.79</ele>
        <time>2025-03-15T16:20:18.178Z</time>
      </trkpt>
      <trkpt lat="43.34744" lon="6.54817">
        <ele>103.41</ele>
        <time>2025-03-15T16:20:22.945Z</time>
      </trkpt>
      <trkpt lat="43.34744" lon="6.54817">
        <ele>102.11</ele>
        <time>2025-03-15T16:20:22.948Z</time>
      </trkpt>
      <trkpt lat="43.34718" lon="6.54824">
        <ele>100.68</ele>
        <time>2025-03-15T16:20:32.368Z</time>
      </trkpt>
      <trkpt lat="43.34699" lon="6.54837">
        <ele>99.34</ele>
        <time>2025-03-15T16:20:40.090Z</time>
      </trkpt>
      <trkpt lat="43.34673" lon="6.5486">
        <ele>97.97</ele>
        <time>2025-03-15T16:20:51.236Z</time>
      </trkpt>
      <trkpt lat="43.34682" lon="6.54835">
        <ele>96.62</ele>
        <time>2025-03-15T16:20:58.661Z</time>
      </trkpt>
      <trkpt lat="43.3469" lon="6.54809">
        <ele>95.25</ele>
        <time>2025-03-15T16:21:06.060Z</time>
      </trkpt>
      <trkpt lat="43.34686" lon="6.54807">
        <ele>93.98</ele>
        <time>2025-03-15T16:21:07.703Z</time>
      </trkpt>
      <trkpt lat="43.34677" lon="6.54787">
        <ele>92.62</ele>
        <time>2025-03-15T16:21:13.625Z</time>
      </trkpt>
      <trkpt lat="43.34667" lon="6.54777">
        <ele>91.36</ele>
        <time>2025-03-15T16:21:18.399Z</time>
      </trkpt>
      <trkpt lat="43.34645" lon="6.54766">
        <ele>90.14</ele>
        <time>2025-03-15T16:21:26.615Z</time>
      </trkpt>
      <trkpt lat="43.3463" lon="6.54755">
        <ele>89.02</ele>
        <time>2025-03-15T16:21:32.705Z</time>
      </trkpt>
      <trkpt lat="43.34615" lon="6.54753">
        <ele>88</ele>
        <time>2025-03-15T16:21:38.139Z</time>
      </trkpt>
      <trkpt lat="43.34599" lon="6.54756">
        <ele>87.01</ele>
        <time>2025-03-15T16:21:44.140Z</time>
      </trkpt>
      <trkpt lat="43.34597" lon="6.54757">
        <ele>86</ele>
        <time>2025-03-15T16:21:44.795Z</time>
      </trkpt>
      <trkpt lat="43.34572" lon="6.54762">
        <ele>85.03</ele>
        <time>2025-03-15T16:21:53.891Z</time>
      </trkpt>
      <trkpt lat="43.34553" lon="6.54777">
        <ele>84.01</ele>
        <time>2025-03-15T16:22:01.873Z</time>
      </trkpt>
      <trkpt lat="43.34534" lon="6.54792">
        <ele>83.05</ele>
        <time>2025-03-15T16:22:09.885Z</time>
      </trkpt>
      <trkpt lat="43.34514" lon="6.54807">
        <ele>82.11</ele>
        <time>2025-03-15T16:22:17.924Z</time>
      </trkpt>
      <trkpt lat="43.3451" lon="6.54811">
        <ele>81.28</ele>
        <time>2025-03-15T16:22:19.831Z</time>
      </trkpt>
      <trkpt lat="43.34487" lon="6.54825">
        <ele>80.43</ele>
        <time>2025-03-15T16:22:28.991Z</time>
      </trkpt>
      <trkpt lat="43.34465" lon="6.54839">
        <ele>79.67</ele>
        <time>2025-03-15T16:22:38.254Z</time>
      </trkpt>
      <trkpt lat="43.34436" lon="6.54845">
        <ele>78.92</ele>
        <time>2025-03-15T16:22:49.408Z</time>
      </trkpt>
      <trkpt lat="43.34407" lon="6.54852">
        <ele>78.29</ele>
        <time>2025-03-15T16:23:00.724Z</time>
      </trkpt>
      <trkpt lat="43.34407" lon="6.54852">
        <ele>77.78</ele>
        <time>2025-03-15T16:23:00.727Z</time>
      </trkpt>
      <trkpt lat="43.34388" lon="6.54873">
        <ele>77.29</ele>
        <time>2025-03-15T16:23:10.343Z</time>
      </trkpt>
      <trkpt lat="43.34383" lon="6.54908">
        <ele>76.8</ele>
        <time>2025-03-15T16:23:20.166Z</time>
      </trkpt>
      <trkpt lat="43.34377" lon="6.5491">
        <ele>76.5</ele>
        <time>2025-03-15T16:23:22.549Z</time>
      </trkpt>
      <trkpt lat="43.34377" lon="6.5494">
        <ele>76.24</ele>
        <time>2025-03-15T16:23:31.213Z</time>
      </trkpt>
      <trkpt lat="43.34377" lon="6.54948">
        <ele>76.04</ele>
        <time>2025-03-15T16:23:33.543Z</time>
      </trkpt>
      <trkpt lat="43.34373" lon="6.54963">
        <ele>75.92</ele>
        <time>2025-03-15T16:23:38.221Z</time>
      </trkpt>
      <trkpt lat="43.34371" lon="6.54967">
        <ele>75.85</ele>
        <time>2025-03-15T16:23:39.507Z</time>
      </trkpt>
      <trkpt lat="43.3437" lon="6.54968">
        <ele>75.84</ele>
        <time>2025-03-15T16:23:39.680Z</time>
      </trkpt>
      <trkpt lat="43.34369" lon="6.54967">
        <ele>75.9</ele>
        <time>2025-03-15T16:23:40.320Z</time>
      </trkpt>
      <trkpt lat="43.34368" lon="6.54965">
        <ele>76</ele>
        <time>2025-03-15T16:23:41.008Z</time>
      </trkpt>
      <trkpt lat="43.34364" lon="6.54959">
        <ele>76.15</ele>
        <time>2025-03-15T16:23:43.818Z</time>
      </trkpt>
      <trkpt lat="43.34345" lon="6.54929">
        <ele>76.39</ele>
        <time>2025-03-15T16:23:56.120Z</time>
      </trkpt>
      <trkpt lat="43.34334" lon="6.5492">
        <ele>76.6</ele>
        <time>2025-03-15T16:24:01.498Z</time>
      </trkpt>
      <trkpt lat="43.3433" lon="6.54918">
        <ele>76.81</ele>
        <time>2025-03-15T16:24:03.670Z</time>
      </trkpt>
      <trkpt lat="43.34308" lon="6.54908">
        <ele>77.05</ele>
        <time>2025-03-15T16:24:13.371Z</time>
      </trkpt>
      <trkpt lat="43.34285" lon="6.54894">
        <ele>77.24</ele>
        <time>2025-03-15T16:24:24.177Z</time>
      </trkpt>
      <trkpt lat="43.34261" lon="6.5488">
        <ele>77.41</ele>
        <time>2025-03-15T16:24:34.963Z</time>
      </trkpt>
      <trkpt lat="43.34257" lon="6.54875">
        <ele>77.63</ele>
        <time>2025-03-15T16:24:37.453Z</time>
      </trkpt>
      <trkpt lat="43.34236" lon="6.54843">
        <ele>77.88</ele>
        <time>2025-03-15T16:24:50.555Z</time>
      </trkpt>
      <trkpt lat="43.34216" lon="6.54811">
        <ele>78.11</ele>
        <time>2025-03-15T16:25:03.601Z</time>
      </trkpt>
      <trkpt lat="43.34216" lon="6.54811">
        <ele>78.23</ele>
        <time>2025-03-15T16:25:03.619Z</time>
      </trkpt>
      <trkpt lat="43.34197" lon="6.54784">
        <ele>78.3</ele>
        <time>2025-03-15T16:25:14.960Z</time>
      </trkpt>
      <trkpt lat="43.34177" lon="6.54758">
        <ele>78.4</ele>
        <time>2025-03-15T16:25:26.336Z</time>
      </trkpt>
      <trkpt lat="43.34158" lon="6.54731">
        <ele>78.42</ele>
        <time>2025-03-15T16:25:37.613Z</time>
      </trkpt>
      <trkpt lat="43.34139" lon="6.54704">
        <ele>78.36</ele>
        <time>2025-03-15T16:25:48.786Z</time>
      </trkpt>
      <trkpt lat="43.34119" lon="6.54678">
        <ele>78.31</ele>
        <time>2025-03-15T16:25:59.936Z</time>
      </trkpt>
      <trkpt lat="43.34104" lon="6.5468">
        <ele>78.23</ele>
        <time>2025-03-15T16:26:06.049Z</time>
      </trkpt>
      <trkpt lat="43.34096" lon="6.54684">
        <ele>78.1</ele>
        <time>2025-03-15T16:26:09.645Z</time>
      </trkpt>
      <trkpt lat="43.34075" lon="6.54698">
        <ele>77.87</ele>
        <time>2025-03-15T16:26:18.806Z</time>
      </trkpt>
      <trkpt lat="43.34054" lon="6.54712">
        <ele>77.65</ele>
        <time>2025-03-15T16:26:27.976Z</time>
      </trkpt>
      <trkpt lat="43.34034" lon="6.54725">
        <ele>77.43</ele>
        <time>2025-03-15T16:26:37.162Z</time>
      </trkpt>
      <trkpt lat="43.34034" lon="6.54725">
        <ele>77.3</ele>
        <time>2025-03-15T16:26:37.165Z</time>
      </trkpt>
      <trkpt lat="43.34025" lon="6.54727">
        <ele>77.12</ele>
        <time>2025-03-15T16:26:40.534Z</time>
      </trkpt>
      <trkpt lat="43.34009" lon="6.5473">
        <ele>76.94</ele>
        <time>2025-03-15T16:26:46.992Z</time>
      </trkpt>
      <trkpt lat="43.33993" lon="6.54734">
        <ele>76.72</ele>
        <time>2025-03-15T16:26:53.417Z</time>
      </trkpt>
      <trkpt lat="43.33971" lon="6.54736">
        <ele>76.49</ele>
        <time>2025-03-15T16:27:01.972Z</time>
      </trkpt>
      <trkpt lat="43.3395" lon="6.54738">
        <ele>76.3</ele>
        <time>2025-03-15T16:27:10.594Z</time>
      </trkpt>
      <trkpt lat="43.33934" lon="6.54738">
        <ele>76.09</ele>
        <time>2025-03-15T16:27:16.947Z</time>
      </trkpt>
      <trkpt lat="43.33918" lon="6.54738">
        <ele>75.83</ele>
        <time>2025-03-15T16:27:23.254Z</time>
      </trkpt>
      <trkpt lat="43.33905" lon="6.54742">
        <ele>75.56</ele>
        <time>2025-03-15T16:27:28.375Z</time>
      </trkpt>
      <trkpt lat="43.33894" lon="6.54753">
        <ele>75.24</ele>
        <time>2025-03-15T16:27:33.445Z</time>
      </trkpt>
      <trkpt lat="43.33869" lon="6.54741">
        <ele>74.9</ele>
        <time>2025-03-15T16:27:44.126Z</time>
      </trkpt>
      <trkpt lat="43.33843" lon="6.54728">
        <ele>74.62</ele>
        <time>2025-03-15T16:27:54.874Z</time>
      </trkpt>
      <trkpt lat="43.33818" lon="6.54716">
        <ele>74.42</ele>
        <time>2025-03-15T16:28:05.721Z</time>
      </trkpt>
      <trkpt lat="43.33794" lon="6.54704">
        <ele>74.31</ele>
        <time>2025-03-15T16:28:15.962Z</time>
      </trkpt>
      <trkpt lat="43.33792" lon="6.54703">
        <ele>74.21</ele>
        <time>2025-03-15T16:28:16.618Z</time>
      </trkpt>
      <trkpt lat="43.33785" lon="6.54699">
        <ele>74.14</ele>
        <time>2025-03-15T16:28:19.890Z</time>
      </trkpt>
      <trkpt lat="43.33795" lon="6.54665">
        <ele>74.05</ele>
        <time>2025-03-15T16:28:30.953Z</time>
      </trkpt>
      <trkpt lat="43.3381" lon="6.54652">
        <ele>74.08</ele>
        <time>2025-03-15T16:28:38.270Z</time>
      </trkpt>
      <trkpt lat="43.33821" lon="6.54641">
        <ele>74.17</ele>
        <time>2025-03-15T16:28:43.842Z</time>
      </trkpt>
      <trkpt lat="43.33821" lon="6.54637">
        <ele>74.2</ele>
        <time>2025-03-15T16:28:45.164Z</time>
      </trkpt>
      <trkpt lat="43.33821" lon="6.54607">
        <ele>74.29</ele>
        <time>2025-03-15T16:28:54.264Z</time>
      </trkpt>
      <trkpt lat="43.33824" lon="6.54602">
        <ele>74.3</ele>
        <time>2025-03-15T16:28:56.021Z</time>
      </trkpt>
    </trkseg>
  </trk>
</gpx>